[[{"header":{"parameterUnit":"m.s-1","parameterCategory":1,"la1":31.0,"la2":29.5877,"lo1":-88.7671,"lo2":-86.6584,"dy":0.0162,"dx":0.0185,"nx":115,"ny":88,"refTime":"2023-10-05T12:00:00:Z","depth":0,"parameterNumber":2,"parameterNumberName":"U-component_of_WINDS"},"data":[0.0,0.0,0.0,0.0,0.0,0.0,0.0,0.0,0.0,0.0,0.0,0.0,0.0,0.0,0.0,0.0,0.0,0.0,0.0,0.0,0.0,0.0,0.0,0.0,0.0,0.0,0.0,0.0,0.0,0.0,0.0,0.0,0.0,0.0,0.0,0.0,0.0,0.0,0.0,0.0,0.0,0.0,0.0,0.0,0.0,0.0,0.0,0.0,0.0,0.0,0.0,0.0,0.0,0.0,0.0,0.0,0.0,0.0,0.0,0.0,0.0,0.0,0.0,0.0,0.0,0.0,0.0,0.0,0.0,0.0,0.0,0.0,0.0,0.0,0.0,0.0,0.0,0.0,0.0,0.0,0.0,0.0,0.0,0.0,0.0,0.0,0.0,0.0,0.0,0.0,0.0,0.0,0.0,0.0,0.0,0.0,0.0,0.0,0.0,0.0,0.0,0.0,0.0,0.0,0.0,0.0,0.0,0.0,0.0,0.0,0.0,0.0,0.0,0.0,0.0,0.0,0.0,0.0,0.0,0.0,0.0,0.0,0.0,0.0,0.0,0.0,0.0,0.0,0.0,0.0,0.0,0.0,0.0,0.0,0.0,0.0,0.0,0.0,0.0,0.0,0.0,0.0,0.0,0.0,0.0,0.0,0.0,0.0,0.0,0.0,0.0,0.0,0.0,0.0,0.0,0.0,0.0,0.0,0.0,0.0,0.0,0.0,0.0,0.0,0.0,0.0,0.0,0.0,0.0,0.0,0.0,0.0,0.0,0.0,0.0,0.0,0.0,0.0,0.0,0.0,0.0,0.0,0.0,0.0,0.0,0.0,0.0,0.0,0.0,0.0,0.0,0.0,0.0,0.0,0.0,0.0,0.0,0.0,0.0,0.0,0.0,0.0,0.0,0.0,0.0,0.0,0.0,0.0,0.0,0.0,0.0,0.0,0.0,0.0,0.0,0.0,0.0,0.0,0.0,0.0,0.0,0.0,0.0,0.0,0.0,0.0,0.0,0.0,0.0,0.0,0.0,0.0,0.0,0.0,0.0,0.0,0.0,0.0,0.0,0.0,0.0,0.0,0.0,0.0,0.0,0.0,0.0,0.0,0.0,0.0,0.0,0.0,0.0,0.0,0.0,0.0,0.0,0.0,0.0,0.0,0.0,0.0,0.0,0.0,0.0,0.0,0.0,0.0,0.0,0.0,0.0,0.0,0.0,0.0,0.0,0.0,0.0,0.0,0.0,0.0,0.0,0.0,0.0,0.0,0.0,0.0,0.0,0.0,0.0,0.0,0.0,0.0,0.0,0.0,0.0,0.0,0.0,0.0,0.0,0.0,0.0,0.0,0.0,0.0,0.0,0.0,0.0,0.0,0.0,0.0,0.0,0.0,0.0,0.0,0.0,0.0,0.0,0.0,0.0,0.0,0.0,0.0,0.0,0.0,0.0,0.0,0.0,0.0,0.0,0.0,0.0,0.0,0.0,0.0,0.0,0.0,0.0,0.0,0.0,0.0,0.0,0.0,0.0,0.0,0.0,0.0,0.0,0.0,0.0,0.0,0.0,0.0,0.0,0.0,0.0,0.0,0.0,0.0,0.0,0.0,0.0,0.0,0.0,0.0,0.0,0.0,0.0,0.0,0.0,0.0,0.0,0.0,0.0,0.0,0.0,0.0,0.0,0.0,0.0,0.0,0.0,0.0,0.0,0.0,0.0,0.0,0.0,0.0,0.0,0.0,0.0,0.0,0.0,0.0,0.0,0.0,0.0,0.0,0.0,0.0,0.0,0.0,0.0,0.0,0.0,0.0,0.0,0.0,0.0,0.0,0.0,0.0,0.0,0.0,0.0,0.0,0.0,0.0,0.0,0.0,0.0,0.0,0.0,0.0,0.0,0.0,0.0,0.0,0.0,0.0,0.0,0.0,0.0,0.0,0.0,0.0,0.0,0.0,0.0,0.0,0.0,0.0,0.0,0.0,0.0,0.0,0.0,0.0,0.0,0.0,0.0,0.0,0.0,0.0,0.0,0.0,0.0,0.0,0.0,0.0,0.0,0.0,0.0,0.0,0.0,0.0,0.0,0.0,0.0,0.0,0.0,0.0,0.0,0.0,0.0,0.0,0.0,0.0,0.0,0.0,0.0,0.0,0.0,0.0,0.0,0.0,0.0,0.0,0.0,0.0,0.0,0.0,0.0,0.0,0.0,0.0,0.0,0.0,0.0,0.0,0.0,0.0,0.0,0.0,0.0,0.0,0.0,0.0,0.0,0.0,0.0,0.0,0.0,0.0,0.0,0.0,0.0,0.0,0.0,0.0,0.0,0.0,0.0,0.0,0.0,0.0,0.0,0.0,0.0,0.0,0.0,0.0,0.0,0.0,0.0,0.0,0.0,0.0,0.0,0.0,0.0,0.0,0.0,0.0,0.0,0.0,0.0,0.0,0.0,0.0,0.0,0.0,0.0,0.0,0.0,0.0,0.0,0.0,0.0,0.0,0.0,0.0,0.0,0.0,0.0,0.0,0.0,0.0,0.0,0.0,0.0,0.0,0.0,0.0,0.0,0.0,0.0,0.0,0.0,0.0,0.0,0.0,0.0,0.0,0.0,0.0,0.0,0.0,0.0,0.0,0.0,0.0,0.0,0.0,0.0,0.0,0.0,0.0,0.0,0.0,0.0,0.0,0.0,0.0,0.0,0.0,0.0,0.0,0.0,0.0,0.0,0.0,0.0,0.0,0.0,0.0,0.0,0.0,0.0,0.0,0.0,0.0,0.0,0.0,0.0,0.0,0.0,0.0,0.0,0.0,0.0,0.0,0.0,0.0,0.0,0.0,0.0,0.0,0.0,0.0,0.0,0.0,0.0,0.0,0.0,0.0,0.0,0.0,0.0,0.0,0.0,0.0,0.0,0.0,0.0,0.0,0.0,0.0,0.0,0.0,0.0,0.0,0.0,0.0,0.0,0.0,0.0,0.0,0.0,0.0,0.0,0.0,0.0,0.0,0.0,0.0,0.0,0.0,0.0,0.0,0.0,0.0,0.0,0.0,0.0,0.0,0.0,0.0,0.0,0.0,0.0,0.0,0.0,0.0,0.0,0.0,0.0,0.0,0.0,0.0,0.0,0.0,0.0,0.0,0.0,0.0,0.0,0.0,0.0,0.0,0.0,0.0,0.0,0.0,0.0,0.0,0.0,0.0,0.0,0.0,0.0,0.0,0.0,0.0,0.0,0.0,0.0,0.0,0.0,0.0,0.0,0.0,0.0,0.0,0.0,0.0,0.0,0.0,0.0,0.0,0.0,0.0,0.0,0.0,0.0,0.0,0.0,0.0,0.0,0.0,0.0,0.0,0.0,0.0,0.0,0.0,0.0,0.0,0.0,0.0,0.0,0.0,0.0,0.0,0.0,0.0,0.0,0.0,0.0,0.0,0.0,0.0,0.0,0.0,0.0,0.0,0.0,0.0,0.0,0.0,0.0,0.0,0.0,0.0,0.0,0.0,0.0,0.0,0.0,0.0,0.0,0.0,0.0,0.0,0.0,0.0,0.0,0.0,0.0,0.0,0.0,0.0,0.0,0.0,0.0,0.0,0.0,0.0,0.0,0.0,0.0,0.0,0.0,0.0,0.0,0.0,0.0,0.0,0.0,0.0,0.0,0.0,0.0,0.0,0.0,0.0,0.0,0.0,0.0,0.0,0.0,0.0,0.0,0.0,0.0,0.0,0.0,0.0,0.0,0.0,0.0,0.0,0.0,0.0,0.0,0.0,0.0,0.0,0.0,0.0,0.0,0.0,0.0,0.0,0.0,0.0,0.0,0.0,0.0,0.0,0.0,0.0,0.0,0.0,0.0,0.0,0.0,0.0,0.0,0.0,0.0,0.0,0.0,0.0,0.0,0.0,0.0,0.0,0.0,0.0,0.0,0.0,0.0,0.0,0.0,0.0,0.0,0.0,0.0,0.0,0.0,0.0,0.0,0.0,0.0,0.0,0.0,0.0,0.0,0.0,0.0,0.0,0.0,0.0,0.0,0.0,0.0,0.0,0.0,0.0,0.0,0.0,0.0,0.0,0.0,0.0,0.0,0.0,0.0,0.0,0.0,0.0,0.0,0.0,0.0,0.0,0.0,0.0,0.0,0.0,0.0,0.0,0.0,0.0,0.0,0.0,0.0,0.0,0.0,0.0,0.0,0.0,0.0,0.0,0.0,0.0,0.0,0.0,0.0,0.0,0.0,0.0,0.0,0.0,0.0,0.0,0.0,0.0,0.0,0.0,0.0,0.0,0.0,0.0,0.0,0.0,-1.0718,0.0,0.0,0.0,0.0,0.0,0.0,0.0,0.0,0.0,0.0,0.0,0.0,0.0,0.0,0.0,0.0,0.0,0.0,0.0,0.0,0.0,0.0,0.0,0.0,0.0,0.0,0.0,0.0,0.0,0.0,0.0,0.0,0.0,0.0,0.0,0.0,0.0,0.0,0.0,0.0,0.0,0.0,0.0,0.0,0.0,0.0,0.0,0.0,0.0,0.0,0.0,0.0,0.0,0.0,0.0,0.0,0.0,0.0,0.0,0.0,0.0,0.0,0.0,0.0,0.0,0.0,0.0,0.0,0.0,0.0,0.0,0.0,0.0,0.0,0.0,0.0,0.0,0.0,0.0,0.0,0.0,0.0,0.0,0.0,0.0,0.0,0.0,0.0,0.0,0.0,0.0,0.0,0.0,0.0,0.0,0.0,0.0,0.0,0.0,0.0,0.0,0.0,0.0,0.0,0.0,0.0,0.0,0.0,0.0,0.0,-0.8118,-0.8659,-0.927,-0.9825,-1.038,0.0,0.0,0.0,0.0,0.0,0.0,0.0,0.0,0.0,0.0,0.0,0.0,0.0,0.0,0.0,0.0,0.0,0.0,0.0,0.0,0.0,0.0,0.0,0.0,0.0,0.0,0.0,0.0,0.0,0.0,0.0,0.0,0.0,0.0,0.0,0.0,0.0,0.0,0.0,0.0,0.0,0.0,0.0,0.0,0.0,0.0,0.0,0.0,0.0,0.0,0.0,0.0,0.0,0.0,0.0,0.0,0.0,0.0,0.0,0.0,0.0,0.0,0.0,0.0,0.0,0.0,0.0,0.0,0.0,0.0,0.0,0.0,0.0,0.0,0.0,0.0,0.0,0.0,0.0,0.0,0.0,0.0,0.0,0.0,0.0,0.0,0.0,0.0,0.0,0.0,0.0,0.0,0.0,0.0,0.0,0.0,0.0,0.0,0.0,0.0,0.0,0.0,0.0,0.0,0.0,0.0,0.0,0.0,0.0,0.0,0.0,0.0,-0.9013,-0.9569,-1.0118,0.0,0.0,0.0,0.0,0.0,0.0,0.0,0.0,0.0,0.0,0.0,0.0,0.0,0.0,0.0,0.0,0.0,0.0,0.0,0.0,0.0,0.0,0.0,0.0,0.0,0.0,0.0,0.0,0.0,0.0,0.0,0.0,0.0,0.0,0.0,0.0,0.0,0.0,0.0,0.0,0.0,0.0,0.0,0.0,0.0,0.0,0.0,0.0,0.0,0.0,0.0,0.0,0.0,0.0,0.0,0.0,0.0,0.0,0.0,0.0,0.0,0.0,0.0,0.0,0.0,0.0,0.0,0.0,0.0,0.0,0.0,0.0,0.0,0.0,0.0,0.0,0.0,0.0,0.0,0.0,0.0,0.0,0.0,0.0,0.0,0.0,0.0,0.0,0.0,0.0,0.0,0.0,0.0,0.0,0.0,0.0,0.0,0.0,0.0,0.0,0.0,0.0,0.0,0.0,0.0,0.0,0.0,0.0,0.0,0.0,-0.8326,-0.8653,-0.9068,0.0,-1.0467,0.0,0.0,0.0,0.0,0.0,0.0,0.0,0.0,0.0,0.0,0.0,0.0,0.0,0.0,0.0,0.0,0.0,0.0,0.0,0.0,0.0,0.0,0.0,0.0,0.0,0.0,0.0,0.0,0.0,0.0,0.0,0.0,0.0,0.0,0.0,0.0,0.0,0.0,0.0,0.0,0.0,0.0,0.0,0.0,0.0,0.0,0.0,0.0,0.0,0.0,0.0,0.0,0.0,0.0,0.0,0.0,0.0,0.0,0.0,0.0,0.0,0.0,0.0,0.0,0.0,0.0,0.0,0.0,0.0,0.0,0.0,0.0,0.0,0.0,0.0,0.0,0.0,0.0,0.0,0.0,0.0,0.0,0.0,0.0,0.0,0.0,0.0,0.0,0.0,0.0,0.0,0.0,0.0,0.0,0.0,0.0,0.0,0.0,0.0,0.0,0.0,0.0,0.0,0.0,0.0,0.0,0.0,0.0,0.0,0.0,-0.8728,-0.9273,-0.9718,-1.0317,0.0,0.0,0.0,0.0,0.0,0.0,0.0,0.0,0.0,0.0,0.0,0.0,0.0,0.0,0.0,0.0,0.0,0.0,0.0,0.0,0.0,0.0,0.0,0.0,0.0,0.0,0.0,0.0,0.0,0.0,0.0,0.0,0.0,0.0,0.0,0.0,0.0,0.0,0.0,0.0,0.0,0.0,0.0,0.0,0.0,0.0,0.0,0.0,0.0,0.0,0.0,0.0,0.0,0.0,0.0,0.0,0.0,0.0,0.0,0.0,0.0,0.0,0.0,0.0,0.0,0.0,0.0,0.0,0.0,0.0,0.0,0.0,0.0,0.0,0.0,0.0,0.0,0.0,0.0,0.0,0.0,0.0,0.0,0.0,0.0,0.0,0.0,0.0,0.0,0.0,0.0,0.0,0.0,0.0,0.0,0.0,0.0,0.0,0.0,0.0,0.0,0.0,0.0,0.0,0.0,0.0,0.0,0.0,0.0,0.0,-0.8902,-0.9386,-1.0157,-1.0575,-1.1077,-1.1631,0.0,0.0,0.0,0.0,0.0,0.0,0.0,0.0,0.0,0.0,0.0,0.0,0.0,0.0,0.0,0.0,0.0,0.0,0.0,0.0,0.0,0.0,0.0,0.0,0.0,0.0,0.0,0.0,0.0,0.0,0.0,0.0,0.0,0.0,0.0,0.0,0.0,0.0,0.0,0.0,0.0,0.0,0.0,0.0,0.0,0.0,0.0,0.0,0.0,0.0,0.0,0.0,0.0,0.0,0.0,0.0,0.0,0.0,0.0,0.0,0.0,0.0,0.0,0.0,0.0,0.0,0.0,0.0,0.0,0.0,0.0,0.0,0.0,0.0,0.0,0.0,0.0,0.0,0.0,0.0,0.0,0.0,0.0,0.0,0.0,0.0,0.0,0.0,0.0,0.0,0.0,0.0,0.0,0.0,0.0,0.0,0.0,0.0,0.0,0.0,0.0,0.0,0.0,0.0,0.0,0.0,0.0,0.0,-0.9107,-0.9766,-1.0508,-1.1295,-1.1615,-1.1848,0.0,0.0,0.0,0.0,0.0,0.0,0.0,0.0,0.0,0.0,0.0,0.0,0.0,0.0,0.0,0.0,0.0,0.0,0.0,0.0,0.0,0.0,0.0,0.0,0.0,0.0,0.0,0.0,0.0,0.0,0.0,0.0,0.0,0.0,0.0,0.0,0.0,0.0,0.0,0.0,0.0,0.0,0.0,0.0,0.0,0.0,0.0,0.0,0.0,0.0,0.0,0.0,0.0,0.0,0.0,0.0,0.0,0.0,0.0,0.0,0.0,0.0,0.0,0.0,0.0,0.0,0.0,0.0,0.0,0.0,0.0,0.0,0.0,0.0,0.0,0.0,0.0,0.0,0.0,0.0,0.0,0.0,0.0,0.0,0.0,0.0,0.0,0.0,0.0,0.0,0.0,0.0,0.0,0.0,0.0,0.0,0.0,0.0,0.0,0.0,0.0,0.0,0.0,0.0,0.0,0.0,0.0,0.0,0.0,-0.9896,-1.1078,-1.21,-1.2795,-1.2951,-1.3022,0.0,0.0,0.0,0.0,0.0,0.0,0.0,0.0,0.0,0.0,0.0,0.0,0.0,0.0,0.0,0.0,0.0,0.0,0.0,0.0,0.0,0.0,0.0,0.0,0.0,0.0,0.0,0.0,0.0,0.0,0.0,0.0,0.0,0.0,0.0,0.0,0.0,0.0,0.0,0.0,0.0,0.0,0.0,0.0,0.0,0.0,0.0,0.0,0.0,0.0,0.0,0.0,0.0,0.0,0.0,0.0,0.0,0.0,0.0,0.0,0.0,0.0,0.0,0.0,0.0,0.0,0.0,0.0,0.0,0.0,0.0,0.0,0.0,0.0,0.0,0.0,0.0,0.0,0.0,0.0,0.0,0.0,0.0,0.0,0.0,0.0,0.0,0.0,0.0,0.0,0.0,0.0,0.0,0.0,0.0,0.0,0.0,0.0,0.0,0.0,0.0,0.0,0.0,0.0,0.0,0.0,0.0,0.0,0.0,-1.1538,0.0,-1.3813,-1.4374,-1.4496,-1.4332,0.0,0.0,0.0,0.0,0.0,0.0,0.0,0.0,0.0,0.0,0.0,0.0,0.0,0.0,0.0,0.0,0.0,0.0,0.0,0.0,0.0,0.0,0.0,0.0,0.0,0.0,0.0,0.0,0.0,0.0,0.0,0.0,0.0,0.0,0.0,0.0,0.0,0.0,0.0,0.0,0.0,0.0,0.0,0.0,0.0,0.0,0.0,0.0,0.0,0.0,0.0,0.0,0.0,0.0,0.0,0.0,0.0,0.0,0.0,0.0,0.0,0.0,0.0,0.0,0.0,0.0,0.0,0.0,0.0,0.0,0.0,0.0,0.0,0.0,0.0,0.0,0.0,0.0,0.0,0.0,0.0,0.0,0.0,0.0,0.0,0.0,0.0,0.0,0.0,0.0,0.0,0.0,0.0,0.0,0.0,0.0,0.0,0.0,0.0,0.0,0.0,0.0,0.0,0.0,0.0,0.0,0.0,0.0,-1.203,-1.4148,-1.5103,-1.5738,-1.6022,-1.6219,-1.5844,0.0,0.0,0.0,0.0,0.0,0.0,0.0,0.0,0.0,0.0,0.0,0.0,0.0,0.0,0.0,0.0,0.0,0.0,0.0,0.0,0.0,0.0,0.0,0.0,0.0,0.0,0.0,0.0,0.0,0.0,0.0,0.0,0.0,0.0,0.0,0.0,0.0,0.0,0.0,0.0,0.0,0.0,0.0,0.0,0.0,0.0,0.0,0.0,0.0,0.0,0.0,0.0,0.0,0.0,0.0,0.0,0.0,0.0,0.0,0.0,0.0,0.0,0.0,0.0,0.0,0.0,0.0,0.0,0.0,0.0,0.0,0.0,0.0,0.0,0.0,0.0,0.0,0.0,0.0,0.0,0.0,0.0,0.0,0.0,0.0,0.0,0.0,0.0,0.0,0.0,0.0,0.0,0.0,0.0,0.0,0.0,0.0,0.0,0.0,0.0,0.0,0.0,0.0,0.0,0.0,0.0,0.0,0.0,0.0,-1.5658,-1.6752,-1.7616,-1.8164,-1.807,-1.7516,0.0,0.0,0.0,0.0,0.0,0.0,0.0,0.0,0.0,0.0,0.0,0.0,0.0,0.0,0.0,0.0,0.0,0.0,0.0,0.0,0.0,0.0,0.0,0.0,0.0,0.0,0.0,0.0,0.0,0.0,0.0,0.0,0.0,0.0,0.0,0.0,0.0,0.0,0.0,0.0,0.0,0.0,0.0,0.0,0.0,0.0,0.0,0.0,0.0,0.0,0.0,0.0,0.0,0.0,0.0,0.0,0.0,0.0,0.0,0.0,0.0,0.0,0.0,0.0,0.0,0.0,0.0,0.0,0.0,0.0,0.0,0.0,0.0,0.0,0.0,0.0,0.0,0.0,0.0,0.0,0.0,0.0,0.0,0.0,0.0,0.0,0.0,0.0,0.0,0.0,0.0,0.0,0.0,0.0,0.0,0.0,0.0,0.0,0.0,0.0,0.0,0.0,0.0,0.0,0.0,0.0,0.0,0.0,0.0,-1.8998,-1.9269,-1.9737,-2.0354,-2.0062,-1.9305,-1.8155,0.0,0.0,0.0,0.0,0.0,0.0,0.0,0.0,0.0,0.0,0.0,0.0,0.0,0.0,0.0,0.0,0.0,0.0,0.0,0.0,0.0,0.0,0.0,0.0,0.0,0.0,0.0,0.0,0.0,0.0,0.0,0.0,0.0,0.0,0.0,0.0,0.0,0.0,0.0,0.0,0.0,0.0,0.0,0.0,0.0,0.0,0.0,0.0,0.0,0.0,0.0,0.0,0.0,0.0,0.0,0.0,0.0,0.0,0.0,0.0,0.0,0.0,0.0,0.0,0.0,0.0,0.0,0.0,0.0,0.0,0.0,0.0,0.0,0.0,0.0,0.0,0.0,0.0,0.0,0.0,0.0,0.0,0.0,0.0,0.0,0.0,0.0,0.0,0.0,0.0,0.0,0.0,0.0,0.0,0.0,0.0,0.0,0.0,0.0,0.0,0.0,0.0,0.0,0.0,0.0,0.0,0.0,0.0,-2.3682,-2.2566,-2.2216,-2.2645,-2.2179,-2.1288,0.0,0.0,0.0,0.0,0.0,0.0,0.0,0.0,0.0,0.0,0.0,0.0,0.0,0.0,0.0,0.0,0.0,0.0,0.0,0.0,0.0,0.0,0.0,0.0,0.0,0.0,0.0,0.0,0.0,0.0,0.0,0.0,0.0,0.0,0.0,0.0,0.0,0.0,0.0,0.0,0.0,0.0,0.0,0.0,0.0,0.0,0.0,0.0,0.0,0.0,0.0,0.0,0.0,0.0,0.0,0.0,0.0,0.0,0.0,0.0,0.0,0.0,0.0,0.0,0.0,0.0,0.0,0.0,0.0,0.0,0.0,0.0,0.0,0.0,0.0,0.0,0.0,0.0,0.0,0.0,0.0,0.0,0.0,0.0,0.0,0.0,0.0,0.0,0.0,0.0,0.0,0.0,0.0,0.0,0.0,0.0,0.0,0.0,0.0,0.0,0.0,0.0,0.0,0.0,0.0,0.0,0.0,0.0,0.0,-2.4782,-2.6112,-2.6345,-2.5456,-2.4916,-2.3735,0.0,0.0,0.0,0.0,0.0,0.0,0.0,0.0,0.0,0.0,0.0,0.0,0.0,0.0,0.0,0.0,0.0,0.0,0.0,0.0,0.0,0.0,0.0,0.0,0.0,0.0,0.0,0.0,0.0,0.0,0.0,0.0,0.0,0.0,0.0,0.0,0.0,0.0,0.0,0.0,0.0,0.0,0.0,0.0,0.0,0.0,0.0,0.0,0.0,0.0,0.0,0.0,0.0,0.0,0.0,0.0,0.0,0.0,0.0,0.0,0.0,0.0,0.0,0.0,0.0,0.0,0.0,0.0,0.0,0.0,0.0,0.0,0.0,0.0,0.0,0.0,0.0,0.0,0.0,0.0,0.0,0.0,0.0,0.0,0.0,0.0,0.0,0.0,0.0,0.0,0.0,0.0,0.0,0.0,0.0,0.0,0.0,0.0,0.0,0.0,0.0,0.0,0.0,0.0,0.0,0.0,0.0,0.0,-2.4632,-2.678,-2.8674,-2.9296,-2.8713,-2.718,-2.5447,0.0,0.0,0.0,0.0,0.0,0.0,0.0,0.0,0.0,0.0,0.0,0.0,0.0,0.0,0.0,0.0,0.0,0.0,0.0,0.0,0.0,0.0,0.0,0.0,0.0,0.0,0.0,0.0,0.0,0.0,0.0,0.0,0.0,0.0,0.0,0.0,0.0,0.0,0.0,0.0,0.0,0.0,0.0,0.0,0.0,0.0,0.0,0.0,0.0,0.0,0.0,0.0,0.0,0.0,0.0,0.0,0.0,0.0,0.0,0.0,0.0,0.0,0.0,0.0,0.0,0.0,0.0,0.0,0.0,0.0,0.0,0.0,0.0,0.0,0.0,0.0,0.0,0.0,0.0,0.0,0.0,0.0,0.0,0.0,0.0,0.0,0.0,0.0,0.0,0.0,0.0,0.0,0.0,0.0,0.0,0.0,0.0,0.0,0.0,0.0,0.0,0.0,0.0,0.0,0.0,0.0,0.0,0.0,-2.6587,-2.8917,-3.0472,-3.1405,-3.1696,-2.9097,-2.6797,0.0,0.0,0.0,0.0,0.0,0.0,0.0,0.0,0.0,0.0,0.0,0.0,0.0,0.0,0.0,0.0,0.0,0.0,0.0,0.0,0.0,0.0,0.0,0.0,0.0,0.0,0.0,0.0,0.0,0.0,0.0,0.0,0.0,0.0,0.0,0.0,0.0,0.0,0.0,0.0,0.0,0.0,0.0,0.0,0.0,0.0,0.0,0.0,0.0,0.0,0.0,0.0,0.0,0.0,0.0,0.0,0.0,0.0,0.0,0.0,0.0,0.0,0.0,0.0,0.0,0.0,0.0,0.0,0.0,0.0,0.0,0.0,0.0,0.0,0.0,0.0,0.0,0.0,0.0,0.0,0.0,0.0,0.0,0.0,0.0,0.0,0.0,0.0,0.0,0.0,0.0,0.0,0.0,0.0,0.0,0.0,0.0,0.0,0.0,0.0,0.0,0.0,0.0,0.0,0.0,0.0,0.0,0.0,-2.7806,-2.9485,-3.159,-3.2523,-3.2246,-3.074,-2.8827,0.0,0.0,0.0,0.0,0.0,0.0,0.0,0.0,0.0,0.0,0.0,0.0,0.0,0.0,0.0,0.0,0.0,0.0,0.0,0.0,0.0,0.0,0.0,0.0,0.0,0.0,0.0,0.0,0.0,0.0,0.0,0.0,0.0,0.0,0.0,0.0,0.0,0.0,0.0,0.0,0.0,0.0,0.0,0.0,0.0,0.0,0.0,0.0,-0.8325,0.0,0.0,0.0,0.0,0.0,0.0,0.0,0.0,0.0,0.0,0.0,0.0,0.0,0.0,0.0,0.0,0.0,0.0,0.0,0.0,0.0,0.0,0.0,0.0,0.0,0.0,0.0,0.0,0.0,0.0,0.0,0.0,0.0,0.0,0.0,0.0,0.0,0.0,0.0,0.0,0.0,0.0,0.0,0.0,0.0,0.0,0.0,0.0,0.0,0.0,0.0,0.0,0.0,0.0,0.0,0.0,0.0,0.0,0.0,-2.8988,-3.0132,-3.2265,-3.3294,-3.312,-3.1869,-2.9919,0.0,0.0,0.0,0.0,0.0,0.0,0.0,0.0,0.0,0.0,0.0,0.0,0.0,0.0,0.0,0.0,0.0,0.0,0.0,0.0,0.0,0.0,0.0,0.0,0.0,0.0,0.0,0.0,0.0,0.0,0.0,0.0,0.0,0.0,0.0,0.0,0.0,0.0,0.0,0.0,0.0,0.0,0.0,0.0,0.0,0.0,0.0,0.0,0.0,0.0,0.0,0.0,0.0,0.0,0.0,0.0,0.0,0.0,0.0,0.0,0.0,0.0,0.0,0.0,0.0,0.0,0.0,0.0,0.0,0.0,0.0,0.0,0.0,0.0,0.0,0.0,0.0,0.0,0.0,0.0,0.0,0.0,0.0,0.0,0.0,0.0,0.0,0.0,0.0,0.0,0.0,0.0,0.0,0.0,0.0,0.0,0.0,0.0,0.0,0.0,0.0,0.0,0.0,0.0,0.0,0.0,0.0,-2.7653,-2.9945,-3.0686,-3.2675,-3.386,-3.403,-3.2595,-3.058,-2.7899,0.0,0.0,0.0,0.0,0.0,0.0,0.0,0.0,0.0,0.0,0.0,0.0,0.0,0.0,0.0,0.0,0.0,0.0,0.0,0.0,0.0,0.0,0.0,0.0,0.0,0.0,0.0,0.0,0.0,0.0,0.0,0.0,0.0,0.0,0.0,0.0,0.0,0.0,-0.8613,-1.0184,0.0,0.0,0.0,0.0,0.0,0.0,0.0,0.0,-1.0631,0.0,0.0,0.0,0.0,0.0,0.0,0.0,0.0,0.0,0.0,0.0,0.0,0.0,0.0,0.0,0.0,0.0,0.0,0.0,0.0,0.0,0.0,0.0,0.0,0.0,0.0,0.0,0.0,0.0,0.0,0.0,0.0,0.0,0.0,0.0,0.0,0.0,0.0,0.0,0.0,0.0,0.0,0.0,0.0,0.0,0.0,0.0,0.0,0.0,0.0,0.0,0.0,0.0,0.0,0.0,0.0,-2.4315,-2.8122,-3.0338,-3.0884,-3.2892,-3.4049,-3.4208,-3.2776,-3.108,-2.9208,0.0,0.0,0.0,0.0,0.0,0.0,0.0,0.0,0.0,0.0,0.0,0.0,0.0,0.0,0.0,0.0,0.0,0.0,0.0,0.0,0.0,0.0,0.0,0.0,0.0,0.0,0.0,0.0,0.0,0.0,0.0,0.0,0.0,0.0,0.0,0.0,0.0,0.0,0.0,-1.2116,-1.3077,0.0,0.0,0.0,0.0,0.0,0.0,0.0,0.0,-1.1283,0.0,0.0,0.0,0.0,0.0,0.0,0.0,0.0,0.0,0.0,0.0,0.0,0.0,0.0,0.0,0.0,0.0,0.0,0.0,0.0,0.0,0.0,0.0,0.0,0.0,0.0,0.0,0.0,0.0,0.0,0.0,0.0,0.0,0.0,0.0,0.0,0.0,0.0,0.0,0.0,0.0,0.0,0.0,0.0,0.0,0.0,0.0,0.0,0.0,0.0,0.0,0.0,0.0,0.0,0.0,-2.5455,-2.8682,-3.0841,-3.18,-3.3352,-3.4293,-3.4458,-3.3008,-3.1393,0.0,0.0,0.0,0.0,0.0,0.0,0.0,0.0,0.0,0.0,0.0,0.0,0.0,0.0,0.0,0.0,0.0,0.0,0.0,0.0,0.0,0.0,0.0,0.0,0.0,0.0,0.0,0.0,0.0,0.0,0.0,0.0,0.0,0.0,0.0,0.0,0.0,0.0,0.0,0.0,-1.4057,-1.5015,-1.5942,0.0,0.0,0.0,0.0,0.0,0.0,-1.382,-1.3107,0.0,0.0,0.0,0.0,0.0,0.0,0.0,0.0,0.0,0.0,0.0,0.0,0.0,0.0,0.0,0.0,0.0,0.0,0.0,0.0,0.0,0.0,0.0,0.0,0.0,0.0,0.0,0.0,0.0,0.0,0.0,0.0,0.0,0.0,0.0,0.0,0.0,0.0,0.0,0.0,0.0,0.0,0.0,0.0,0.0,0.0,0.0,0.0,0.0,0.0,0.0,0.0,0.0,0.0,0.0,-2.6382,-2.9208,-3.1356,-3.2661,-3.3841,-3.4539,-3.4711,-3.3261,-3.1596,0.0,0.0,0.0,0.0,0.0,0.0,0.0,0.0,0.0,0.0,0.0,0.0,0.0,0.0,0.0,0.0,0.0,0.0,0.0,0.0,0.0,0.0,0.0,0.0,0.0,0.0,0.0,0.0,0.0,0.0,0.0,0.0,0.0,0.0,0.0,0.0,0.0,0.0,0.0,0.0,0.0,-1.6957,-1.7989,-1.8153,0.0,0.0,0.0,0.0,-1.684,-1.6003,0.0,0.0,0.0,0.0,0.0,0.0,0.0,0.0,0.0,0.0,0.0,0.0,0.0,0.0,0.0,0.0,0.0,0.0,0.0,0.0,0.0,0.0,0.0,0.0,0.0,0.0,0.0,0.0,0.0,0.0,0.0,0.0,0.0,0.0,0.0,0.0,0.0,0.0,0.0,0.0,0.0,0.0,0.0,0.0,0.0,0.0,0.0,0.0,0.0,0.0,0.0,0.0,0.0,0.0,0.0,0.0,-2.6774,-2.9575,-3.1657,-3.2929,-3.402,-3.4689,-3.4945,-3.3349,-3.173,0.0,0.0,0.0,0.0,0.0,0.0,0.0,0.0,0.0,0.0,0.0,0.0,0.0,0.0,0.0,0.0,0.0,0.0,0.0,0.0,0.0,0.0,0.0,0.0,0.0,0.0,0.0,0.0,0.0,0.0,0.0,0.0,0.0,0.0,0.0,0.0,0.0,0.0,0.0,0.0,0.0,-1.8648,-1.9837,-2.0519,-2.0866,0.0,0.0,-2.0061,-1.9754,-1.8835,0.0,0.0,0.0,0.0,0.0,0.0,0.0,0.0,0.0,0.0,0.0,0.0,0.0,0.0,0.0,0.0,0.0,0.0,0.0,0.0,0.0,0.0,0.0,0.0,0.0,0.0,0.0,0.0,0.0,0.0,0.0,0.0,0.0,0.0,0.0,0.0,0.0,0.0,0.0,0.0,0.0,0.0,0.0,0.0,0.0,0.0,0.0,0.0,0.0,0.0,0.0,0.0,0.0,0.0,0.0,-2.6092,-2.7817,-3.0167,-3.2432,-3.4555,-3.4769,-3.5154,-3.5827,-3.3792,-3.2139,0.0,0.0,0.0,0.0,0.0,0.0,0.0,0.0,0.0,0.0,0.0,0.0,0.0,0.0,0.0,0.0,0.0,0.0,0.0,0.0,0.0,0.0,0.0,0.0,0.0,0.0,0.0,0.0,0.0,0.0,0.0,0.0,0.0,0.0,0.0,0.0,0.0,0.0,0.0,0.0,0.0,0.0,-2.1581,-2.2164,0.0,0.0,0.0,-2.2009,-2.1652,0.0,0.0,0.0,0.0,0.0,0.0,0.0,0.0,0.0,0.0,0.0,0.0,0.0,0.0,0.0,0.0,0.0,0.0,0.0,0.0,0.0,0.0,0.0,0.0,0.0,0.0,0.0,0.0,0.0,0.0,0.0,0.0,0.0,0.0,0.0,0.0,0.0,0.0,0.0,0.0,0.0,0.0,0.0,0.0,0.0,0.0,0.0,0.0,0.0,0.0,0.0,0.0,0.0,0.0,0.0,0.0,0.0,-2.9051,-3.0839,-3.3128,-3.5888,-3.5607,-3.5763,-3.65,-3.4576,0.0,0.0,0.0,0.0,0.0,0.0,0.0,0.0,0.0,0.0,0.0,0.0,0.0,0.0,0.0,0.0,0.0,0.0,0.0,0.0,0.0,0.0,0.0,0.0,0.0,0.0,0.0,-1.3544,0.0,0.0,0.0,0.0,0.0,0.0,0.0,0.0,0.0,0.0,0.0,0.0,0.0,0.0,-2.2144,-2.3597,-2.4156,-2.4492,0.0,0.0,-2.4589,-2.4294,-2.3631,-2.2707,0.0,0.0,0.0,0.0,0.0,0.0,0.0,0.0,0.0,0.0,0.0,0.0,0.0,0.0,0.0,0.0,0.0,0.0,0.0,0.0,0.0,0.0,0.0,0.0,0.0,0.0,0.0,0.0,0.0,0.0,0.0,0.0,0.0,0.0,0.0,0.0,0.0,0.0,0.0,0.0,0.0,0.0,0.0,0.0,0.0,0.0,0.0,0.0,0.0,0.0,0.0,0.0,0.0,0.0,-2.7665,-3.029,-3.1556,-3.3526,-3.625,-3.646,-3.6579,-3.6775,-3.5886,-3.4257,0.0,0.0,0.0,0.0,0.0,0.0,0.0,0.0,0.0,0.0,0.0,0.0,0.0,0.0,0.0,0.0,0.0,0.0,0.0,0.0,0.0,0.0,0.0,0.0,0.0,0.0,0.0,0.0,0.0,0.0,0.0,0.0,0.0,0.0,0.0,0.0,0.0,0.0,0.0,0.0,0.0,-2.4506,-2.605,-2.7063,-2.7947,0.0,-2.8887,-2.8802,-2.8506,-2.7007,-2.5634,-2.4766,0.0,0.0,0.0,0.0,0.0,0.0,0.0,0.0,0.0,0.0,0.0,0.0,0.0,0.0,0.0,0.0,0.0,0.0,0.0,0.0,0.0,0.0,0.0,0.0,0.0,0.0,0.0,0.0,0.0,0.0,0.0,0.0,0.0,0.0,0.0,0.0,0.0,0.0,0.0,0.0,0.0,0.0,0.0,0.0,0.0,0.0,0.0,0.0,0.0,0.0,0.0,0.0,0.0,-2.809,-3.0829,-3.2422,-3.4582,-3.7256,-3.7513,-3.7622,-3.7719,-3.6435,-3.4758,0.0,0.0,0.0,0.0,0.0,0.0,0.0,0.0,0.0,0.0,0.0,0.0,0.0,0.0,0.0,0.0,0.0,0.0,0.0,0.0,0.0,0.0,0.0,0.0,0.0,0.0,0.0,0.0,-1.7269,-1.7474,-1.7685,0.0,0.0,0.0,0.0,0.0,0.0,0.0,0.0,0.0,0.0,-2.6434,-2.7785,-2.8895,0.0,0.0,-3.0158,-3.0132,-2.9846,-2.8697,-2.7446,-2.6353,-2.4677,0.0,0.0,0.0,0.0,0.0,0.0,0.0,0.0,0.0,0.0,0.0,0.0,0.0,0.0,0.0,0.0,0.0,0.0,0.0,0.0,0.0,0.0,0.0,0.0,0.0,0.0,0.0,0.0,0.0,0.0,0.0,0.0,0.0,0.0,0.0,0.0,0.0,0.0,0.0,0.0,0.0,0.0,0.0,0.0,0.0,0.0,0.0,0.0,0.0,0.0,0.0,0.0,-2.9089,-3.1556,-3.3451,-3.5565,-3.8016,-3.8418,-3.8646,-3.8666,-3.735,-3.5791,0.0,0.0,0.0,0.0,0.0,0.0,0.0,0.0,0.0,0.0,0.0,0.0,0.0,0.0,0.0,0.0,0.0,0.0,0.0,0.0,0.0,0.0,0.0,0.0,0.0,0.0,0.0,0.0,-1.9104,-1.926,-1.9285,0.0,0.0,0.0,0.0,0.0,0.0,0.0,0.0,0.0,0.0,-2.8516,-2.9808,-3.0702,-3.132,-3.1546,-3.1664,-3.1627,-3.1379,-3.0475,-2.9448,-2.8436,0.0,0.0,0.0,0.0,0.0,0.0,0.0,0.0,0.0,0.0,0.0,0.0,0.0,0.0,0.0,0.0,0.0,0.0,0.0,0.0,0.0,0.0,0.0,0.0,0.0,0.0,0.0,-2.2811,0.0,0.0,-2.2935,0.0,0.0,0.0,0.0,0.0,0.0,0.0,0.0,0.0,0.0,0.0,0.0,0.0,0.0,0.0,0.0,0.0,0.0,0.0,0.0,0.0,0.0,-3.0877,-3.2661,-3.4501,-3.6358,-3.8147,-3.9092,-3.9599,-3.9634,-3.8871,-3.7617,-3.5833,0.0,0.0,0.0,0.0,0.0,0.0,0.0,0.0,0.0,0.0,0.0,0.0,0.0,0.0,0.0,0.0,0.0,0.0,0.0,0.0,0.0,0.0,0.0,0.0,0.0,0.0,-2.1053,-2.0735,-2.0408,0.0,0.0,0.0,0.0,0.0,0.0,0.0,0.0,0.0,0.0,-2.9176,-3.0992,-3.2208,-3.2529,-3.2919,-3.3692,-3.3742,-3.3661,-3.3496,-3.2653,-3.1917,0.0,0.0,0.0,0.0,0.0,0.0,0.0,0.0,0.0,0.0,0.0,0.0,0.0,0.0,0.0,0.0,0.0,0.0,0.0,0.0,0.0,0.0,0.0,0.0,0.0,0.0,0.0,-2.436,-2.4427,0.0,0.0,0.0,0.0,0.0,0.0,0.0,0.0,0.0,0.0,0.0,-3.0794,-3.1348,0.0,0.0,0.0,0.0,0.0,0.0,0.0,0.0,0.0,0.0,0.0,0.0,-3.1104,-3.2926,-3.527,-3.7104,-3.8322,-3.9777,-4.0292,-3.9786,-3.9507,-3.8268,-3.597,0.0,0.0,0.0,0.0,0.0,0.0,0.0,0.0,0.0,0.0,0.0,0.0,0.0,0.0,0.0,0.0,0.0,0.0,0.0,0.0,0.0,0.0,0.0,0.0,0.0,-2.1792,0.0,0.0,0.0,0.0,0.0,0.0,0.0,0.0,0.0,0.0,0.0,-2.7805,-2.8909,-3.0823,-3.2342,-3.2873,-3.3552,-3.4041,0.0,0.0,0.0,0.0,0.0,0.0,0.0,0.0,0.0,0.0,0.0,0.0,0.0,0.0,-2.6736,-2.4713,-2.418,-2.404,-2.392,0.0,0.0,0.0,0.0,0.0,0.0,0.0,0.0,0.0,0.0,0.0,0.0,0.0,0.0,-2.6785,0.0,-2.6645,0.0,0.0,0.0,0.0,0.0,0.0,0.0,0.0,-3.1256,-3.2104,-3.2951,-3.3473,-3.3882,0.0,-3.3308,-3.2027,0.0,0.0,0.0,0.0,0.0,0.0,0.0,0.0,-3.2471,-3.4003,-3.6278,-3.7938,-3.8896,-4.0298,-4.0788,-4.0272,-3.9981,-3.859,-3.6021,-3.3788,-3.2037,0.0,0.0,0.0,0.0,0.0,0.0,0.0,0.0,0.0,0.0,0.0,0.0,0.0,0.0,0.0,0.0,0.0,0.0,0.0,0.0,0.0,0.0,0.0,-2.3408,0.0,0.0,0.0,0.0,0.0,0.0,0.0,0.0,0.0,-2.7068,-2.8488,-2.997,-3.0964,-3.2474,-3.359,-3.3799,0.0,0.0,0.0,0.0,0.0,0.0,0.0,-3.3455,-3.3263,-3.2733,-3.2297,-3.2053,-3.1935,-3.184,-3.1806,0.0,0.0,-2.8167,-2.7555,-2.7457,-2.7331,-2.723,-2.7163,-2.7114,-2.7521,-2.7964,0.0,0.0,0.0,0.0,0.0,0.0,0.0,0.0,-2.9967,-3.001,0.0,-2.9312,0.0,0.0,0.0,0.0,0.0,-3.0387,0.0,0.0,-3.2919,-3.3759,-3.4598,-3.4653,-3.5065,-3.5806,-3.51,-3.4715,-3.4505,-3.1306,0.0,0.0,0.0,0.0,0.0,0.0,-3.4884,-3.5771,-3.7532,-3.8877,-3.9753,-4.0647,-4.1113,-4.1078,-4.0313,-3.8723,-3.6307,-3.6013,-3.4429,-3.1146,-3.0841,0.0,0.0,0.0,0.0,0.0,0.0,0.0,0.0,0.0,0.0,0.0,0.0,0.0,0.0,0.0,0.0,0.0,0.0,0.0,0.0,-2.4652,0.0,0.0,0.0,0.0,0.0,0.0,0.0,0.0,0.0,0.0,-2.9056,-3.1164,-3.2952,-3.3346,0.0,0.0,0.0,0.0,-3.502,-3.4927,-3.4851,-3.4773,-3.4634,-3.4614,-3.4595,-3.4595,0.0,0.0,-3.4352,-3.4373,-3.4317,-3.4226,-3.4292,-3.3709,-3.1111,-3.0603,-3.0538,-3.0431,-3.029,-3.0214,-3.0214,-3.029,-3.0384,-3.3475,0.0,0.0,0.0,0.0,-3.1933,-3.2291,-3.2312,-3.2295,-3.2392,-3.2449,-3.1669,0.0,0.0,0.0,0.0,0.0,0.0,-3.3142,-3.4565,-3.4846,-3.5737,-3.7142,-3.7172,-3.7336,-3.7568,-3.7381,-3.7311,-3.7233,-3.5744,-3.4022,-3.2232,0.0,0.0,0.0,0.0,-3.5613,-3.5982,-3.8188,-3.9516,-3.9794,-4.0641,-4.1104,-4.1099,-4.0322,-3.9547,-3.8789,-3.6992,-3.5546,-3.4531,-3.2145,0.0,0.0,0.0,0.0,0.0,0.0,0.0,0.0,0.0,0.0,0.0,0.0,0.0,0.0,0.0,0.0,0.0,0.0,0.0,-2.6702,-2.6978,-2.7131,0.0,0.0,0.0,0.0,0.0,0.0,0.0,0.0,0.0,-3.3385,-3.3336,-3.3807,0.0,0.0,-3.5945,-3.6052,-3.6102,-3.5927,-3.5283,-3.5155,0.0,-3.503,-3.5049,-3.503,-3.503,-3.5047,-3.5028,-3.4977,-3.4958,-3.4959,-3.4944,-3.4962,-3.4717,-3.3996,-3.3512,-3.3234,-3.3105,-3.3087,-3.3068,-3.3043,-3.3068,-3.3112,-3.6173,-3.4866,-3.4157,-3.3687,-3.3512,-3.4371,-3.4712,-3.4716,-3.4716,-3.4802,-3.4851,-3.4049,-3.379,-3.3958,-3.3751,0.0,0.0,0.0,-3.5181,-3.6542,-3.6617,-3.7375,-3.8624,-3.8736,-3.8963,-3.9275,-3.8986,-3.8859,-3.8867,-3.8059,-3.6918,-3.5388,0.0,0.0,-3.4359,-3.5714,-3.6748,-3.7474,-3.8989,-3.9954,-4.0313,-4.0844,-4.1111,-4.1087,-4.0619,-4.0213,-3.9899,-3.8045,-3.6698,-3.6011,-3.3671,-3.1875,0.0,0.0,0.0,0.0,0.0,0.0,0.0,0.0,0.0,0.0,0.0,-2.366,-2.4015,0.0,0.0,0.0,-2.6576,-2.7496,-2.8501,-2.8851,0.0,0.0,0.0,0.0,0.0,0.0,0.0,-3.2968,-3.4029,-3.514,-3.6346,-3.5886,-3.5818,-3.6875,-3.7057,-3.7083,-3.7113,0.0,-3.7002,-3.6469,-3.6378,-3.6363,-3.6349,-3.6349,-3.6363,-3.6397,-3.6425,-3.6444,-3.6397,-3.6383,-3.6368,-3.6343,-3.6312,-3.6312,-3.6246,-3.6023,-3.5494,-3.4706,-3.4837,-3.5044,-3.4999,-3.5284,-3.5531,-3.7951,-3.7931,-3.7266,-3.6479,-3.5776,-3.6621,-3.6976,-3.6976,-3.6976,-3.7025,-3.7018,-3.6287,-3.602,-3.6029,-3.5533,0.0,-3.6684,-3.6661,-3.7179,-3.8089,-3.8155,-3.8653,-3.9503,-3.9579,-4.001,-4.075,-4.0006,-3.9644,-3.9646,-3.8974,-3.8602,-3.8531,-3.6986,-3.6169,-3.6138,-3.697,-3.8209,-3.9763,-3.9875,-4.0288,-4.1078,-4.1108,-4.1116,-4.1107,-4.1108,-4.0761,-4.0015,-3.9096,-3.7842,-3.6286,-3.5254,-3.3617,-3.1294,0.0,0.0,0.0,0.0,0.0,0.0,0.0,0.0,0.0,0.0,0.0,0.0,0.0,0.0,0.0,-2.916,0.0,-2.9806,-3.0482,0.0,0.0,0.0,-3.2357,-3.3235,-3.3324,-3.4004,-3.5718,0.0,0.0,-3.8199,-3.8413,-3.8393,-3.8349,-3.8254,-3.8228,-3.8201,-3.8214,-3.8194,-3.804,-3.8078,-3.8085,-3.7925,-3.7977,-3.7962,-3.8025,-3.821,-3.8102,-3.8078,-3.8098,-3.8112,-3.7938,-3.8015,-3.7963,-3.7978,-3.7853,-3.7444,-3.5618,-3.5889,-3.6386,-3.6369,-3.6882,-3.7319,-3.8795,-3.8804,-3.8627,-3.7734,-3.6515,-3.7314,-3.7668,-3.7668,-3.7668,-3.7694,-3.7716,-3.6939,-3.6686,-3.6832,-3.6795,-3.6976,-3.7299,-3.7335,-3.7898,-3.8815,-3.8969,-3.9471,-4.0293,-4.0372,-4.0552,-4.0784,-4.0614,-4.0502,-4.0524,-4.0373,-4.0014,-3.9412,-3.8998,-3.8505,-3.7928,-3.875,-3.9394,-3.9857,-4.0483,-4.0892,-4.1082,-4.1103,-4.1107,-4.1111,-4.1112,-4.0996,-4.0794,-3.9325,-3.8319,-3.7878,-3.5845,-3.4417,-3.3799,-3.1889,0.0,0.0,0.0,0.0,0.0,0.0,0.0,0.0,0.0,-2.6735,-2.7593,0.0,-2.8315,0.0,-3.0574,-3.175,-3.2414,-3.2645,0.0,0.0,-3.2999,-3.3558,-3.5077,-3.5225,-3.5903,-3.7639,-3.7834,-3.8246,-3.9312,-3.9455,-3.9668,-4.0213,-3.9685,-3.9223,-3.9162,-3.9223,-3.9002,-3.844,-3.8324,-3.8255,-3.8313,-3.8255,-3.8285,-3.8266,-3.8285,-3.8285,-3.8285,-3.8255,-3.8263,-3.8168,-3.8156,-3.8131,-3.8138,-3.8086,-3.7957,-3.7478,-3.7467,-3.7501,-3.7504,-3.7682,-3.7783,-3.9993,-3.9677,-3.9677,-3.8934,-3.7782,-3.8247,-3.8432,-3.8414,-3.8432,-3.8459,-3.8468,-3.8029,-3.7978,-3.8179,-3.8248,-3.8383,-3.8571,-3.8592,-3.8976,-3.958,-3.972,-4.0065,-4.0598,-4.0673,-4.0733,-4.079,-4.0815,-4.0808,-4.08,-4.0834,-4.0645,-4.0247,-4.0232,-4.002,-3.9633,-3.9747,-3.9995,-4.0429,-4.0878,-4.1111,-4.111,-4.1108,-4.111,-4.1112,-4.1113,-4.1112,-4.1082,-3.9435,-3.8505,-3.8448,-3.6411,-3.5061,-3.4666,-3.3301,-3.2159,0.0,0.0,0.0,0.0,0.0,0.0,0.0,0.0,0.0,0.0,0.0,-3.035,-3.1172,-3.2461,-3.3612,-3.4471,-3.4902,-3.5293,-3.5644,-3.5644,-3.5996,-3.697,-3.7067,-3.7592,-3.8916,-3.9081,-3.9403,-4.0258,-4.0379,-4.0535,-4.0986,-4.0602,-4.0254,-4.017,-4.0189,-4.0053,-3.9597,-3.95,-3.9519,-3.951,-3.9481,-3.9452,-3.9452,-3.9452,-3.9461,-3.9451,-3.9471,-3.943,-3.9378,-3.9367,-3.9356,-3.9301,-3.9301,-3.9301,-3.9289,-3.9258,-3.9036,-3.8618,-3.8839,-3.9077,-4.1181,-4.0568,-4.055,-4.0104,-3.9417,-3.9305,-3.9194,-3.9101,-3.9101,-3.9101,-3.9101,-3.9183,-3.9298,-3.9477,-3.9477,-3.9623,-3.9867,-3.9889,-3.9998,-4.0177,-4.0325,-4.0463,-4.0607,-4.0646,-4.07,-4.079,-4.0771,-4.0803,-4.0808,-4.0808,-4.0843,-4.0897,-4.0888,-4.0926,-4.0949,-4.0301,-4.0327,-4.1084,-4.1113,-4.1113,-4.1113,-4.1111,-4.1112,-4.1113,-4.1113,-4.111,-4.1069,-3.9543,-3.8654,-3.8605,-3.6996,-3.5719,-3.4995,-3.4728,-3.3949,0.0,-3.2313,0.0,0.0,0.0,0.0,0.0,0.0,0.0,0.0,-3.203,-3.2927,-3.3662,-3.4632,-3.5506,-3.6264,-3.7006,-3.7728,-3.8417,-3.8514,-3.8539,-3.8627,-3.8667,-3.9001,-3.9863,-3.996,-4.027,-4.0952,-4.1116,-4.1097,-4.1105,-4.1072,-4.0992,-4.1006,-4.0964,-4.0898,-4.0976,-4.0976,-4.0785,-4.0835,-4.0857,-4.08,-4.0858,-4.0781,-4.0907,-4.083,-4.084,-4.0829,-4.077,-4.0682,-4.0721,-4.0807,-4.0749,-4.0749,-4.066,-4.0637,-4.0384,-3.9739,-3.9986,-4.0534,-4.1497,-4.1386,-4.1367,-4.1256,-4.107,-4.042,-3.9751,-3.9101,-3.9101,-3.9101,-3.9101,-3.9156,-3.921,-3.9245,-3.9432,-3.9514,-3.9599,-3.9739,-3.9933,-4.0118,-4.0215,-4.0341,-4.0523,-4.0519,-4.0598,-4.072,-4.0713,-4.0746,-4.0803,-4.0803,-4.0796,-4.0812,-4.0807,-4.0868,-4.0897,0.0,0.0,0.0,-4.1116,-4.1105,-4.1105,-4.111,-4.111,-4.1103,-4.1099,0.0,-4.1058,-4.0106,-3.9565,-3.9496,-3.7896,0.0,0.0,0.0,0.0,0.0,0.0,0.0,0.0,0.0,0.0,0.0,-3.4092,-3.4207,-3.3066,-3.4351,-3.5321,-3.5532,-3.6871,-3.7843,-3.8018,-3.8174,-3.8331,-3.8467,-3.8526,-3.8764,-3.9431,-3.9559,-3.9878,-4.0726,-4.0834,-4.0897,-4.1074,-4.1112,-4.1107,-4.1101,-4.1116,-4.1104,-4.1081,-4.1039,-4.0986,-4.0979,-4.0991,-4.0996,-4.0988,-4.0988,-4.096,-4.096,-4.098,-4.098,-4.0971,-4.0971,-4.0963,-4.0907,-4.0888,-4.0859,-4.0818,-4.0807,-4.0818,-4.0807,-4.0807,-4.0715,-4.0488,-4.0565,-4.066,-4.2556,-4.2203,-4.2184,-4.1962,0.0,-4.1144,-4.0736,-4.029,-3.9454,-3.9101,-3.9101,-3.9129,-3.9156,-3.9229,-3.9328,-3.9395,-3.9483,-3.9599,-3.9781,-4.0015,-4.0099,-4.0233,-4.0408,-4.0473,-4.0746,-4.1244,-4.1277,-4.1542,-4.1936,-4.1583,-4.1397,-4.139,-4.0994,-4.1028,-4.1507,-4.1917,-4.1777,-4.1064,-4.1476,-4.1507,-4.1121,-4.1114,-4.1116,-4.1108,-4.1097,0.0,0.0,0.0,0.0,0.0,0.0,0.0,0.0,-3.6938,0.0,-3.6425,-3.6017,-3.5799,-3.582,-3.5807,-3.5807,-3.582,-3.6619,-3.6799,-3.5966,-3.6742,-3.7249,-3.7249,-3.802,-3.8678,-3.9101,-3.914,-3.9316,-3.9725,-3.9783,-3.9984,-4.0345,-4.0447,-4.0613,-4.0996,-4.1108,-4.1116,-4.1103,-4.1111,-4.1113,-4.1113,-4.111,-4.1105,-4.1116,-4.107,-4.1037,-4.1064,-4.1052,-4.1039,-4.1059,-4.1018,-4.0991,-4.0991,-4.0984,-4.0996,-4.0996,-4.0996,-4.0988,-4.0971,-4.0943,-4.0935,-4.0917,-4.0888,-4.0888,-4.0907,-4.0907,-4.0878,-4.0819,-4.0784,-4.0745,-4.3615,-4.302,-4.3002,-4.2612,-4.2017,-4.1869,-4.1739,-4.1497,0.0,0.0,0.0,-3.9547,-3.9556,-3.963,-3.963,-3.9746,-3.9908,-3.9934,-4.0075,-4.0302,-4.0452,-4.0576,-4.073,-4.0833,-4.128,-4.1982,-4.2071,-4.2468,-4.3138,-4.2512,-4.2193,-4.2135,-4.1532,-4.1589,-4.2318,-4.3191,-4.2918,-4.1521,-4.2124,-4.2192,-4.1568,-4.1382,-4.1308,-4.1315,-4.1169,-4.105,-4.0981,-4.0305,-3.9921,-3.9898,-3.9093,-3.861,-3.8606,-3.8461,-3.8346,-3.8287,-3.8277,-3.8297,-3.8363,-3.8363,-3.8419,-3.8521,-3.8587,-3.8597,-3.8486,-3.8622,-3.872,-3.87,-3.8844,-3.9247,-3.9948,-4.0013,-4.0286,-4.1026,-4.111,-4.1097,-4.1089,-4.1109,-4.1075,-4.1111,-4.11,-4.1113,-4.1104,-4.1116,-4.1105,-4.111,-4.1113,-4.121,-4.1268,-4.1216,-4.1094,-4.11,-4.1091,-4.1106,-4.11,-4.1045,-4.1026,-4.1007,-4.1013,-4.1018,-4.1038,-4.1018,-4.1011,-4.1011,-4.1011,-4.1011,-4.0984,-4.0984,-4.0984,-4.0984,-4.0984,-4.0984,-4.0929,-4.0878,-4.0819,-4.3931,-4.3838,-4.3838,-4.3782,-4.3615,-4.2909,-4.2222,-4.1571,-4.1349,-4.1256,-4.1237,-4.1237,-4.1256,-4.1266,-4.1324,-4.1381,-4.1492,-4.1582,-4.1757,-4.1882,-4.2006,-4.2161,-4.2269,-4.2354,-4.2508,-4.2734,-4.2825,-4.2915,-4.3076,-4.2996,-4.2988,-4.3018,-4.2917,-4.296,-4.3189,-4.4039,-4.4036,-4.3098,-4.3237,-4.3308,-4.3233,-4.2513,-4.2149,-4.211,-4.1429,-4.1006,-4.0984,-4.0887,-4.0774,-4.0719,-3.9896,-3.9422,-3.9423,-3.8694,-3.8216,-3.8225,-3.8202,-3.8222,-3.8236,-3.8236,-3.848,-3.9034,-3.9352,-3.921,-3.8512,-3.9096,-3.9524,-3.9563,-4.0147,-4.0673,-4.0828,-4.0785,-4.0838,-4.0993,-4.1065,-4.111,-4.1091,-4.1117,-4.1097,-4.1114,-4.11,-4.1106,-4.11,-4.1133,-4.1182,-4.1133,-4.1336,-4.1419,-4.1933,-4.1559,-4.1153,-4.1108,-4.1104,-4.1101,-4.1289,-4.1124,-4.1232,-4.1067,-4.1203,-4.1276,-4.1315,-4.1315,-4.129,-4.1148,-4.1226,-4.1142,-4.1071,-4.0981,-4.0987,-4.0987,-4.0987,-4.1007,-4.0981,-4.0974,-4.0945,-4.4005,-4.4005,-4.4005,-4.4005,-4.3986,-4.3615,-4.3243,-4.2909,-4.2909,-4.2389,-4.1627,-4.159,-4.159,-4.159,-4.1619,-4.1678,-4.1763,-4.1847,-4.1965,-4.2077,-4.2221,-4.2323,-4.2454,-4.2572,-4.2905,-4.3366,-4.3542,-4.3847,-4.4267,-4.3918,-4.3703,-4.3756,-4.3824,-4.3871,-4.395,-4.4833,-4.5092,-4.4731,-4.4342,-4.3957,-4.35,-4.3147,-4.2961,-4.2933,-4.2555,-4.2119,-4.1663,-4.1616,-4.1364,-4.0869,-4.047,-4.0225,-4.0184,-3.9789,-3.9547,-3.9509,-3.949,-3.9522,-3.9496,-3.9565,-3.9746,-4.004,-4.0198,-4.016,-3.9809,-4.0155,-4.0412,-4.0412,-4.0782,-4.0996,-4.0996,-4.0984,-4.0991,-4.0991,-4.1025,-4.1039,-4.1039,-4.1065,-4.111,-4.1097,-4.1103,-4.1109,-4.11,-4.152,-4.1803,-4.1831,-4.2139,-4.2678,-4.3037,-4.2772,-4.2499,-4.2514,-4.2531,-4.2509,-4.2485,-4.2519,-4.2513,-4.251,-4.2526,-4.2502,-4.2502,-4.2483,-4.2483,-4.2459,-4.2143,-4.1831,-4.1764,-4.1335,-4.112,-4.1042,-4.1061,-4.1061,-4.1042,-4.1042,-4.1017,-4.4005,-4.4005,-4.4005,-4.4005,-4.4005,-4.4005,-4.4005,-4.4005,-4.3986,-4.3299,-4.2222,-4.2147,-4.2147,-4.2129,-4.2147,-4.2177,-4.2265,-4.2323,-4.2389,-4.2527,-4.266,-4.2718,-4.2812,-4.3004,-4.3418,-4.3992,-4.4221,-4.4668,-4.5185,-4.4729,-4.4442,-4.4498,-4.4587,-4.4655,-4.4704,-4.5407,-4.5761,-4.5728,-4.5196,-4.4606,-4.4001,-4.3839,-4.3763,-4.3763,-4.3578,-4.316,-4.2519,-4.2438,-4.2055,-4.1424,-4.1362,-4.1325,-4.1268,-4.1054,-4.0921,-4.0862,-4.0665,-4.0564,-4.0559,-4.0675,-4.0745,-4.0784,-4.0812,-4.0807,-4.0848,-4.0907,-4.0971,-4.098,-4.096,-4.098,-4.098,-4.0988,-4.0988,-4.0988,-4.0991,-4.0999,-4.0999,-4.1052,-4.1059,-4.1085,-4.1085,-4.113,-4.1415,-4.1947,-4.2401,-4.271,-4.3411,-4.3931,-4.3977,-4.4103,-4.4249,-4.4197,-4.3984,-4.3632,-4.3709,-4.3649,-4.3607,-4.3702,-4.364,-4.354,-4.3559,-4.3637,-4.3674,-4.3498,-4.3127,-4.2756,-4.2639,-4.2229,-4.1861,-4.1861,-4.19,-4.1802,-4.1841,-4.1822,-4.1491,-4.4023,-4.4005,-4.4061,-4.4005,-4.4005,-4.4005,-4.4005,-4.4005,-4.4005,-4.3931,-4.3708,-4.3763,-4.3726,-4.3763,-4.3708,-4.3739,-4.3867,-4.3972,-4.3964,-4.4015,-4.4215,-4.4271,-4.4231,-4.4455,-4.4632,-4.4694,-4.4815,-4.4928,-4.5106,-4.5096,-4.5144,-4.5284,-4.5361,-4.5396,-4.5488,-4.5558,-4.5629,-4.5696,-4.5654,-4.5631,-4.5614,-4.4967,-4.4579,-4.4599,-4.3812,-4.3385,-4.3288,-4.3269,-4.3214,-4.3086,-4.3015,-4.3027,-4.2864,-4.2167,-4.1697,-4.1662,-4.0924,-4.0411,-4.0441,-4.0564,-4.0679,-4.0712,-4.0771,-4.0761,-4.0723,-4.0787,-4.0849,-4.0878,-4.0888,-4.0917,-4.0897,-4.0954,-4.0991,-4.0991,-4.0988,-4.0976,-4.0996,-4.0996,-4.1011,-4.0986,-4.113,-4.1286,-4.2059,-4.2416,-4.2753,-4.3571,-4.4309,-4.4807,-4.4846,-4.5319,-4.5722,-4.5643,-4.4811,-4.3922,-4.3866,-4.3729,-4.3926,-4.3867,-4.3769,-4.3904,-4.4001,-4.3941,-4.3743,-4.4176,-4.3745,-4.3609,-4.3591,-4.3475,-4.3358,-4.3085,-4.3144,-4.3359,-4.3418,-4.33,-4.2783,-4.5491,-4.5435,-4.4971,-4.4469,-4.4042,-4.4005,-4.4005,-4.4005,-4.4005,-4.4005,-4.4005,-4.4005,-4.4005,-4.4005,-4.4005,-4.4036,-4.4085,-4.4184,-4.4214,-4.4226,-4.4344,-4.4383,-4.4458,-4.4551,-4.4632,-4.4667,-4.4821,-4.4895,-4.4919,-4.5014,-4.5148,-4.5256,-4.5339,-4.5419,-4.5477,-4.5513,-4.5584,-4.5635,-4.5632,-4.5677,-4.5733,-4.5498,-4.5351,-4.5376,-4.5047,-4.4608,-4.4176,-4.4072,-4.378,-4.3294,-4.3221,-4.3158,-4.3076,-4.2703,-4.2462,-4.2334,-4.1992,-4.1552,-4.1146,-4.1157,-4.0992,-4.0562,-4.0631,-4.0668,-4.0636,-4.07,-4.0769,-4.0784,-4.0837,-4.0868,-4.0898,-4.0927,-4.0927,-4.0945,-4.0963,-4.098,-4.098,-4.0988,-4.1151,-4.1653,-4.177,-4.2081,-4.2921,-4.3539,-4.4189,-4.4943,-4.5481,-4.5604,-4.5688,-4.6006,-4.6172,-4.6143,-4.5586,-4.5269,-4.5167,-4.523,-4.5191,-4.5212,-4.5233,-4.5233,-4.5155,-4.5233,-4.5253,-4.5195,-4.4765,-4.4492,-4.4491,-4.3983,-4.3709,-4.3786,-4.3728,-4.3708,-4.3707,-4.3708,-4.3301,-4.6513,-4.6401,-4.5862,-4.5268,-4.4692,-4.4692,-4.4674,-4.4636,-4.4469,-4.4358,-4.4339,-4.4116,-4.4005,-4.4005,-4.4005,-4.4005,-4.4005,-4.4104,-4.4135,-4.4135,-4.4244,-4.4285,-4.4344,-4.4401,-4.4487,-4.4551,-4.4659,-4.4738,-4.477,-4.487,-4.4991,-4.5106,-4.5192,-4.5275,-4.5338,-4.5419,-4.5477,-4.5532,-4.5547,-4.5563,-4.5632,-4.5696,-4.5776,-4.5833,-4.5852,-4.5548,-4.494,-4.4873,-4.4538,-4.3914,-4.3824,-4.3737,-4.3667,-4.3423,-4.3101,-4.2716,-4.2675,-4.2446,-4.1896,-4.1877,-4.1665,-4.1106,-4.1152,-4.1251,-4.1262,-4.1326,-4.1335,-4.1382,-4.1377,-4.1388,-4.0876,-4.0867,-4.0888,-4.0888,-4.0927,-4.0965,-4.0965,-4.1118,-4.1583,-4.2174,-4.2447,-4.2961,-4.3814,-4.4655,-4.5448,-4.5955,-4.6144,-4.6196,-4.6196,-4.6189,-4.6195,-4.6201,-4.6181,-4.6182,-4.6267,-4.6134,-4.6273,-4.6273,-4.6156,-4.6141,-4.6297,-4.628,-4.6282,-4.5739,-4.5522,-4.5403,-4.5384,-4.4796,-4.4384,-4.4403,-4.4403,-4.4403,-4.4655,-4.4462,-4.4464,-4.6513,-4.6513,-4.6457,-4.6382,-4.6364,-4.6308,-4.6345,-4.616,-4.5547,-4.5231,-4.5119,-4.4395,-4.4023,-4.4061,-4.4042,-4.4005,-4.4005,-4.4005,-4.4005,-4.4036,-4.4135,-4.4214,-4.4233,-4.4255,-4.4344,-4.4411,-4.4515,-4.4578,-4.4693,-4.477,-4.4846,-4.4919,-4.4967,-4.508,-4.5192,-4.5256,-4.5338,-4.538,-4.5419,-4.5438,-4.5495,-4.5513,-4.5584,-4.5665,-4.5715,-4.5677,-4.5619,-4.5638,-4.5552,-4.5488,-4.5374,-4.5339,-4.5189,-4.4421,-4.3574,-4.2821,-4.2686,-4.2648,-4.2591,-4.2616,-4.2543,-4.2507,-4.2488,-4.2772,-4.271,-4.2667,-4.2646,-4.2854,-4.273,-4.2285,-4.119,-4.1102,-4.1039,-4.1011,-4.0974,-4.1043,-4.1004,-4.1791,-4.2111,-4.2431,-4.3121,-4.3897,-4.4673,-4.5574,-4.5971,-4.6174,-4.6208,-4.6203,-4.6203,-4.6203,-4.6209,-4.6203,-4.6209,-4.6215,-4.6206,-4.6221,-4.6221,-4.6225,-4.6257,-4.628,-4.6287,-4.6293,-4.6297,-4.63,-4.6102,-4.6061,-4.6175,-4.6136,-4.5938,-4.5857,-4.5779,-4.5796,-4.5526,-4.5977,-4.5902,-4.7738,-4.7274,-4.7256,-4.6977,-4.6513,-4.6513,-4.6513,-4.6475,-4.6197,-4.6067,-4.5918,-4.5194,-4.4822,-4.4804,-4.4246,-4.4005,-4.4005,-4.4005,-4.4005,-4.4005,-4.4036,-4.4104,-4.4184,-4.4244,-4.4255,-4.4344,-4.4401,-4.4496,-4.4632,-4.4659,-4.4693,-4.4789,-4.4821,-4.4919,-4.501,-4.5061,-4.517,-4.5256,-4.5277,-4.5319,-4.536,-4.538,-4.54,-4.5438,-4.5586,-4.5601,-4.5584,-4.5584,-4.553,-4.5457,-4.5457,-4.5438,-4.5301,-4.4887,-4.449,-4.4178,-4.4075,-4.3866,-4.3456,-4.3384,-4.2987,-4.2231,-4.2524,-4.3005,-4.3158,-4.3025,-4.2814,-4.2889,-4.2944,-4.2629,-4.2437,-4.227,-4.2351,-4.2388,-4.24,-4.2373,-4.2513,-4.2807,-4.3178,-4.3772,-4.4599,-4.5308,-4.5492,-4.5918,-4.613,-4.6149,-4.6185,-4.6201,-4.6201,-4.6208,-4.6196,-4.6203,-4.6209,-4.6209,-4.6216,-4.6201,-4.6206,-4.6211,-4.6216,-4.624,-4.6245,-4.6249,-4.6238,-4.6238,-4.6238,-4.6238,-4.6214,-4.6257,-4.6292,-4.6277,-4.6292,-4.6277,-4.628,-4.6303,-4.6303,-4.8593,-4.8129,-4.8091,-4.7776,-4.7293,-4.7274,-4.7256,-4.7237,-4.7014,-4.6884,-4.6735,-4.6048,-4.5547,-4.5231,-4.4674,-4.4246,-4.4023,-4.4005,-4.4005,-4.4005,-4.4005,-4.4055,-4.4135,-4.4135,-4.4184,-4.4255,-4.4344,-4.443,-4.4524,-4.4524,-4.4578,-4.4685,-4.4719,-4.477,-4.484,-4.4895,-4.501,-4.5061,-4.5125,-4.517,-4.5213,-4.5254,-4.5254,-4.5256,-4.538,-4.5458,-4.5419,-4.5419,-4.54,-4.5341,-4.5321,-4.5281,-4.5192,-4.508,-4.501,-4.4967,-4.4919,-4.4711,-4.4241,-4.417,-4.3771,-4.2962,-4.3219,-4.3624,-4.3971,-4.3666,-4.3535,-4.3538,-4.3617,-4.3676,-4.3732,-4.384,-4.3721,-4.3366,-4.3233,-4.3266,-4.3363,-4.3569,-4.4156,-4.4901,-4.5548,-4.5968,-4.6075,-4.6066,-4.6104,-4.6104,-4.6141,-4.6158,-4.6158,-4.6166,-4.6162,-4.6208,-4.6208,-4.6215,-4.6203,-4.6196,-4.6209,-4.6209,-4.6201,-4.6201,-4.6201,-4.6201,-4.6206,-4.6206,-4.6206,-4.6206,-4.6231,-4.6255,-4.6255,-4.626,-4.626,-4.6264,-4.6269,-4.6292,-4.6296,-4.889,-4.8834,-4.889,-4.8779,-4.8686,-4.8667,-4.8816,-4.8593,-4.7999,-4.7701,-4.759,-4.6865,-4.6141,-4.5528,-4.5379,-4.4859,-4.4228,-4.4153,-4.4079,-4.4005,-4.4005,-4.4005,-4.4023,-4.4023,-4.4085,-4.4233,-4.4255,-4.4344,-4.4411,-4.4411,-4.4487,-4.4578,-4.4578,-4.4632,-4.4712,-4.4764,-4.4821,-4.4914,-4.4943,-4.5014,-4.5084,-4.508,-4.508,-4.508,-4.5084,-4.517,-4.5275,-4.5297,-4.5256,-4.5213,-4.5213,-4.5129,-4.5038,-4.4991,-4.4967,-4.4895,-4.4895,-4.4895,-4.4857,-4.48,-4.4768,-4.4602,-4.4834,-4.4744,-4.4772,-4.4832,-4.4836,-4.4821,-4.4922,-4.5061,-4.5025,-4.509,-4.469,-4.3467,-4.3412,-4.3462,-4.3545,-4.4032,-4.4846,-4.5602,-4.5937,-4.5991,-4.6003,-4.6035,-4.6085,-4.6095,-4.6095,-4.6093,-4.6113,-4.6122,-4.613,-4.6166,-4.6166,-4.6174,-4.6189,-4.6196,-4.6196,-4.6203,-4.6196,-4.6203,-4.6209,-4.6209,-4.6215,-4.6215,-4.6215,-4.6215,-4.6215,-4.624,-4.6226,-4.6226,-4.6231,-4.6231,-4.6236,-4.6264,-4.6264,-4.889,-4.889,-4.889,-4.889,-4.889,-4.889,-4.889,-4.889,-4.8612,-4.8537,-4.837,-4.7683,-4.7181,-4.6847,-4.6401,-4.5677,-4.4915,-4.4878,-4.4581,-4.4116,-4.4023,-4.4005,-4.4005,-4.4005,-4.4055,-4.4184,-4.4233,-4.4274,-4.4314,-4.4344,-4.4354,-4.4401,-4.4401,-4.4458,-4.4551,-4.4578,-4.4659,-4.4745,-4.477,-4.4815,-4.4821,-4.4821,-4.484,-4.484,-4.4821,-4.4846,-4.4895,-4.508,-4.5148,-4.5125,-4.5125,-4.5103,-4.4991,-4.4962,-4.4895,-4.4846,-4.4821,-4.4815,-4.477,-4.4764,-4.4789,-4.4852,-4.4833,-4.4777,-4.4783,-4.4852,-4.4938,-4.4943,-4.5014,-4.5061,-4.5125,-4.517,-4.4972,-4.4709,-4.4724,-4.4699,-4.4729,-4.5063,-4.5418,-4.5679,-4.586,-4.5919,-4.5932,-4.5968,-4.5983,-4.6025,-4.6026,-4.6047,-4.6085,-4.6095,-4.6113,-4.613,-4.613,-4.613,-4.6146,-4.6174,-4.6181,-4.6181,-4.6196,-4.6209,-4.6216,-4.6216,-4.6196,-4.6203,-4.6203,-4.6203,-4.6203,-4.6203,-4.6209,-4.6215,-4.622,-4.6201,-4.6206,-4.6211,-4.6231,-4.889,-4.889,-4.889,-4.889,-4.889,-4.889,-4.889,-4.889,-4.889,-4.889,-4.876,-4.837,-4.7961,-4.7646,-4.7163,-4.6513,-4.5751,-4.5454,-4.5008,-4.4469,-4.4098,-4.4023,-4.4005,-4.4005,-4.4055,-4.4104,-4.4135,-4.4165,-4.4255,-4.4274,-4.4304,-4.4285,-4.4333,-4.4344,-4.443,-4.443,-4.4468,-4.4578,-4.4605,-4.4613,-4.4659,-4.4659,-4.4685,-4.4693,-4.4712,-4.4712,-4.4693,-4.487,-4.4943,-4.4962,-4.4962,-4.4919,-4.487,-4.4846,-4.4796,-4.4789,-4.4764,-4.4764,-4.4712,-4.4712,-4.4712,-4.4749,-4.4731,-4.4693,-4.4674,-4.4726,-4.4789,-4.484,-4.4865,-4.4895,-4.4943,-4.501,-4.5084,-4.5178,-4.5244,-4.5419,-4.5514,-4.5566,-4.5599,-4.5632,-4.5746,-4.5805,-4.5819,-4.5841,-4.588,-4.5937,-4.596,-4.5964,-4.6035,-4.6056,-4.6076,-4.6085,-4.6095,-4.6104,-4.6113,-4.613,-4.6138,-4.6166,-4.6181,-4.6196,-4.6203,-4.6203,-4.6203,-4.6209,-4.6209,-4.6209,-4.6209,-4.6209,-4.6216,-4.6203,-4.6203,-4.6203,-4.6203,-4.6195,-4.622,-4.889,-4.889,-4.889,-4.889,-4.889,-4.889,-4.889,-4.889,-4.889,-4.889,-4.889,-4.8816,-4.8463,-4.7887,-4.7776,-4.733,-4.6568,-4.5955,-4.544,-4.5032,-4.4512,-4.4141,-4.4042,-4.4005,-4.4023,-4.4023,-4.4005,-4.4085,-4.4165,-4.4165,-4.4214,-4.4255,-4.4255,-4.4304,-4.4285,-4.4304,-4.4344,-4.4411,-4.4411,-4.4468,-4.4551,-4.4578,-4.4605,-4.4659,-4.4659,-4.4659,-4.4659,-4.4659,-4.4667,-4.4712,-4.4719,-4.4738,-4.4712,-4.4712,-4.4693,-4.4712,-4.4712,-4.4685,-4.4685,-4.4659,-4.4659,-4.464,-4.4659,-4.4685,-4.464,-4.4659,-4.4685,-4.4685,-4.4693,-4.4738,-4.4764,-4.484,-4.4895,-4.4938,-4.5106,-4.5256,-4.5359,-4.538,-4.5419,-4.5475,-4.5582,-4.568,-4.568,-4.5723,-4.58,-4.586,-4.5874,-4.5899,-4.5917,-4.5972,-4.5983,-4.6005,-4.6037,-4.6066,-4.6076,-4.6104,-4.6113,-4.6141,-4.6158,-4.6174,-4.6189,-4.6196,-4.6196,-4.6196,-4.6196,-4.6196,-4.6196,-4.6203,-4.6203,-4.6209,-4.6203,-4.6196,-4.6203,-4.6196,-4.6203,-4.889,-4.889,-4.889,-4.889,-4.889,-4.889,-4.889,-4.889,-4.889,-4.8855,-4.889,-4.889,-4.8779,-4.8593,-4.8556,-4.8113,-4.7411,-4.7024,-4.6194,-4.5164,-4.4868,-4.4466,-4.4085,-4.4005,-4.4005,-4.4005,-4.3974,-4.4005,-4.4036,-4.4055,-4.4036,-4.4067,-4.4085,-4.4116,-4.4214,-4.4214,-4.4274,-4.4314,-4.4296,-4.4344,-4.4373,-4.4373,-4.4401,-4.4401,-4.4383,-4.443,-4.4401,-4.4401,-4.4496,-4.4685,-4.4712,-4.4712,-4.4685,-4.4712,-4.4685,-4.4632,-4.4632,-4.4605,-4.4551,-4.4496,-4.4496,-4.4468,-4.4468,-4.4401,-4.443,-4.4515,-4.4524,-4.4578,-4.4632,-4.4685,-4.4712,-4.4719,-4.4745,-4.477,-4.4986,-4.5125,-4.517,-4.5235,-4.5258,-4.5339,-4.5419,-4.5494,-4.5566,-4.5616,-4.568,-4.5746,-4.5776,-4.5838,-4.5841,-4.5887,-4.5912,-4.5949,-4.5972,-4.6014,-4.6035,-4.6066,-4.6085,-4.6114,-4.6132,-4.6158,-4.6174,-4.6181,-4.6189,-4.6196,-4.6215,-4.6208,-4.6196,-4.6196,-4.6196,-4.6196,-4.6196,-4.6196,-4.6196,-4.6203,-4.6209,-4.8785,-4.8785,-4.8785,-4.8785,-4.8785,-4.8804,-4.8785,-4.8785,-4.8767,-4.8785,-4.8785,-4.8785,-4.8785,-4.8785,-4.8767,-4.8509,-4.8048,-4.7607,-4.6888,-4.6061,-4.5215,-4.4509,-4.4031,-4.3897,-4.3929,-4.3929,-4.3897,-4.3915,-4.3897,-4.3929,-4.3897,-4.3929,-4.3929,-4.3947,-4.4029,-4.4029,-4.4061,-4.4073,-4.4104,-4.4104,-4.4135,-4.4135,-4.4147,-4.4177,-4.4177,-4.4177,-4.4177,-4.4207,-4.4354,-4.4524,-4.4578,-4.4578,-4.4624,-4.4605,-4.4578,-4.4524,-4.4524,-4.4468,-4.443,-4.4373,-4.4354,-4.4354,-4.4314,-4.4314,-4.4314,-4.4373,-4.443,-4.443,-4.4515,-4.4524,-4.4551,-4.4578,-4.4632,-4.4712,-4.4821,-4.4943,-4.4991,-4.5057,-4.5106,-4.5192,-4.5258,-4.5341,-4.538,-4.5438,-4.5512,-4.5584,-4.5635,-4.57,-4.5742,-4.5791,-4.5833,-4.5854,-4.5893,-4.5956,-4.5991,-4.6025,-4.6056,-4.6066,-4.6095,-4.6123,-4.613,-4.6146,-4.6174,-4.6174,-4.6181,-4.6208,-4.6208,-4.6189,-4.6196,-4.6196,-4.6196,-4.6196,-4.6196,-4.6196,-4.6196,-4.8569,-4.8569,-4.8569,-4.8569,-4.8623,-4.8569,-4.8605,-4.8587,-4.8605,-4.8623,-4.8605,-4.8569,-4.8642,-4.8587,-4.8605,-4.8569,-4.8495,-4.7758,-4.7316,-4.6599,-4.5627,-4.4545,-4.4189,-4.383,-4.3771,-4.3753,-4.3771,-4.3804,-4.3786,-4.3804,-4.3804,-4.3837,-4.3804,-4.3804,-4.3818,-4.3804,-4.3753,-4.3786,-4.3804,-4.3818,-4.3832,-4.3865,-4.3878,-4.3892,-4.3942,-4.3942,-4.3942,-4.3986,-4.4109,-4.4325,-4.4354,-4.4411,-4.4487,-4.4487,-4.4458,-4.4383,-4.4383,-4.4354,-4.4266,-4.4255,-4.4255,-4.4226,-4.4226,-4.4274,-4.4226,-4.4226,-4.4226,-4.4226,-4.4255,-4.4314,-4.4325,-4.4401,-4.4515,-4.4605,-4.464,-4.4719,-4.484,-4.4889,-4.4938,-4.5057,-4.5148,-4.517,-4.5213,-4.5297,-4.5379,-4.5419,-4.5457,-4.5512,-4.5582,-4.5632,-4.5696,-4.5752,-4.5814,-4.5906,-4.5944,-4.596,-4.5983,-4.6005,-4.6046,-4.6076,-4.6075,-4.6093,-4.6122,-4.6122,-4.6158,-4.6166,-4.6185,-4.6193,-4.6189,-4.6189,-4.6181,-4.6208,-4.6215,-4.6196,-4.6196,-4.8569,-4.8569,-4.8569,-4.8569,-4.8569,-4.8569,-4.8569,-4.8587,-4.8569,-4.855,-4.8569,-4.8569,-4.8569,-4.8513,-4.8476,-4.8438,-4.8304,-4.7934,-4.762,-4.6621,-4.5721,-4.5155,-4.4725,-4.4108,-4.3624,-4.3621,-4.3634,-4.3649,-4.3649,-4.3719,-4.3804,-4.3771,-4.3719,-4.3734,-4.3649,-4.3615,-4.3615,-4.3566,-4.3566,-4.3566,-4.36,-4.3582,-4.3582,-4.3615,-4.3615,-4.3615,-4.3615,-4.3664,-4.3744,-4.3873,-4.4128,-4.4266,-4.4314,-4.4344,-4.4314,-4.4314,-4.4218,-4.4188,-4.4128,-4.4036,-4.4011,-4.3961,-4.3947,-4.3934,-4.3915,-4.3979,-4.3961,-4.3992,-4.4055,-4.4067,-4.4158,-4.4266,-4.4344,-4.4383,-4.444,-4.4477,-4.4578,-4.4667,-4.4815,-4.4914,-4.4962,-4.501,-4.5084,-4.517,-4.5235,-4.5237,-4.53,-4.5361,-4.5419,-4.5457,-4.5547,-4.5629,-4.5696,-4.5776,-4.586,-4.5899,-4.5949,-4.5972,-4.6014,-4.6035,-4.6037,-4.6047,-4.6075,-4.6104,-4.6122,-4.6141,-4.616,-4.6149,-4.6138,-4.6158,-4.6166,-4.6174,-4.6174,-4.6189,-4.6215,-4.8382,-4.8326,-4.8326,-4.8326,-4.8326,-4.8326,-4.8326,-4.8326,-4.8326,-4.8326,-4.8326,-4.8326,-4.8306,-4.8247,-4.819,-4.8111,-4.801,-4.7888,-4.7505,-4.6813,-4.6038,-4.5618,-4.5324,-4.4578,-4.3937,-4.3761,-4.3468,-4.3376,-4.3393,-4.3444,-4.3497,-4.3516,-4.355,-4.3463,-4.3444,-4.3391,-4.341,-4.3375,-4.3339,-4.3339,-4.3339,-4.3358,-4.3322,-4.3322,-4.3322,-4.3322,-4.3322,-4.3375,-4.3461,-4.3563,-4.3763,-4.4005,-4.4128,-4.4147,-4.4147,-4.4104,-4.4055,-4.3955,-4.386,-4.3795,-4.3767,-4.3734,-4.3686,-4.3686,-4.3652,-4.3701,-4.3682,-4.3716,-4.3781,-4.386,-4.4005,-4.4055,-4.4116,-4.4188,-4.4248,-4.4306,-4.444,-4.4578,-4.4685,-4.477,-4.4796,-4.4846,-4.4943,-4.5014,-4.5061,-4.5084,-4.5151,-4.5216,-4.5298,-4.5341,-4.5419,-4.5494,-4.5565,-4.5632,-4.5742,-4.5833,-4.5899,-4.5937,-4.598,-4.6003,-4.6005,-4.6037,-4.6056,-4.6066,-4.6075,-4.6114,-4.6123,-4.6104,-4.6113,-4.6122,-4.613,-4.613,-4.6138,-4.6158,-4.6174,-4.8072,-4.7974,-4.7951,-4.7951,-4.7951,-4.7951,-4.7951,-4.7951,-4.7951,-4.7992,-4.797,-4.7951,-4.7951,-4.7911,-4.7811,-4.7752,-4.7645,-4.7493,-4.7186,-4.6945,-4.6418,-4.6061,-4.5749,-4.5132,-4.4581,-4.4223,-4.3607,-4.3284,-4.3123,-4.3105,-4.3196,-4.3178,-4.316,-4.316,-4.3142,-4.3142,-4.3087,-4.3087,-4.3087,-4.3087,-4.3087,-4.3105,-4.3068,-4.2994,-4.2994,-4.3012,-4.3049,-4.3105,-4.3142,-4.325,-4.3321,-4.3529,-4.3763,-4.3892,-4.391,-4.3832,-4.38,-4.3716,-4.3612,-4.3545,-4.3495,-4.3463,-4.3428,-4.3428,-4.3446,-4.3428,-4.3463,-4.3479,-4.3548,-4.3631,-4.38,-4.3865,-4.391,-4.3986,-4.4048,-4.4158,-4.4306,-4.4468,-4.4532,-4.4667,-4.4693,-4.4764,-4.4815,-4.4865,-4.4914,-4.4962,-4.5033,-4.508,-4.5148,-4.5213,-4.5279,-4.5361,-4.5419,-4.5549,-4.5668,-4.5727,-4.58,-4.5874,-4.5912,-4.5937,-4.596,-4.5994,-4.6026,-4.6037,-4.6037,-4.6066,-4.6076,-4.6066,-4.6056,-4.6065,-4.6093,-4.6132,-4.6132,-4.6113,-4.6149,-4.7834,-4.7834,-4.7765,-4.7741,-4.7741,-4.7759,-4.7741,-4.7741,-4.7741,-4.7741,-4.7741,-4.7741,-4.7681,-4.7597,-4.7578,-4.745,-4.7276,-4.707,-4.6934,-4.6842,-4.6547,-4.64,-4.6159,-4.5581,-4.5194,-4.4885,-4.4187,-4.3422,-4.3003,-4.2918,-4.29,-4.2938,-4.2938,-4.29,-4.288,-4.286,-4.2804,-4.2747,-4.2765,-4.2765,-4.2747,-4.2747,-4.2765,-4.2727,-4.2745,-4.2727,-4.2727,-4.2822,-4.286,-4.288,-4.2975,-4.3032,-4.3178,-4.3426,-4.3548,-4.3566,-4.3461,-4.3391,-4.3338,-4.3286,-4.3251,-4.3196,-4.316,-4.316,-4.316,-4.316,-4.3178,-4.3251,-4.3304,-4.3391,-4.3408,-4.3529,-4.3631,-4.373,-4.3846,-4.3961,-4.4067,-4.417,-4.4335,-4.4505,-4.4578,-4.4632,-4.4712,-4.4738,-4.4789,-4.484,-4.487,-4.4895,-4.4962,-4.5057,-4.5125,-4.5213,-4.5277,-4.5438,-4.5586,-4.5635,-4.5696,-4.5791,-4.5847,-4.5867,-4.5912,-4.596,-4.6003,-4.5994,-4.5997,-4.6007,-4.6017,-4.6017,-4.6027,-4.6037,-4.6056,-4.6105,-4.6085,-4.6095,-4.6084,-4.7578,-4.7493,-4.7443,-4.7399,-4.7356,-4.7338,-4.7356,-4.7356,-4.7356,-4.7356,-4.7338,-4.7338,-4.7312,-4.7249,-4.7143,-4.7007,-4.687,-4.6778,-4.6637,-4.659,-4.6447,-4.635,-4.6301,-4.5765,-4.5444,-4.5129,-4.4564,-4.3843,-4.3089,-4.2691,-4.2663,-4.2591,-4.2591,-4.2552,-4.257,-4.2588,-4.257,-4.2512,-4.257,-4.2609,-4.2609,-4.2609,-4.257,-4.2548,-4.2566,-4.2566,-4.2548,-4.2606,-4.2685,-4.2706,-4.2727,-4.2747,-4.2786,-4.2882,-4.3087,-4.316,-4.3142,-4.305,-4.305,-4.2994,-4.2974,-4.2842,-4.286,-4.286,-4.286,-4.2842,-4.288,-4.2956,-4.3031,-4.3087,-4.3214,-4.3268,-4.3375,-4.3461,-4.3597,-4.3716,-4.3846,-4.3955,-4.414,-4.4335,-4.4393,-4.4496,-4.4632,-4.4659,-4.4685,-4.4712,-4.4738,-4.4764,-4.4815,-4.4889,-4.4986,-4.508,-4.517,-4.5319,-4.5458,-4.5531,-4.5599,-4.57,-4.5761,-4.5786,-4.5841,-4.5912,-4.5937,-4.5941,-4.5964,-4.5966,-4.6007,-4.6007,-4.6007,-4.5977,-4.6017,-4.6047,-4.6066,-4.6047,-4.6066,-4.7294,-4.7151,-4.7106,-4.7025,-4.6934,-4.687,-4.687,-4.6906,-4.6824,-4.6842,-4.6888,-4.6888,-4.6888,-4.6888,-4.6731,-4.6619,-4.6542,-4.6495,-4.635,-4.6253,-4.6154,-4.6055,-4.5972,-4.5819,-4.5591,-4.5334,-4.4892,-4.4419,-4.3588,-4.2899,-4.2549,-4.2478,-4.2406,-4.2246,-4.2264,-4.2305,-4.2328,-4.2369,-4.2409,-4.249,-4.249,-4.2508,-4.2468,-4.2405,-4.2399,-4.2382,-4.2382,-4.2382,-4.2405,-4.2427,-4.245,-4.245,-4.249,-4.249,-4.257,-4.2691,-4.2768,-4.2786,-4.2765,-4.2783,-4.2727,-4.2627,-4.257,-4.2588,-4.2627,-4.2667,-4.2649,-4.2745,-4.2783,-4.2822,-4.2936,-4.3012,-4.3086,-4.3196,-4.3339,-4.3479,-4.3615,-4.373,-4.386,-4.4048,-4.4188,-4.4335,-4.4449,-4.4551,-4.4551,-4.4605,-4.4659,-4.4685,-4.4712,-4.4789,-4.4889,-4.4962,-4.5057,-4.5192,-4.5319,-4.5438,-4.5513,-4.5637,-4.5703,-4.5731,-4.5771,-4.5827,-4.5854,-4.5893,-4.5941,-4.5944,-4.5986,-4.5997,-4.5997,-4.5977,-4.5977,-4.6007,-4.6007,-4.6037,-4.6037,-4.7043,-4.6998,-4.6778,-4.6637,-4.6637,-4.6525,-4.6495,-4.6447,-4.6332,-4.6381,-4.6495,-4.6477,-4.6542,-4.6542,-4.6381,-4.6284,-4.6204,-4.6073,-4.5972,-4.5955,-4.5871,-4.5871,-4.5821,-4.5838,-4.5717,-4.5506,-4.5053,-4.4594,-4.4082,-4.3421,-4.2979,-4.2873,-4.2395,-4.2083,-4.2147,-4.2108,-4.203,-4.203,-4.2072,-4.2072,-4.2115,-4.2115,-4.2115,-4.2072,-4.2072,-4.2072,-4.2132,-4.2132,-4.2115,-4.2115,-4.2072,-4.2072,-4.2072,-4.2072,-4.2072,-4.2181,-4.2369,-4.2649,-4.2609,-4.2552,-4.257,-4.2508,-4.2486,-4.2486,-4.2526,-4.2548,-4.257,-4.2609,-4.2627,-4.2667,-4.2706,-4.2783,-4.2822,-4.2936,-4.3086,-4.3178,-4.3268,-4.3495,-4.3631,-4.3744,-4.3892,-4.4109,-4.4306,-4.4383,-4.444,-4.4496,-4.4551,-4.4578,-4.4632,-4.4712,-4.4789,-4.4865,-4.4962,-4.508,-4.5192,-4.5298,-4.5419,-4.5532,-4.5586,-4.5637,-4.57,-4.5742,-4.5786,-4.5827,-4.5861,-4.591,-4.5941,-4.5953,-4.5986,-4.5997,-4.5986,-4.5997,-4.6007,-4.6007,-4.6026,-4.6542,-4.6542,-4.6429,-4.6301,-4.6154,-4.6055,-4.6055,-4.6055,-4.6005,-4.6005,-4.6055,-4.6073,-4.6122,-4.6105,-4.6005,-4.5972,-4.5955,-4.5871,-4.5821,-4.5787,-4.5736,-4.5667,-4.5667,-4.5632,-4.5632,-4.5597,-4.5423,-4.5333,-4.476,-4.3997,-4.3331,-4.3226,-4.2693,-4.2386,-4.2308,-4.2027,-4.1937,-4.1902,-4.1945,-4.1987,-4.2005,-4.2005,-4.2005,-4.2005,-4.2005,-4.2005,-4.2005,-4.2005,-4.2005,-4.2005,-4.2005,-4.2005,-4.2005,-4.2005,-4.2005,-4.2005,-4.2157,-4.2264,-4.2287,-4.231,-4.2328,-4.2387,-4.2405,-4.2387,-4.2387,-4.2427,-4.245,-4.2427,-4.245,-4.245,-4.2508,-4.2606,-4.2627,-4.2706,-4.284,-4.2899,-4.2994,-4.3196,-4.3375,-4.3461,-4.3597,-4.3795,-4.4017,-4.4109,-4.4248,-4.4383,-4.444,-4.4468,-4.4524,-4.4624,-4.4685,-4.4764,-4.4846,-4.4943,-4.5057,-4.517,-4.5277,-4.538,-4.5458,-4.5533,-4.562,-4.5668,-4.5696,-4.5742,-4.5786,-4.5827,-4.5867,-4.5917,-4.5941,-4.5953,-4.5964,-4.5975,-4.5975,-4.5997,-4.5997,-4.6087,-4.6055,-4.6087,-4.6005,-4.5821,-4.5787,-4.577,-4.577,-4.5736,-4.5718,-4.5787,-4.5787,-4.5838,-4.5787,-4.577,-4.5787,-4.5787,-4.5736,-4.5736,-4.5667,-4.5615,-4.5563,-4.5528,-4.5476,-4.5476,-4.5581,-4.5511,-4.5477,-4.5233,-4.4676,-4.4031,-4.3785,-4.3196,-4.2899,-4.2684,-4.2286,-4.1965,-4.171,-4.1754,-4.1815,-4.1858,-4.1858,-4.1902,-4.1902,-4.1902,-4.1919,-4.1919,-4.1902,-4.1902,-4.1902,-4.1858,-4.1858,-4.1858,-4.1841,-4.1841,-4.1858,-4.1945,-4.197,-4.2037,-4.2061,-4.2121,-4.2181,-4.2222,-4.2222,-4.2222,-4.2246,-4.2228,-4.2246,-4.2328,-4.2387,-4.2445,-4.2445,-4.2468,-4.2548,-4.2627,-4.2667,-4.2745,-4.2956,-4.3105,-4.316,-4.3304,-4.3444,-4.3631,-4.3809,-4.3986,-4.4207,-4.4296,-4.4354,-4.4411,-4.4515,-4.4578,-4.4659,-4.4738,-4.4821,-4.4919,-4.5014,-4.5129,-4.5213,-4.5297,-4.5399,-4.5495,-4.5531,-4.5565,-4.5635,-4.57,-4.5727,-4.5737,-4.5822,-4.5905,-4.5929,-4.5941,-4.596,-4.5972,-4.5975,-4.5986,-4.577,-4.5667,-4.5787,-4.5821,-4.5787,-4.5667,-4.5632,-4.5632,-4.5476,-4.5528,-4.5632,-4.5718,-4.5787,-4.5787,-4.5684,-4.5632,-4.5632,-4.5476,-4.5476,-4.5476,-4.5423,-4.5423,-4.5441,-4.5423,-4.5423,-4.5423,-4.5423,-4.5476,-4.5389,-4.5234,-4.487,-4.457,-4.3788,-4.3541,-4.3158,-4.2678,-4.2072,-4.1733,-4.1541,-4.156,-4.1604,-4.1604,-4.1666,-4.1604,-4.1648,-4.1648,-4.1648,-4.1648,-4.1648,-4.1666,-4.171,-4.1692,-4.171,-4.1692,-4.1692,-4.1692,-4.171,-4.1736,-4.1823,-4.1927,-4.2005,-4.2005,-4.203,-4.2072,-4.2072,-4.2079,-4.2103,-4.2121,-4.2205,-4.2246,-4.2305,-4.2287,-4.2305,-4.2346,-4.2405,-4.2486,-4.2566,-4.2667,-4.2804,-4.286,-4.2994,-4.3178,-4.3304,-4.3495,-4.3763,-4.3974,-4.4158,-4.4218,-4.4354,-4.443,-4.4487,-4.4551,-4.4605,-4.4685,-4.477,-4.487,-4.4967,-4.508,-4.5148,-4.5254,-4.536,-4.5419,-4.5438,-4.5495,-4.5566,-4.5599,-4.5629,-4.5727,-4.58,-4.5861,-4.5917,-4.5905,-4.5937,-4.5953,-4.5972,-4.5581,-4.5476,-4.5528,-4.5581,-4.5581,-4.5476,-4.5476,-4.5476,-4.5423,-4.5441,-4.5459,-4.5528,-4.5581,-4.5528,-4.5528,-4.5476,-4.5476,-4.5423,-4.5423,-4.5441,-4.5441,-4.5441,-4.5441,-4.5441,-4.5441,-4.5441,-4.5441,-4.5441,-4.5423,-4.5441,-4.532,-4.4958,-4.4316,-4.421,-4.3826,-4.3058,-4.2305,-4.1934,-4.1516,-4.1318,-4.13,-4.1346,-4.1363,-4.1346,-4.1363,-4.1408,-4.1471,-4.1471,-4.1515,-4.156,-4.1604,-4.1604,-4.156,-4.1604,-4.1604,-4.1604,-4.1604,-4.1648,-4.171,-4.1797,-4.1884,-4.2005,-4.2005,-4.2005,-4.1945,-4.203,-4.203,-4.2072,-4.2115,-4.2139,-4.2115,-4.2115,-4.2115,-4.2115,-4.2157,-4.224,-4.2323,-4.2468,-4.2548,-4.2609,-4.2783,-4.2956,-4.3068,-4.3178,-4.3444,-4.373,-4.3923,-4.4097,-4.4237,-4.4344,-4.4354,-4.4411,-4.4468,-4.4524,-4.4613,-4.4693,-4.4815,-4.4914,-4.4986,-4.508,-4.5192,-4.5256,-4.5298,-4.5361,-4.5419,-4.5438,-4.5494,-4.5601,-4.5665,-4.5757,-4.5827,-4.5867,-4.5893,-4.5905,-4.5937,-4.5371,-4.5318,-4.5264,-4.5318,-4.5371,-4.5371,-4.5353,-4.53,-4.5318,-4.53,-4.5353,-4.5371,-4.5441,-4.5441,-4.5441,-4.5423,-4.5423,-4.5441,-4.5441,-4.5441,-4.5441,-4.5441,-4.5441,-4.5441,-4.5441,-4.5423,-4.5441,-4.5441,-4.5441,-4.5441,-4.5182,-4.4924,-4.4665,-4.4509,-4.4438,-4.3398,-4.2471,-4.1945,-4.1563,-4.1163,-4.1192,-4.1209,-4.1209,-4.1209,-4.1209,-4.1255,-4.1318,-4.1363,-4.1363,-4.1408,-4.1471,-4.1471,-4.1515,-4.1515,-4.1515,-4.156,-4.156,-4.1604,-4.1604,-4.1692,-4.178,-4.1841,-4.1841,-4.1841,-4.1902,-4.1902,-4.1945,-4.1945,-4.1945,-4.2005,-4.2005,-4.203,-4.203,-4.2048,-4.2048,-4.2115,-4.2115,-4.2222,-4.2305,-4.2328,-4.253,-4.2706,-4.2822,-4.2974,-4.3268,-4.3529,-4.3781,-4.3961,-4.4055,-4.4147,-4.4188,-4.4248,-4.4354,-4.4383,-4.4458,-4.4551,-4.4659,-4.4712,-4.4789,-4.487,-4.4967,-4.5057,-4.5103,-4.5151,-4.5194,-4.5279,-4.5341,-4.5419,-4.5531,-4.5671,-4.5696,-4.5752,-4.58,-4.5827,-4.5854,-4.5049,-4.4995,-4.5049,-4.514,-4.5353,-4.523,-4.5177,-4.5194,-4.5086,-4.5086,-4.5194,-4.5318,-4.5388,-4.5388,-4.5318,-4.5318,-4.5318,-4.5371,-4.5371,-4.5318,-4.5318,-4.5371,-4.5371,-4.5371,-4.5318,-4.5353,-4.5353,-4.53,-4.5267,-4.5181,-4.4871,-4.4475,-4.4199,-4.4423,-4.5096,-4.3854,-4.2504,-4.1371,-4.1215,-4.1105,-4.1134,-4.1163,-4.1163,-4.1163,-4.1163,-4.1163,-4.1226,-4.1244,-4.1272,-4.13,-4.13,-4.13,-4.13,-4.1363,-4.1426,-4.1426,-4.1498,-4.1542,-4.1587,-4.1587,-4.1604,-4.1648,-4.1692,-4.1692,-4.1648,-4.1692,-4.1797,-4.1797,-4.1858,-4.1962,-4.1962,-4.1945,-4.1945,-4.1945,-4.1902,-4.1945,-4.197,-4.2012,-4.2097,-4.2181,-4.2264,-4.2387,-4.2548,-4.2783,-4.305,-4.3375,-4.3634,-4.3818,-4.3897,-4.3961,-4.3986,-4.4085,-4.4177,-4.4237,-4.4296,-4.4411,-4.4496,-4.4542,-4.4624,-4.4693,-4.477,-4.4821,-4.487,-4.4919,-4.4991,-4.5084,-4.517,-4.5213,-4.532,-4.5438,-4.5565,-4.5613,-4.568,-4.5746,-4.5757,-4.4995,-4.4995,-4.4995,-4.5032,-4.5157,-4.5086,-4.5086,-4.5086,-4.5049,-4.5032,-4.5086,-4.5157,-4.514,-4.514,-4.514,-4.5157,-4.5157,-4.5157,-4.5157,-4.5157,-4.514,-4.5157,-4.5157,-4.5157,-4.514,-4.5157,-4.5123,-4.4849,-4.4403,-4.4559,-4.4113,-4.3614,-4.3441,-4.3682,-4.3595,-4.2888,-4.204,-4.166,-4.1328,-4.0982,-4.1012,-4.1012,-4.0995,-4.0995,-4.1012,-4.1059,-4.1105,-4.1123,-4.1152,-4.1163,-4.1163,-4.1163,-4.1163,-4.1272,-4.1272,-4.1272,-4.1346,-4.1346,-4.1346,-4.1346,-4.1453,-4.1498,-4.1604,-4.1604,-4.1604,-4.1648,-4.1648,-4.1692,-4.1754,-4.1754,-4.1754,-4.1754,-4.1692,-4.1692,-4.1692,-4.1797,-4.1841,-4.1841,-4.1927,-4.203,-4.2115,-4.224,-4.2346,-4.2548,-4.2824,-4.2995,-4.3232,-4.3513,-4.3649,-4.3716,-4.3763,-4.3865,-4.3979,-4.4042,-4.4116,-4.4207,-4.4296,-4.4354,-4.4411,-4.4496,-4.4532,-4.4587,-4.464,-4.4693,-4.4796,-4.4895,-4.4943,-4.4991,-4.5084,-4.5197,-4.5322,-4.5475,-4.5584,-4.5618,-4.5651,-4.4886,-4.4886,-4.4869,-4.4886,-4.4886,-4.494,-4.494,-4.4886,-4.4886,-4.494,-4.4923,-4.4978,-4.4995,-4.4995,-4.4995,-4.4995,-4.4995,-4.4995,-4.4995,-4.4995,-4.4995,-4.5049,-4.5049,-4.4995,-4.5049,-4.4995,-4.491,-4.4636,-4.4057,-4.4007,-4.346,-4.2739,-4.2377,-4.2188,-4.2152,-4.1977,-4.1836,-4.154,-4.1073,-4.0918,-4.0918,-4.0918,-4.0918,-4.0918,-4.0918,-4.0918,-4.0982,-4.1029,-4.1029,-4.1088,-4.1117,-4.1071,-4.1134,-4.1134,-4.1134,-4.118,-4.1209,-4.1192,-4.1192,-4.1209,-4.13,-4.1391,-4.1498,-4.1515,-4.156,-4.156,-4.1604,-4.1604,-4.1604,-4.1604,-4.1604,-4.1604,-4.156,-4.1542,-4.1604,-4.1648,-4.1692,-4.171,-4.1797,-4.1858,-4.1945,-4.2055,-4.2181,-4.2346,-4.253,-4.267,-4.2844,-4.3105,-4.3356,-4.3461,-4.3495,-4.3615,-4.3734,-4.3832,-4.3878,-4.3974,-4.4085,-4.4147,-4.4207,-4.4277,-4.4335,-4.4374,-4.4468,-4.4515,-4.4605,-4.4667,-4.4719,-4.4796,-4.487,-4.4948,-4.5065,-4.5239,-4.5458,-4.5476,-4.5495,-4.457,-4.457,-4.457,-4.4587,-4.4626,-4.4737,-4.4682,-4.4643,-4.472,-4.4776,-4.4776,-4.4869,-4.4869,-4.4923,-4.494,-4.494,-4.4886,-4.4886,-4.4886,-4.4886,-4.4814,-4.4886,-4.4886,-4.4869,-4.4831,-4.4869,-4.4783,-4.4402,-4.39,-4.3335,-4.2654,-4.1732,-4.1117,-4.0996,-4.1096,-4.1315,-4.136,-4.1099,-4.0927,-4.0776,-4.0793,-4.0823,-4.0823,-4.0823,-4.0871,-4.0871,-4.0935,-4.0918,-4.0918,-4.0918,-4.0918,-4.0918,-4.0935,-4.1029,-4.1047,-4.1093,-4.1134,-4.1117,-4.1071,-4.1071,-4.1071,-4.1117,-4.1272,-4.1335,-4.1426,-4.1453,-4.1498,-4.1498,-4.1498,-4.1542,-4.1542,-4.1542,-4.1498,-4.1515,-4.156,-4.156,-4.156,-4.1604,-4.1648,-4.1754,-4.178,-4.1884,-4.1987,-4.2139,-4.2246,-4.2369,-4.2472,-4.2613,-4.2902,-4.3178,-4.325,-4.3339,-4.3444,-4.3582,-4.3664,-4.373,-4.3846,-4.391,-4.3955,-4.4048,-4.4109,-4.4188,-4.4237,-4.4296,-4.4354,-4.444,-4.4524,-4.4605,-4.464,-4.4745,-4.4802,-4.4972,-4.5175,-4.5258,-4.53,-4.457,-4.457,-4.457,-4.4497,-4.4384,-4.431,-4.4384,-4.4587,-4.4626,-4.4699,-4.4626,-4.4553,-4.4519,-4.4463,-4.4367,-4.4367,-4.4367,-4.4384,-4.431,-4.4367,-4.4423,-4.4384,-4.4384,-4.4367,-4.4384,-4.4367,-4.4282,-4.4035,-4.3153,-4.2551,-4.1645,-4.0544,-4.056,-4.0457,-4.054,-4.0756,-4.072,-4.07,-4.0631,-4.0631,-4.0631,-4.0631,-4.068,-4.0745,-4.0728,-4.0776,-4.0823,-4.0871,-4.0871,-4.0871,-4.0871,-4.0871,-4.0918,-4.0935,-4.0935,-4.081,-4.0823,-4.0823,-4.071,-4.071,-4.0758,-4.0806,-4.0901,-4.1152,-4.1226,-4.1255,-4.13,-4.1346,-4.1346,-4.1391,-4.1391,-4.1391,-4.1391,-4.1408,-4.1408,-4.1408,-4.1408,-4.1453,-4.1515,-4.156,-4.1604,-4.1692,-4.1797,-4.1945,-4.2055,-4.2097,-4.2181,-4.2269,-4.2472,-4.2768,-4.2957,-4.3032,-4.3196,-4.3304,-4.3356,-4.3408,-4.3563,-4.3664,-4.3712,-4.3777,-4.3878,-4.3961,-4.4023,-4.4085,-4.4177,-4.4266,-4.4373,-4.4411,-4.4421,-4.4449,-4.4541,-4.4726,-4.4895,-4.4991,-4.5084,-4.4497,-4.444,-4.4384,-4.4327,-4.4212,-4.4039,-4.408,-4.427,-4.4327,-4.44,-4.4384,-4.427,-4.4196,-4.4253,-4.4155,-4.4097,-4.4023,-4.4023,-4.4006,-4.3906,-4.3923,-4.3906,-4.3906,-4.3906,-4.3889,-4.3906,-4.3806,-4.358,-4.2672,-4.1899,-4.1057,-4.098,-4.0729,-4.051,-4.051,-4.0358,-4.0172,-4.0238,-4.032,-4.0485,-4.0468,-4.0485,-4.0534,-4.0583,-4.0583,-4.068,-4.0728,-4.0728,-4.0728,-4.0728,-4.0728,-4.0728,-4.0728,-4.0728,-4.0728,-4.0648,-4.0631,-4.0631,-4.0583,-4.0517,-4.0534,-4.0534,-4.0631,-4.0758,-4.0948,-4.1071,-4.1163,-4.1255,-4.1209,-4.1209,-4.1209,-4.1209,-4.1209,-4.1209,-4.1209,-4.1209,-4.1255,-4.1272,-4.1318,-4.138,-4.1408,-4.1498,-4.1604,-4.171,-4.1815,-4.1841,-4.1927,-4.2055,-4.2246,-4.2472,-4.2613,-4.2729,-4.288,-4.3012,-4.3087,-4.3124,-4.325,-4.3321,-4.3444,-4.3513,-4.36,-4.3734,-4.3814,-4.3929,-4.3992,-4.4055,-4.4135,-4.4177,-4.4207,-4.4248,-4.4277,-4.4449,-4.4613,-4.4719,-4.4827,-4.431,-4.4253,-4.4155,-4.4039,-4.3964,-4.3831,-4.3713,-4.3772,-4.3906,-4.4023,-4.4023,-4.4023,-4.3981,-4.3981,-4.3923,-4.3789,-4.3671,-4.3611,-4.3519,-4.3519,-4.3476,-4.3476,-4.3459,-4.3502,-4.3459,-4.3535,-4.342,-4.3155,-4.2535,-4.1896,-4.161,-4.1832,-4.1163,-4.0829,-4.0745,-4.0431,-4.0333,-4.0402,-4.0527,-4.0646,-4.0406,-4.0387,-4.0436,-4.0419,-4.0419,-4.0468,-4.0468,-4.0468,-4.0485,-4.0485,-4.0534,-4.0517,-4.0485,-4.0485,-4.0468,-4.0436,-4.0387,-4.0337,-4.0337,-4.0271,-4.0337,-4.0387,-4.0436,-4.0419,-4.0566,-4.0836,-4.0931,-4.0977,-4.0977,-4.0995,-4.0995,-4.1041,-4.1041,-4.1088,-4.1071,-4.1071,-4.1134,-4.118,-4.1244,-4.129,-4.1318,-4.1346,-4.1346,-4.1453,-4.1515,-4.1587,-4.1648,-4.1736,-4.1909,-4.2103,-4.2269,-4.2374,-4.2512,-4.2688,-4.2765,-4.2806,-4.29,-4.3013,-4.3087,-4.3196,-4.3304,-4.3444,-4.3615,-4.3682,-4.3749,-4.38,-4.3865,-4.3929,-4.3974,-4.4017,-4.4097,-4.4226,-4.4325,-4.4449,-4.4587,-4.4155,-4.4097,-4.3848,-4.3687,-4.3535,-4.3355,-4.3235,-4.3129,-4.3129,-4.3372,-4.3654,-4.3611,-4.3568,-4.3552,-4.3432,-4.3295,-4.319,-4.3129,-4.299,-4.2929,-4.2867,-4.2851,-4.2851,-4.2896,-4.2912,-4.3007,-4.2953,-4.2769,-4.2288,-4.1953,-4.1667,-4.1329,-4.104,-4.112,-4.1104,-4.0812,-4.0752,-4.0669,-4.0833,-4.0618,-4.0118,-3.9951,-3.9935,-4.0037,-4.0121,-4.0238,-4.0271,-4.0419,-4.0468,-4.0485,-4.0485,-4.0436,-4.0337,-4.0238,-4.0138,-4.0104,-4.0037,-3.9986,-3.9918,-3.9918,-3.9918,-3.9935,-3.9986,-4.0037,-4.0171,-4.0451,-4.0645,-4.0662,-4.0728,-4.0776,-4.0823,-4.0823,-4.0871,-4.0918,-4.0948,-4.0948,-4.0948,-4.1059,-4.1152,-4.118,-4.1163,-4.1209,-4.1192,-4.1192,-4.1237,-4.13,-4.13,-4.1363,-4.1453,-4.1613,-4.1874,-4.2002,-4.2145,-4.2287,-4.2409,-4.249,-4.2609,-4.2688,-4.2804,-4.29,-4.2995,-4.3142,-4.3286,-4.3391,-4.3461,-4.3513,-4.3582,-4.3631,-4.3679,-4.3744,-4.386,-4.3992,-4.4055,-4.414,-4.4277,-4.3805,-4.3747,-4.3449,-4.319,-4.3035,-4.2867,-4.2759,-4.2696,-4.2571,-4.2634,-4.2851,-4.2974,-4.3052,-4.3052,-4.2912,-4.2805,-4.2634,-4.2571,-4.2445,-4.2318,-4.2238,-4.2238,-4.2238,-4.2302,-4.2429,-4.2508,-4.2555,-4.2375,-4.2126,-4.2187,-4.1959,-4.1629,-4.151,-4.1324,-4.1292,-4.1154,-4.1033,-4.0934,-4.1107,-4.0769,-4.01,-4.0097,-3.9893,-3.9949,-3.9901,-4.0037,-3.9986,-4.0121,-4.0121,-4.0138,-4.0037,-3.9986,-3.9884,-3.9747,-3.9644,-3.9592,-3.9592,-3.954,-3.9504,-3.9451,-3.9451,-3.9504,-3.9556,-3.9592,-3.9592,-3.9885,-4.0104,-4.0154,-4.0436,-4.0502,-4.0551,-4.0583,-4.0631,-4.068,-4.0728,-4.0728,-4.0823,-4.0935,-4.0982,-4.1012,-4.1059,-4.1041,-4.1059,-4.1105,-4.1152,-4.118,-4.1198,-4.1209,-4.1209,-4.1226,-4.1436,-4.1657,-4.1805,-4.2012,-4.2139,-4.2222,-4.2246,-4.2369,-4.245,-4.2591,-4.2691,-4.2824,-4.2975,-4.3069,-4.3142,-4.3178,-4.325,-4.3303,-4.3391,-4.3426,-4.3563,-4.3749,-4.3814,-4.386,-4.3974,-4.3251,-4.319,-4.2883,-4.268,-4.2476,-4.2365,-4.2238,-4.2254,-4.2045,-4.1931,-4.1882,-4.2238,-4.2396,-4.2459,-4.2459,-4.2349,-4.2238,-4.2045,-4.1931,-4.1752,-4.167,-4.167,-4.1752,-4.1833,-4.1882,-4.198,-4.2029,-4.2174,-4.2109,-4.2157,-4.2109,-4.2267,-4.1945,-4.1494,-4.13,-4.1071,-4.0829,-4.0986,-4.1047,-4.0956,-4.0778,-4.0621,-4.032,-4.0054,-3.991,-3.9893,-3.991,-3.9926,-3.9943,-3.9957,-4.0054,-4.0034,-3.9927,-3.9835,-3.9532,-3.9495,-3.9374,-3.9259,-3.911,-3.9061,-3.9061,-3.9115,-3.9115,-3.9115,-3.9131,-3.9222,-3.9487,-3.9713,-3.9935,-4.0205,-4.0238,-4.0288,-4.0387,-4.0436,-4.0485,-4.0534,-4.0631,-4.0745,-4.0793,-4.084,-4.084,-4.084,-4.0888,-4.1,-4.1047,-4.1029,-4.1059,-4.1134,-4.1117,-4.1134,-4.1226,-4.138,-4.1515,-4.1666,-4.1858,-4.1927,-4.1952,-4.2037,-4.2103,-4.2269,-4.2391,-4.2512,-4.2631,-4.2747,-4.2824,-4.2844,-4.2882,-4.2995,-4.305,-4.3123,-4.3322,-4.3479,-4.3548,-4.3597,-4.3701,-4.2601,-4.2365,-4.2302,-4.2109,-4.1851,-4.1769,-4.1638,-4.1522,-4.1456,-4.1406,-4.1288,-4.1303,-4.1538,-4.1769,-4.1769,-4.1704,-4.1573,-4.144,-4.1339,-4.1221,-4.1153,-4.1169,-4.1236,-4.1303,-4.1355,-4.1472,-4.1588,-4.172,-4.172,-4.172,-4.1769,-4.1722,-4.1738,-4.1547,-4.1547,-4.1358,-4.1374,-4.1406,-4.1389,-4.1435,-4.112,-4.0983,-4.0869,-4.0795,-4.0875,-4.0932,-4.0932,-4.1044,-4.1044,-4.1044,-4.0816,-4.0621,-4.0385,-4.0173,-3.9862,-3.9528,-3.943,-3.9219,-3.9088,-3.8974,-3.8991,-3.8909,-3.8893,-3.873,-3.8714,-3.8632,-3.8782,-3.886,-3.9131,-3.9609,-3.9713,-3.9935,-3.9986,-4.0138,-4.0238,-4.0337,-4.0485,-4.0534,-4.0583,-4.0583,-4.0583,-4.0583,-4.0631,-4.0697,-4.0745,-4.0776,-4.0793,-4.0853,-4.0948,-4.0965,-4.0965,-4.1059,-4.1169,-4.1244,-4.1346,-4.1515,-4.1587,-4.1675,-4.1762,-4.1934,-4.2061,-4.2145,-4.2269,-4.2351,-4.2432,-4.2414,-4.2512,-4.2631,-4.2727,-4.2842,-4.3049,-4.3196,-4.3268,-4.3339,-4.341]},{"header":{"parameterUnit":"m.s-1","parameterCategory":1,"la1":31.0,"la2":29.5877,"lo1":-88.7671,"lo2":-86.6584,"dy":0.0162,"dx":0.0185,"nx":115,"ny":88,"refTime":"2023-10-05T12:00:00:Z","depth":0,"parameterNumber":3,"parameterNumberName":"V-component_of_WINDS"},"data":[0.0,0.0,0.0,0.0,0.0,0.0,0.0,0.0,0.0,0.0,0.0,0.0,0.0,0.0,0.0,0.0,0.0,0.0,0.0,0.0,0.0,0.0,0.0,0.0,0.0,0.0,0.0,0.0,0.0,0.0,0.0,0.0,0.0,0.0,0.0,0.0,0.0,0.0,0.0,0.0,0.0,0.0,0.0,0.0,0.0,0.0,0.0,0.0,0.0,0.0,0.0,0.0,0.0,0.0,0.0,0.0,0.0,0.0,0.0,0.0,0.0,0.0,0.0,0.0,0.0,0.0,0.0,0.0,0.0,0.0,0.0,0.0,0.0,0.0,0.0,0.0,0.0,0.0,0.0,0.0,0.0,0.0,0.0,0.0,0.0,0.0,0.0,0.0,0.0,0.0,0.0,0.0,0.0,0.0,0.0,0.0,0.0,0.0,0.0,0.0,0.0,0.0,0.0,0.0,0.0,0.0,0.0,0.0,0.0,0.0,0.0,0.0,0.0,0.0,0.0,0.0,0.0,0.0,0.0,0.0,0.0,0.0,0.0,0.0,0.0,0.0,0.0,0.0,0.0,0.0,0.0,0.0,0.0,0.0,0.0,0.0,0.0,0.0,0.0,0.0,0.0,0.0,0.0,0.0,0.0,0.0,0.0,0.0,0.0,0.0,0.0,0.0,0.0,0.0,0.0,0.0,0.0,0.0,0.0,0.0,0.0,0.0,0.0,0.0,0.0,0.0,0.0,0.0,0.0,0.0,0.0,0.0,0.0,0.0,0.0,0.0,0.0,0.0,0.0,0.0,0.0,0.0,0.0,0.0,0.0,0.0,0.0,0.0,0.0,0.0,0.0,0.0,0.0,0.0,0.0,0.0,0.0,0.0,0.0,0.0,0.0,0.0,0.0,0.0,0.0,0.0,0.0,0.0,0.0,0.0,0.0,0.0,0.0,0.0,0.0,0.0,0.0,0.0,0.0,0.0,0.0,0.0,0.0,0.0,0.0,0.0,0.0,0.0,0.0,0.0,0.0,0.0,0.0,0.0,0.0,0.0,0.0,0.0,0.0,0.0,0.0,0.0,0.0,0.0,0.0,0.0,0.0,0.0,0.0,0.0,0.0,0.0,0.0,0.0,0.0,0.0,0.0,0.0,0.0,0.0,0.0,0.0,0.0,0.0,0.0,0.0,0.0,0.0,0.0,0.0,0.0,0.0,0.0,0.0,0.0,0.0,0.0,0.0,0.0,0.0,0.0,0.0,0.0,0.0,0.0,0.0,0.0,0.0,0.0,0.0,0.0,0.0,0.0,0.0,0.0,0.0,0.0,0.0,0.0,0.0,0.0,0.0,0.0,0.0,0.0,0.0,0.0,0.0,0.0,0.0,0.0,0.0,0.0,0.0,0.0,0.0,0.0,0.0,0.0,0.0,0.0,0.0,0.0,0.0,0.0,0.0,0.0,0.0,0.0,0.0,0.0,0.0,0.0,0.0,0.0,0.0,0.0,0.0,0.0,0.0,0.0,0.0,0.0,0.0,0.0,0.0,0.0,0.0,0.0,0.0,0.0,0.0,0.0,0.0,0.0,0.0,0.0,0.0,0.0,0.0,0.0,0.0,0.0,0.0,0.0,0.0,0.0,0.0,0.0,0.0,0.0,0.0,0.0,0.0,0.0,0.0,0.0,0.0,0.0,0.0,0.0,0.0,0.0,0.0,0.0,0.0,0.0,0.0,0.0,0.0,0.0,0.0,0.0,0.0,0.0,0.0,0.0,0.0,0.0,0.0,0.0,0.0,0.0,0.0,0.0,0.0,0.0,0.0,0.0,0.0,0.0,0.0,0.0,0.0,0.0,0.0,0.0,0.0,0.0,0.0,0.0,0.0,0.0,0.0,0.0,0.0,0.0,0.0,0.0,0.0,0.0,0.0,0.0,0.0,0.0,0.0,0.0,0.0,0.0,0.0,0.0,0.0,0.0,0.0,0.0,0.0,0.0,0.0,0.0,0.0,0.0,0.0,0.0,0.0,0.0,0.0,0.0,0.0,0.0,0.0,0.0,0.0,0.0,0.0,0.0,0.0,0.0,0.0,0.0,0.0,0.0,0.0,0.0,0.0,0.0,0.0,0.0,0.0,0.0,0.0,0.0,0.0,0.0,0.0,0.0,0.0,0.0,0.0,0.0,0.0,0.0,0.0,0.0,0.0,0.0,0.0,0.0,0.0,0.0,0.0,0.0,0.0,0.0,0.0,0.0,0.0,0.0,0.0,0.0,0.0,0.0,0.0,0.0,0.0,0.0,0.0,0.0,0.0,0.0,0.0,0.0,0.0,0.0,0.0,0.0,0.0,0.0,0.0,0.0,0.0,0.0,0.0,0.0,0.0,0.0,0.0,0.0,0.0,0.0,0.0,0.0,0.0,0.0,0.0,0.0,0.0,0.0,0.0,0.0,0.0,0.0,0.0,0.0,0.0,0.0,0.0,0.0,0.0,0.0,0.0,0.0,0.0,0.0,0.0,0.0,0.0,0.0,0.0,0.0,0.0,0.0,0.0,0.0,0.0,0.0,0.0,0.0,0.0,0.0,0.0,0.0,0.0,0.0,0.0,0.0,0.0,0.0,0.0,0.0,0.0,0.0,0.0,0.0,0.0,0.0,0.0,0.0,0.0,0.0,0.0,0.0,0.0,0.0,0.0,0.0,0.0,0.0,0.0,0.0,0.0,0.0,0.0,0.0,0.0,0.0,0.0,0.0,0.0,0.0,0.0,0.0,0.0,0.0,0.0,0.0,0.0,0.0,0.0,0.0,0.0,0.0,0.0,0.0,0.0,0.0,0.0,0.0,0.0,0.0,0.0,0.0,0.0,0.0,0.0,0.0,0.0,0.0,0.0,0.0,0.0,0.0,0.0,0.0,0.0,0.0,0.0,0.0,0.0,0.0,0.0,0.0,0.0,0.0,0.0,0.0,0.0,0.0,0.0,0.0,0.0,0.0,0.0,0.0,0.0,0.0,0.0,0.0,0.0,0.0,0.0,0.0,0.0,0.0,0.0,0.0,0.0,0.0,0.0,0.0,0.0,0.0,0.0,0.0,0.0,0.0,0.0,0.0,0.0,0.0,0.0,0.0,0.0,0.0,0.0,0.0,0.0,0.0,0.0,0.0,0.0,0.0,0.0,0.0,0.0,0.0,0.0,0.0,0.0,0.0,0.0,0.0,0.0,0.0,0.0,0.0,0.0,0.0,0.0,0.0,0.0,0.0,0.0,0.0,0.0,0.0,0.0,0.0,0.0,0.0,0.0,0.0,0.0,0.0,0.0,0.0,0.0,0.0,0.0,0.0,0.0,0.0,0.0,0.0,0.0,0.0,0.0,0.0,0.0,0.0,0.0,0.0,0.0,0.0,0.0,0.0,0.0,0.0,0.0,0.0,0.0,0.0,0.0,0.0,0.0,0.0,0.0,0.0,0.0,0.0,0.0,0.0,0.0,0.0,0.0,0.0,0.0,0.0,0.0,0.0,0.0,0.0,0.0,0.0,0.0,0.0,0.0,0.0,0.0,0.0,0.0,0.0,0.0,0.0,0.0,0.0,0.0,0.0,0.0,0.0,0.0,0.0,0.0,0.0,0.0,0.0,0.0,0.0,0.0,0.0,0.0,0.0,0.0,0.0,0.0,0.0,0.0,0.0,0.0,0.0,0.0,0.0,0.0,0.0,0.0,0.0,0.0,0.0,0.0,0.0,0.0,0.0,0.0,0.0,0.0,0.0,0.0,0.0,0.0,0.0,0.0,0.0,0.0,0.0,0.0,0.0,0.0,0.0,0.0,0.0,0.0,0.0,0.0,0.0,0.0,0.0,0.0,0.0,0.0,0.0,0.0,0.0,0.0,0.0,0.0,0.0,0.0,0.0,0.0,0.0,0.0,0.0,0.0,0.0,0.0,0.0,0.0,0.0,0.0,0.0,0.0,0.0,0.0,0.0,0.0,0.0,0.0,0.0,0.0,0.0,0.0,0.0,0.0,0.0,0.0,0.0,0.0,0.0,0.0,0.0,0.0,0.0,0.0,0.0,0.0,0.0,0.0,0.0,0.0,0.0,0.0,0.0,0.0,0.0,0.0,0.0,0.0,0.0,0.0,0.0,0.0,0.0,0.0,0.0,0.0,0.0,0.0,0.0,0.0,0.0,0.0,0.0,0.0,0.0,0.0,0.0,0.0,0.0,0.0,0.0,0.0,0.0,0.0,0.0,0.0,0.0,0.0,0.0,0.0,0.0,0.0,0.0,0.0,0.0,0.0,0.0,0.0,-1.707,0.0,0.0,0.0,0.0,0.0,0.0,0.0,0.0,0.0,0.0,0.0,0.0,0.0,0.0,0.0,0.0,0.0,0.0,0.0,0.0,0.0,0.0,0.0,0.0,0.0,0.0,0.0,0.0,0.0,0.0,0.0,0.0,0.0,0.0,0.0,0.0,0.0,0.0,0.0,0.0,0.0,0.0,0.0,0.0,0.0,0.0,0.0,0.0,0.0,0.0,0.0,0.0,0.0,0.0,0.0,0.0,0.0,0.0,0.0,0.0,0.0,0.0,0.0,0.0,0.0,0.0,0.0,0.0,0.0,0.0,0.0,0.0,0.0,0.0,0.0,0.0,0.0,0.0,0.0,0.0,0.0,0.0,0.0,0.0,0.0,0.0,0.0,0.0,0.0,0.0,0.0,0.0,0.0,0.0,0.0,0.0,0.0,0.0,0.0,0.0,0.0,0.0,0.0,0.0,0.0,0.0,0.0,0.0,0.0,0.0,-1.8896,-1.8676,-1.8293,-1.8001,-1.771,0.0,0.0,0.0,0.0,0.0,0.0,0.0,0.0,0.0,0.0,0.0,0.0,0.0,0.0,0.0,0.0,0.0,0.0,0.0,0.0,0.0,0.0,0.0,0.0,0.0,0.0,0.0,0.0,0.0,0.0,0.0,0.0,0.0,0.0,0.0,0.0,0.0,0.0,0.0,0.0,0.0,0.0,0.0,0.0,0.0,0.0,0.0,0.0,0.0,0.0,0.0,0.0,0.0,0.0,0.0,0.0,0.0,0.0,0.0,0.0,0.0,0.0,0.0,0.0,0.0,0.0,0.0,0.0,0.0,0.0,0.0,0.0,0.0,0.0,0.0,0.0,0.0,0.0,0.0,0.0,0.0,0.0,0.0,0.0,0.0,0.0,0.0,0.0,0.0,0.0,0.0,0.0,0.0,0.0,0.0,0.0,0.0,0.0,0.0,0.0,0.0,0.0,0.0,0.0,0.0,0.0,0.0,0.0,0.0,0.0,0.0,0.0,-1.879,-1.8381,-1.7883,0.0,0.0,0.0,0.0,0.0,0.0,0.0,0.0,0.0,0.0,0.0,0.0,0.0,0.0,0.0,0.0,0.0,0.0,0.0,0.0,0.0,0.0,0.0,0.0,0.0,0.0,0.0,0.0,0.0,0.0,0.0,0.0,0.0,0.0,0.0,0.0,0.0,0.0,0.0,0.0,0.0,0.0,0.0,0.0,0.0,0.0,0.0,0.0,0.0,0.0,0.0,0.0,0.0,0.0,0.0,0.0,0.0,0.0,0.0,0.0,0.0,0.0,0.0,0.0,0.0,0.0,0.0,0.0,0.0,0.0,0.0,0.0,0.0,0.0,0.0,0.0,0.0,0.0,0.0,0.0,0.0,0.0,0.0,0.0,0.0,0.0,0.0,0.0,0.0,0.0,0.0,0.0,0.0,0.0,0.0,0.0,0.0,0.0,0.0,0.0,0.0,0.0,0.0,0.0,0.0,0.0,0.0,0.0,0.0,0.0,-2.0102,-1.9899,-1.967,0.0,-1.7681,0.0,0.0,0.0,0.0,0.0,0.0,0.0,0.0,0.0,0.0,0.0,0.0,0.0,0.0,0.0,0.0,0.0,0.0,0.0,0.0,0.0,0.0,0.0,0.0,0.0,0.0,0.0,0.0,0.0,0.0,0.0,0.0,0.0,0.0,0.0,0.0,0.0,0.0,0.0,0.0,0.0,0.0,0.0,0.0,0.0,0.0,0.0,0.0,0.0,0.0,0.0,0.0,0.0,0.0,0.0,0.0,0.0,0.0,0.0,0.0,0.0,0.0,0.0,0.0,0.0,0.0,0.0,0.0,0.0,0.0,0.0,0.0,0.0,0.0,0.0,0.0,0.0,0.0,0.0,0.0,0.0,0.0,0.0,0.0,0.0,0.0,0.0,0.0,0.0,0.0,0.0,0.0,0.0,0.0,0.0,0.0,0.0,0.0,0.0,0.0,0.0,0.0,0.0,0.0,0.0,0.0,0.0,0.0,0.0,0.0,-2.0314,-2.0586,-1.9815,-1.9001,0.0,0.0,0.0,0.0,0.0,0.0,0.0,0.0,0.0,0.0,0.0,0.0,0.0,0.0,0.0,0.0,0.0,0.0,0.0,0.0,0.0,0.0,0.0,0.0,0.0,0.0,0.0,0.0,0.0,0.0,0.0,0.0,0.0,0.0,0.0,0.0,0.0,0.0,0.0,0.0,0.0,0.0,0.0,0.0,0.0,0.0,0.0,0.0,0.0,0.0,0.0,0.0,0.0,0.0,0.0,0.0,0.0,0.0,0.0,0.0,0.0,0.0,0.0,0.0,0.0,0.0,0.0,0.0,0.0,0.0,0.0,0.0,0.0,0.0,0.0,0.0,0.0,0.0,0.0,0.0,0.0,0.0,0.0,0.0,0.0,0.0,0.0,0.0,0.0,0.0,0.0,0.0,0.0,0.0,0.0,0.0,0.0,0.0,0.0,0.0,0.0,0.0,0.0,0.0,0.0,0.0,0.0,0.0,0.0,0.0,-2.0473,-2.0835,-2.1057,-1.9993,-1.9089,-1.8434,0.0,0.0,0.0,0.0,0.0,0.0,0.0,0.0,0.0,0.0,0.0,0.0,0.0,0.0,0.0,0.0,0.0,0.0,0.0,0.0,0.0,0.0,0.0,0.0,0.0,0.0,0.0,0.0,0.0,0.0,0.0,0.0,0.0,0.0,0.0,0.0,0.0,0.0,0.0,0.0,0.0,0.0,0.0,0.0,0.0,0.0,0.0,0.0,0.0,0.0,0.0,0.0,0.0,0.0,0.0,0.0,0.0,0.0,0.0,0.0,0.0,0.0,0.0,0.0,0.0,0.0,0.0,0.0,0.0,0.0,0.0,0.0,0.0,0.0,0.0,0.0,0.0,0.0,0.0,0.0,0.0,0.0,0.0,0.0,0.0,0.0,0.0,0.0,0.0,0.0,0.0,0.0,0.0,0.0,0.0,0.0,0.0,0.0,0.0,0.0,0.0,0.0,0.0,0.0,0.0,0.0,0.0,0.0,-1.9868,-2.1306,-2.1907,-2.1468,-2.0425,-1.9334,0.0,0.0,0.0,0.0,0.0,0.0,0.0,0.0,0.0,0.0,0.0,0.0,0.0,0.0,0.0,0.0,0.0,0.0,0.0,0.0,0.0,0.0,0.0,0.0,0.0,0.0,0.0,0.0,0.0,0.0,0.0,0.0,0.0,0.0,0.0,0.0,0.0,0.0,0.0,0.0,0.0,0.0,0.0,0.0,0.0,0.0,0.0,0.0,0.0,0.0,0.0,0.0,0.0,0.0,0.0,0.0,0.0,0.0,0.0,0.0,0.0,0.0,0.0,0.0,0.0,0.0,0.0,0.0,0.0,0.0,0.0,0.0,0.0,0.0,0.0,0.0,0.0,0.0,0.0,0.0,0.0,0.0,0.0,0.0,0.0,0.0,0.0,0.0,0.0,0.0,0.0,0.0,0.0,0.0,0.0,0.0,0.0,0.0,0.0,0.0,0.0,0.0,0.0,0.0,0.0,0.0,0.0,0.0,0.0,-2.0402,-2.1625,-2.2055,-2.1614,-2.0626,-1.9581,0.0,0.0,0.0,0.0,0.0,0.0,0.0,0.0,0.0,0.0,0.0,0.0,0.0,0.0,0.0,0.0,0.0,0.0,0.0,0.0,0.0,0.0,0.0,0.0,0.0,0.0,0.0,0.0,0.0,0.0,0.0,0.0,0.0,0.0,0.0,0.0,0.0,0.0,0.0,0.0,0.0,0.0,0.0,0.0,0.0,0.0,0.0,0.0,0.0,0.0,0.0,0.0,0.0,0.0,0.0,0.0,0.0,0.0,0.0,0.0,0.0,0.0,0.0,0.0,0.0,0.0,0.0,0.0,0.0,0.0,0.0,0.0,0.0,0.0,0.0,0.0,0.0,0.0,0.0,0.0,0.0,0.0,0.0,0.0,0.0,0.0,0.0,0.0,0.0,0.0,0.0,0.0,0.0,0.0,0.0,0.0,0.0,0.0,0.0,0.0,0.0,0.0,0.0,0.0,0.0,0.0,0.0,0.0,0.0,-2.1361,0.0,-2.1999,-2.1614,-2.0607,-1.9547,0.0,0.0,0.0,0.0,0.0,0.0,0.0,0.0,0.0,0.0,0.0,0.0,0.0,0.0,0.0,0.0,0.0,0.0,0.0,0.0,0.0,0.0,0.0,0.0,0.0,0.0,0.0,0.0,0.0,0.0,0.0,0.0,0.0,0.0,0.0,0.0,0.0,0.0,0.0,0.0,0.0,0.0,0.0,0.0,0.0,0.0,0.0,0.0,0.0,0.0,0.0,0.0,0.0,0.0,0.0,0.0,0.0,0.0,0.0,0.0,0.0,0.0,0.0,0.0,0.0,0.0,0.0,0.0,0.0,0.0,0.0,0.0,0.0,0.0,0.0,0.0,0.0,0.0,0.0,0.0,0.0,0.0,0.0,0.0,0.0,0.0,0.0,0.0,0.0,0.0,0.0,0.0,0.0,0.0,0.0,0.0,0.0,0.0,0.0,0.0,0.0,0.0,0.0,0.0,0.0,0.0,0.0,0.0,-2.1155,-2.2642,-2.2182,-2.1761,-2.1455,-2.0391,-1.9135,0.0,0.0,0.0,0.0,0.0,0.0,0.0,0.0,0.0,0.0,0.0,0.0,0.0,0.0,0.0,0.0,0.0,0.0,0.0,0.0,0.0,0.0,0.0,0.0,0.0,0.0,0.0,0.0,0.0,0.0,0.0,0.0,0.0,0.0,0.0,0.0,0.0,0.0,0.0,0.0,0.0,0.0,0.0,0.0,0.0,0.0,0.0,0.0,0.0,0.0,0.0,0.0,0.0,0.0,0.0,0.0,0.0,0.0,0.0,0.0,0.0,0.0,0.0,0.0,0.0,0.0,0.0,0.0,0.0,0.0,0.0,0.0,0.0,0.0,0.0,0.0,0.0,0.0,0.0,0.0,0.0,0.0,0.0,0.0,0.0,0.0,0.0,0.0,0.0,0.0,0.0,0.0,0.0,0.0,0.0,0.0,0.0,0.0,0.0,0.0,0.0,0.0,0.0,0.0,0.0,0.0,0.0,0.0,0.0,-2.165,-2.1636,-2.137,-2.0803,-1.9893,-1.8784,0.0,0.0,0.0,0.0,0.0,0.0,0.0,0.0,0.0,0.0,0.0,0.0,0.0,0.0,0.0,0.0,0.0,0.0,0.0,0.0,0.0,0.0,0.0,0.0,0.0,0.0,0.0,0.0,0.0,0.0,0.0,0.0,0.0,0.0,0.0,0.0,0.0,0.0,0.0,0.0,0.0,0.0,0.0,0.0,0.0,0.0,0.0,0.0,0.0,0.0,0.0,0.0,0.0,0.0,0.0,0.0,0.0,0.0,0.0,0.0,0.0,0.0,0.0,0.0,0.0,0.0,0.0,0.0,0.0,0.0,0.0,0.0,0.0,0.0,0.0,0.0,0.0,0.0,0.0,0.0,0.0,0.0,0.0,0.0,0.0,0.0,0.0,0.0,0.0,0.0,0.0,0.0,0.0,0.0,0.0,0.0,0.0,0.0,0.0,0.0,0.0,0.0,0.0,0.0,0.0,0.0,0.0,0.0,0.0,-2.0552,-2.0754,-2.0527,-1.9915,-1.9121,-1.816,-1.693,0.0,0.0,0.0,0.0,0.0,0.0,0.0,0.0,0.0,0.0,0.0,0.0,0.0,0.0,0.0,0.0,0.0,0.0,0.0,0.0,0.0,0.0,0.0,0.0,0.0,0.0,0.0,0.0,0.0,0.0,0.0,0.0,0.0,0.0,0.0,0.0,0.0,0.0,0.0,0.0,0.0,0.0,0.0,0.0,0.0,0.0,0.0,0.0,0.0,0.0,0.0,0.0,0.0,0.0,0.0,0.0,0.0,0.0,0.0,0.0,0.0,0.0,0.0,0.0,0.0,0.0,0.0,0.0,0.0,0.0,0.0,0.0,0.0,0.0,0.0,0.0,0.0,0.0,0.0,0.0,0.0,0.0,0.0,0.0,0.0,0.0,0.0,0.0,0.0,0.0,0.0,0.0,0.0,0.0,0.0,0.0,0.0,0.0,0.0,0.0,0.0,0.0,0.0,0.0,0.0,0.0,0.0,0.0,-1.9263,-1.953,-1.9397,-1.8833,-1.8202,-1.7316,0.0,0.0,0.0,0.0,0.0,0.0,0.0,0.0,0.0,0.0,0.0,0.0,0.0,0.0,0.0,0.0,0.0,0.0,0.0,0.0,0.0,0.0,0.0,0.0,0.0,0.0,0.0,0.0,0.0,0.0,0.0,0.0,0.0,0.0,0.0,0.0,0.0,0.0,0.0,0.0,0.0,0.0,0.0,0.0,0.0,0.0,0.0,0.0,0.0,0.0,0.0,0.0,0.0,0.0,0.0,0.0,0.0,0.0,0.0,0.0,0.0,0.0,0.0,0.0,0.0,0.0,0.0,0.0,0.0,0.0,0.0,0.0,0.0,0.0,0.0,0.0,0.0,0.0,0.0,0.0,0.0,0.0,0.0,0.0,0.0,0.0,0.0,0.0,0.0,0.0,0.0,0.0,0.0,0.0,0.0,0.0,0.0,0.0,0.0,0.0,0.0,0.0,0.0,0.0,0.0,0.0,0.0,0.0,0.0,-1.7759,-1.7696,-1.777,-1.7991,-1.7366,-1.6465,0.0,0.0,0.0,0.0,0.0,0.0,0.0,0.0,0.0,0.0,0.0,0.0,0.0,0.0,0.0,0.0,0.0,0.0,0.0,0.0,0.0,0.0,0.0,0.0,0.0,0.0,0.0,0.0,0.0,0.0,0.0,0.0,0.0,0.0,0.0,0.0,0.0,0.0,0.0,0.0,0.0,0.0,0.0,0.0,0.0,0.0,0.0,0.0,0.0,0.0,0.0,0.0,0.0,0.0,0.0,0.0,0.0,0.0,0.0,0.0,0.0,0.0,0.0,0.0,0.0,0.0,0.0,0.0,0.0,0.0,0.0,0.0,0.0,0.0,0.0,0.0,0.0,0.0,0.0,0.0,0.0,0.0,0.0,0.0,0.0,0.0,0.0,0.0,0.0,0.0,0.0,0.0,0.0,0.0,0.0,0.0,0.0,0.0,0.0,0.0,0.0,0.0,0.0,0.0,0.0,0.0,0.0,0.0,-1.7733,-1.6815,-1.6389,-1.6239,-1.6162,-1.5851,-1.5215,0.0,0.0,0.0,0.0,0.0,0.0,0.0,0.0,0.0,0.0,0.0,0.0,0.0,0.0,0.0,0.0,0.0,0.0,0.0,0.0,0.0,0.0,0.0,0.0,0.0,0.0,0.0,0.0,0.0,0.0,0.0,0.0,0.0,0.0,0.0,0.0,0.0,0.0,0.0,0.0,0.0,0.0,0.0,0.0,0.0,0.0,0.0,0.0,0.0,0.0,0.0,0.0,0.0,0.0,0.0,0.0,0.0,0.0,0.0,0.0,0.0,0.0,0.0,0.0,0.0,0.0,0.0,0.0,0.0,0.0,0.0,0.0,0.0,0.0,0.0,0.0,0.0,0.0,0.0,0.0,0.0,0.0,0.0,0.0,0.0,0.0,0.0,0.0,0.0,0.0,0.0,0.0,0.0,0.0,0.0,0.0,0.0,0.0,0.0,0.0,0.0,0.0,0.0,0.0,0.0,0.0,0.0,0.0,-1.6937,-1.6277,-1.5526,-1.4728,-1.3947,-1.4035,-1.3875,0.0,0.0,0.0,0.0,0.0,0.0,0.0,0.0,0.0,0.0,0.0,0.0,0.0,0.0,0.0,0.0,0.0,0.0,0.0,0.0,0.0,0.0,0.0,0.0,0.0,0.0,0.0,0.0,0.0,0.0,0.0,0.0,0.0,0.0,0.0,0.0,0.0,0.0,0.0,0.0,0.0,0.0,0.0,0.0,0.0,0.0,0.0,0.0,0.0,0.0,0.0,0.0,0.0,0.0,0.0,0.0,0.0,0.0,0.0,0.0,0.0,0.0,0.0,0.0,0.0,0.0,0.0,0.0,0.0,0.0,0.0,0.0,0.0,0.0,0.0,0.0,0.0,0.0,0.0,0.0,0.0,0.0,0.0,0.0,0.0,0.0,0.0,0.0,0.0,0.0,0.0,0.0,0.0,0.0,0.0,0.0,0.0,0.0,0.0,0.0,0.0,0.0,0.0,0.0,0.0,0.0,0.0,0.0,-1.6135,-1.5267,-1.4563,-1.3805,-1.2783,-1.3207,-1.3137,0.0,0.0,0.0,0.0,0.0,0.0,0.0,0.0,0.0,0.0,0.0,0.0,0.0,0.0,0.0,0.0,0.0,0.0,0.0,0.0,0.0,0.0,0.0,0.0,0.0,0.0,0.0,0.0,0.0,0.0,0.0,0.0,0.0,0.0,0.0,0.0,0.0,0.0,0.0,0.0,0.0,0.0,0.0,0.0,0.0,0.0,0.0,0.0,-1.8163,0.0,0.0,0.0,0.0,0.0,0.0,0.0,0.0,0.0,0.0,0.0,0.0,0.0,0.0,0.0,0.0,0.0,0.0,0.0,0.0,0.0,0.0,0.0,0.0,0.0,0.0,0.0,0.0,0.0,0.0,0.0,0.0,0.0,0.0,0.0,0.0,0.0,0.0,0.0,0.0,0.0,0.0,0.0,0.0,0.0,0.0,0.0,0.0,0.0,0.0,0.0,0.0,0.0,0.0,0.0,0.0,0.0,0.0,0.0,-1.5332,-1.4131,-1.3613,-1.2947,-1.2136,-1.1915,-1.171,0.0,0.0,0.0,0.0,0.0,0.0,0.0,0.0,0.0,0.0,0.0,0.0,0.0,0.0,0.0,0.0,0.0,0.0,0.0,0.0,0.0,0.0,0.0,0.0,0.0,0.0,0.0,0.0,0.0,0.0,0.0,0.0,0.0,0.0,0.0,0.0,0.0,0.0,0.0,0.0,0.0,0.0,0.0,0.0,0.0,0.0,0.0,0.0,0.0,0.0,0.0,0.0,0.0,0.0,0.0,0.0,0.0,0.0,0.0,0.0,0.0,0.0,0.0,0.0,0.0,0.0,0.0,0.0,0.0,0.0,0.0,0.0,0.0,0.0,0.0,0.0,0.0,0.0,0.0,0.0,0.0,0.0,0.0,0.0,0.0,0.0,0.0,0.0,0.0,0.0,0.0,0.0,0.0,0.0,0.0,0.0,0.0,0.0,0.0,0.0,0.0,0.0,0.0,0.0,0.0,0.0,0.0,-1.5093,-1.4524,-1.3184,-1.2707,-1.2157,-1.1552,-1.0669,-1.0232,-1.0431,0.0,0.0,0.0,0.0,0.0,0.0,0.0,0.0,0.0,0.0,0.0,0.0,0.0,0.0,0.0,0.0,0.0,0.0,0.0,0.0,0.0,0.0,0.0,0.0,0.0,0.0,0.0,0.0,0.0,0.0,0.0,0.0,0.0,0.0,0.0,0.0,0.0,0.0,-1.4919,-1.6298,0.0,0.0,0.0,0.0,0.0,0.0,0.0,0.0,-1.9786,0.0,0.0,0.0,0.0,0.0,0.0,0.0,0.0,0.0,0.0,0.0,0.0,0.0,0.0,0.0,0.0,0.0,0.0,0.0,0.0,0.0,0.0,0.0,0.0,0.0,0.0,0.0,0.0,0.0,0.0,0.0,0.0,0.0,0.0,0.0,0.0,0.0,0.0,0.0,0.0,0.0,0.0,0.0,0.0,0.0,0.0,0.0,0.0,0.0,0.0,0.0,0.0,0.0,0.0,0.0,0.0,-1.4251,-1.4329,-1.3826,-1.2714,-1.2134,-1.1558,-1.095,-1.0099,-0.9502,-0.9209,0.0,0.0,0.0,0.0,0.0,0.0,0.0,0.0,0.0,0.0,0.0,0.0,0.0,0.0,0.0,0.0,0.0,0.0,0.0,0.0,0.0,0.0,0.0,0.0,0.0,0.0,0.0,0.0,0.0,0.0,0.0,0.0,0.0,0.0,0.0,0.0,0.0,0.0,0.0,-1.6908,-1.7512,0.0,0.0,0.0,0.0,0.0,0.0,0.0,0.0,-1.9444,0.0,0.0,0.0,0.0,0.0,0.0,0.0,0.0,0.0,0.0,0.0,0.0,0.0,0.0,0.0,0.0,0.0,0.0,0.0,0.0,0.0,0.0,0.0,0.0,0.0,0.0,0.0,0.0,0.0,0.0,0.0,0.0,0.0,0.0,0.0,0.0,0.0,0.0,0.0,0.0,0.0,0.0,0.0,0.0,0.0,0.0,0.0,0.0,0.0,0.0,0.0,0.0,0.0,0.0,0.0,-1.3821,-1.368,-1.3171,-1.2207,-1.1484,-1.0812,-1.0207,-0.9387,-0.878,0.0,0.0,0.0,0.0,0.0,0.0,0.0,0.0,0.0,0.0,0.0,0.0,0.0,0.0,0.0,0.0,0.0,0.0,0.0,0.0,0.0,0.0,0.0,0.0,0.0,0.0,0.0,0.0,0.0,0.0,0.0,0.0,0.0,0.0,0.0,0.0,0.0,0.0,0.0,0.0,-1.7593,-1.7894,-1.8258,0.0,0.0,0.0,0.0,0.0,0.0,-1.9555,-1.9524,0.0,0.0,0.0,0.0,0.0,0.0,0.0,0.0,0.0,0.0,0.0,0.0,0.0,0.0,0.0,0.0,0.0,0.0,0.0,0.0,0.0,0.0,0.0,0.0,0.0,0.0,0.0,0.0,0.0,0.0,0.0,0.0,0.0,0.0,0.0,0.0,0.0,0.0,0.0,0.0,0.0,0.0,0.0,0.0,0.0,0.0,0.0,0.0,0.0,0.0,0.0,0.0,0.0,0.0,0.0,-1.3226,-1.3004,-1.2431,-1.1566,-1.0751,-1.0067,-0.9382,-0.8602,-0.8098,0.0,0.0,0.0,0.0,0.0,0.0,0.0,0.0,0.0,0.0,0.0,0.0,0.0,0.0,0.0,0.0,0.0,0.0,0.0,0.0,0.0,0.0,0.0,0.0,0.0,0.0,0.0,0.0,0.0,0.0,0.0,0.0,0.0,0.0,0.0,0.0,0.0,0.0,0.0,0.0,0.0,-1.8184,-1.8386,-1.8553,0.0,0.0,0.0,0.0,-1.9804,-1.9587,0.0,0.0,0.0,0.0,0.0,0.0,0.0,0.0,0.0,0.0,0.0,0.0,0.0,0.0,0.0,0.0,0.0,0.0,0.0,0.0,0.0,0.0,0.0,0.0,0.0,0.0,0.0,0.0,0.0,0.0,0.0,0.0,0.0,0.0,0.0,0.0,0.0,0.0,0.0,0.0,0.0,0.0,0.0,0.0,0.0,0.0,0.0,0.0,0.0,0.0,0.0,0.0,0.0,0.0,0.0,0.0,-1.2272,-1.225,-1.1757,-1.0779,-1.0239,-0.9539,-0.8551,-0.8006,-0.7471,0.0,0.0,0.0,0.0,0.0,0.0,0.0,0.0,0.0,0.0,0.0,0.0,0.0,0.0,0.0,0.0,0.0,0.0,0.0,0.0,0.0,0.0,0.0,0.0,0.0,0.0,0.0,0.0,0.0,0.0,0.0,0.0,0.0,0.0,0.0,0.0,0.0,0.0,0.0,0.0,0.0,-1.7774,-1.7783,-1.8074,-1.8299,0.0,0.0,-1.9037,-1.9412,-1.9335,0.0,0.0,0.0,0.0,0.0,0.0,0.0,0.0,0.0,0.0,0.0,0.0,0.0,0.0,0.0,0.0,0.0,0.0,0.0,0.0,0.0,0.0,0.0,0.0,0.0,0.0,0.0,0.0,0.0,0.0,0.0,0.0,0.0,0.0,0.0,0.0,0.0,0.0,0.0,0.0,0.0,0.0,0.0,0.0,0.0,0.0,0.0,0.0,0.0,0.0,0.0,0.0,0.0,0.0,0.0,-1.2167,-1.1594,-1.1279,-1.0852,-1.0154,-0.9316,-0.8521,-0.7861,-0.7106,-0.6612,0.0,0.0,0.0,0.0,0.0,0.0,0.0,0.0,0.0,0.0,0.0,0.0,0.0,0.0,0.0,0.0,0.0,0.0,0.0,0.0,0.0,0.0,0.0,0.0,0.0,0.0,0.0,0.0,0.0,0.0,0.0,0.0,0.0,0.0,0.0,0.0,0.0,0.0,0.0,0.0,0.0,0.0,-1.7013,-1.693,0.0,0.0,0.0,-1.7195,-1.7612,0.0,0.0,0.0,0.0,0.0,0.0,0.0,0.0,0.0,0.0,0.0,0.0,0.0,0.0,0.0,0.0,0.0,0.0,0.0,0.0,0.0,0.0,0.0,0.0,0.0,0.0,0.0,0.0,0.0,0.0,0.0,0.0,0.0,0.0,0.0,0.0,0.0,0.0,0.0,0.0,0.0,0.0,0.0,0.0,0.0,0.0,0.0,0.0,0.0,0.0,0.0,0.0,0.0,0.0,0.0,0.0,0.0,-1.0862,-1.0319,-0.9813,-0.9365,-0.8302,-0.7602,-0.7012,-0.6252,0.0,0.0,0.0,0.0,0.0,0.0,0.0,0.0,0.0,0.0,0.0,0.0,0.0,0.0,0.0,0.0,0.0,0.0,0.0,0.0,0.0,0.0,0.0,0.0,0.0,0.0,0.0,-1.0677,0.0,0.0,0.0,0.0,0.0,0.0,0.0,0.0,0.0,0.0,0.0,0.0,0.0,0.0,-1.6763,-1.6218,-1.5913,-1.5754,0.0,0.0,-1.5892,-1.6233,-1.6546,-1.6956,0.0,0.0,0.0,0.0,0.0,0.0,0.0,0.0,0.0,0.0,0.0,0.0,0.0,0.0,0.0,0.0,0.0,0.0,0.0,0.0,0.0,0.0,0.0,0.0,0.0,0.0,0.0,0.0,0.0,0.0,0.0,0.0,0.0,0.0,0.0,0.0,0.0,0.0,0.0,0.0,0.0,0.0,0.0,0.0,0.0,0.0,0.0,0.0,0.0,0.0,0.0,0.0,0.0,0.0,-0.9933,-0.9988,-0.9273,-0.867,-0.8119,-0.7418,-0.6697,-0.5907,-0.5523,-0.5196,0.0,0.0,0.0,0.0,0.0,0.0,0.0,0.0,0.0,0.0,0.0,0.0,0.0,0.0,0.0,0.0,0.0,0.0,0.0,0.0,0.0,0.0,0.0,0.0,0.0,0.0,0.0,0.0,0.0,0.0,0.0,0.0,0.0,0.0,0.0,0.0,0.0,0.0,0.0,0.0,0.0,-1.6374,-1.5575,-1.5468,-1.5491,0.0,-1.5603,-1.5801,-1.621,-1.6068,-1.6252,-1.7342,0.0,0.0,0.0,0.0,0.0,0.0,0.0,0.0,0.0,0.0,0.0,0.0,0.0,0.0,0.0,0.0,0.0,0.0,0.0,0.0,0.0,0.0,0.0,0.0,0.0,0.0,0.0,0.0,0.0,0.0,0.0,0.0,0.0,0.0,0.0,0.0,0.0,0.0,0.0,0.0,0.0,0.0,0.0,0.0,0.0,0.0,0.0,0.0,0.0,0.0,0.0,0.0,0.0,-0.879,-0.855,-0.7934,-0.743,-0.6905,-0.6109,-0.5539,-0.5133,-0.4554,-0.4268,0.0,0.0,0.0,0.0,0.0,0.0,0.0,0.0,0.0,0.0,0.0,0.0,0.0,0.0,0.0,0.0,0.0,0.0,0.0,0.0,0.0,0.0,0.0,0.0,0.0,0.0,0.0,0.0,-1.0843,-1.1676,-1.2908,0.0,0.0,0.0,0.0,0.0,0.0,0.0,0.0,0.0,0.0,-1.4955,-1.4387,-1.4093,0.0,0.0,-1.3983,-1.4131,-1.4638,-1.4622,-1.4902,-1.5678,-1.6256,0.0,0.0,0.0,0.0,0.0,0.0,0.0,0.0,0.0,0.0,0.0,0.0,0.0,0.0,0.0,0.0,0.0,0.0,0.0,0.0,0.0,0.0,0.0,0.0,0.0,0.0,0.0,0.0,0.0,0.0,0.0,0.0,0.0,0.0,0.0,0.0,0.0,0.0,0.0,0.0,0.0,0.0,0.0,0.0,0.0,0.0,0.0,0.0,0.0,0.0,0.0,0.0,-0.7726,-0.7358,-0.673,-0.6271,-0.5936,-0.5058,-0.4489,-0.432,-0.3761,-0.3446,0.0,0.0,0.0,0.0,0.0,0.0,0.0,0.0,0.0,0.0,0.0,0.0,0.0,0.0,0.0,0.0,0.0,0.0,0.0,0.0,0.0,0.0,0.0,0.0,0.0,0.0,0.0,0.0,-1.0373,-1.1288,-1.2404,0.0,0.0,0.0,0.0,0.0,0.0,0.0,0.0,0.0,0.0,-1.3755,-1.3194,-1.2796,-1.2575,-1.2745,-1.2713,-1.2858,-1.3401,-1.3568,-1.3888,-1.4489,0.0,0.0,0.0,0.0,0.0,0.0,0.0,0.0,0.0,0.0,0.0,0.0,0.0,0.0,0.0,0.0,0.0,0.0,0.0,0.0,0.0,0.0,0.0,0.0,0.0,0.0,0.0,0.2851,0.0,0.0,0.1252,0.0,0.0,0.0,0.0,0.0,0.0,0.0,0.0,0.0,0.0,0.0,0.0,0.0,0.0,0.0,0.0,0.0,0.0,0.0,0.0,0.0,0.0,-0.6634,-0.6497,-0.5773,-0.5272,-0.5022,-0.4195,-0.3639,-0.3467,-0.2974,-0.2713,-0.2741,0.0,0.0,0.0,0.0,0.0,0.0,0.0,0.0,0.0,0.0,0.0,0.0,0.0,0.0,0.0,0.0,0.0,0.0,0.0,0.0,0.0,0.0,0.0,0.0,0.0,0.0,-0.8936,-0.9835,-1.0624,0.0,0.0,0.0,0.0,0.0,0.0,0.0,0.0,0.0,0.0,-1.3219,-1.2758,-1.2122,-1.1759,-1.1657,-1.1931,-1.2198,-1.2418,-1.2858,-1.3027,-1.3384,0.0,0.0,0.0,0.0,0.0,0.0,0.0,0.0,0.0,0.0,0.0,0.0,0.0,0.0,0.0,0.0,0.0,0.0,0.0,0.0,0.0,0.0,0.0,0.0,0.0,0.0,0.0,0.457,0.4197,0.0,0.0,0.0,0.0,0.0,0.0,0.0,0.0,0.0,0.0,0.0,0.1277,0.1095,0.0,0.0,0.0,0.0,0.0,0.0,0.0,0.0,0.0,0.0,0.0,0.0,-0.5695,-0.5362,-0.4878,-0.4392,-0.3859,-0.3393,-0.3083,-0.2782,-0.2243,-0.2006,-0.1806,0.0,0.0,0.0,0.0,0.0,0.0,0.0,0.0,0.0,0.0,0.0,0.0,0.0,0.0,0.0,0.0,0.0,0.0,0.0,0.0,0.0,0.0,0.0,0.0,0.0,-0.7133,0.0,0.0,0.0,0.0,0.0,0.0,0.0,0.0,0.0,0.0,0.0,-1.3114,-1.2122,-1.1755,-1.1294,-1.0761,-1.0498,-1.057,0.0,0.0,0.0,0.0,0.0,0.0,0.0,0.0,0.0,0.0,0.0,0.0,0.0,0.0,-1.4896,-1.6202,-1.6541,-1.6677,-1.6983,0.0,0.0,0.0,0.0,0.0,0.0,0.0,0.0,0.0,0.0,0.0,0.0,0.0,0.0,0.5877,0.0,0.4998,0.0,0.0,0.0,0.0,0.0,0.0,0.0,0.0,0.2117,0.2315,0.2521,0.2341,0.2072,0.0,0.1454,0.0489,0.0,0.0,0.0,0.0,0.0,0.0,0.0,0.0,-0.4853,-0.4477,-0.4053,-0.3569,-0.3147,-0.273,-0.2405,-0.2199,-0.1746,-0.1348,-0.1022,-0.118,-0.1469,0.0,0.0,0.0,0.0,0.0,0.0,0.0,0.0,0.0,0.0,0.0,0.0,0.0,0.0,0.0,0.0,0.0,0.0,0.0,0.0,0.0,0.0,0.0,-0.6437,0.0,0.0,0.0,0.0,0.0,0.0,0.0,0.0,0.0,-1.2335,-1.2166,-1.1579,-1.0738,-1.0473,-1.0109,-0.9532,0.0,0.0,0.0,0.0,0.0,0.0,0.0,-1.0548,-1.0888,-1.0873,-1.0885,-1.1351,-1.1623,-1.1825,-1.1971,0.0,0.0,-1.4197,-1.4574,-1.4676,-1.5072,-1.5172,-1.5212,-1.534,-1.5492,-1.5501,0.0,0.0,0.0,0.0,0.0,0.0,0.0,0.0,0.7611,0.7274,0.0,0.6297,0.0,0.0,0.0,0.0,0.0,0.2926,0.0,0.0,0.3315,0.3548,0.3789,0.3642,0.3454,0.329,0.284,0.2199,0.1356,-0.041,0.0,0.0,0.0,0.0,0.0,0.0,-0.4206,-0.3839,-0.3284,-0.2889,-0.2693,-0.213,-0.1795,-0.1704,-0.1232,-0.076,-0.0317,-0.0393,-0.0526,-0.0612,-0.1077,0.0,0.0,0.0,0.0,0.0,0.0,0.0,0.0,0.0,0.0,0.0,0.0,0.0,0.0,0.0,0.0,0.0,0.0,0.0,0.0,-0.5296,0.0,0.0,0.0,0.0,0.0,0.0,0.0,0.0,0.0,0.0,-1.0218,-1.0579,-1.039,-0.9483,0.0,0.0,0.0,0.0,-0.8408,-0.8627,-0.8851,-0.9074,-0.9442,-0.9518,-0.9513,-0.9513,0.0,0.0,-1.0013,-0.9938,-0.9921,-1.0301,-1.0077,-1.0386,-1.2255,-1.2676,-1.2884,-1.3232,-1.3407,-1.3531,-1.3531,-1.3407,-1.329,1.1363,0.0,0.0,0.0,0.0,0.9308,0.9336,0.9189,0.9108,0.8831,0.8467,0.7969,0.0,0.0,0.0,0.0,0.0,0.0,0.4437,0.4551,0.4356,0.4467,0.4725,0.4482,0.4254,0.4114,0.3846,0.3346,0.2604,0.1639,0.0297,-0.1478,0.0,0.0,0.0,0.0,-0.3037,-0.2832,-0.267,-0.2417,-0.1998,-0.1863,-0.1525,-0.1076,-0.088,-0.0518,0.0169,0.0,-0.0155,-0.0075,-0.0491,0.0,0.0,0.0,0.0,0.0,0.0,0.0,0.0,0.0,0.0,0.0,0.0,0.0,0.0,0.0,0.0,0.0,0.0,0.0,-0.3812,-0.4213,-0.4723,0.0,0.0,0.0,0.0,0.0,0.0,0.0,0.0,0.0,-0.7325,-0.8389,-0.9059,0.0,0.0,-0.8051,-0.7745,-0.7509,-0.7391,-0.7419,-0.7553,0.0,-0.7846,-0.7851,-0.7846,-0.7846,-0.777,-0.7766,-0.7995,-0.799,-0.8071,-0.8309,-0.8232,-0.8415,-0.9109,-1.0166,-1.1039,-1.148,-1.1473,-1.1467,-1.1539,-1.1467,-1.1401,1.2103,1.1329,1.0852,1.046,1.0166,1.0426,1.0447,1.0366,1.0366,1.0144,0.9829,0.9363,0.8817,0.8231,0.7482,0.0,0.0,0.0,0.573,0.5624,0.5391,0.5336,0.5428,0.5186,0.4957,0.4822,0.4614,0.417,0.3486,0.3079,0.2016,0.0386,0.0,0.0,-0.1951,-0.2184,-0.2248,-0.221,-0.2043,-0.1919,-0.176,-0.1694,-0.1346,-0.0717,-0.0709,-0.0351,0.0522,0.0332,0.032,0.055,0.0294,0.007,0.0,0.0,0.0,0.0,0.0,0.0,0.0,0.0,0.0,0.0,0.0,-0.2278,-0.226,0.0,0.0,0.0,-0.2559,-0.2587,-0.2744,-0.2969,0.0,0.0,0.0,0.0,0.0,0.0,0.0,-0.5222,-0.539,-0.5487,-0.5351,-0.6247,-0.7043,-0.7335,-0.7119,-0.6873,-0.6711,0.0,-0.6441,-0.643,-0.6496,-0.6576,-0.6655,-0.6655,-0.6576,-0.65,-0.6341,-0.6344,-0.65,-0.6579,-0.6658,-0.69,-0.7058,-0.7058,-0.7292,-0.8151,-0.9014,-0.9625,-0.9661,-0.9719,-0.9953,-0.9951,-0.9937,1.2514,1.2324,1.1839,1.1414,1.1109,1.1284,1.1393,1.1393,1.1393,1.1231,1.1053,1.0491,1.0074,0.9823,0.8613,0.0,0.7297,0.7209,0.6891,0.6459,0.6299,0.6036,0.5904,0.5651,0.5534,0.5455,0.5267,0.4868,0.4342,0.401,0.3377,0.2525,0.0646,-0.0473,-0.1025,-0.1291,-0.1585,-0.1823,-0.148,-0.1407,-0.1704,-0.1436,-0.1166,-0.0718,-0.0628,-0.0178,0.0611,0.0682,0.0826,0.1267,0.1154,0.1027,0.0956,0.0,0.0,0.0,0.0,0.0,0.0,0.0,0.0,0.0,0.0,0.0,0.0,0.0,0.0,0.0,-0.1847,0.0,-0.1497,-0.1664,0.0,0.0,0.0,-0.3044,-0.3493,-0.3576,-0.3649,-0.3597,0.0,0.0,-0.4099,-0.4292,-0.4799,-0.556,-0.5802,-0.5713,-0.5624,-0.5541,-0.5538,-0.5515,-0.5521,-0.5607,-0.5753,-0.5676,-0.5504,-0.5344,-0.5285,-0.5355,-0.5521,-0.5524,-0.5696,-0.6179,-0.6191,-0.6268,-0.6526,-0.6675,-0.6855,-0.7815,-0.8121,-0.8317,-0.8564,-0.8685,-0.8873,1.2699,1.2608,1.2457,1.217,1.1688,1.1944,1.2058,1.2058,1.2058,1.1975,1.1711,1.1381,1.0867,1.0215,0.9602,0.8963,0.844,0.8191,0.7797,0.7282,0.6871,0.6605,0.6292,0.6034,0.588,0.5641,0.5437,0.5242,0.5066,0.4689,0.4206,0.3535,0.2556,0.1513,0.0331,0.0085,-0.0258,-0.0696,-0.0618,-0.0714,-0.0986,-0.0897,-0.0718,-0.0448,-0.0269,0.0089,0.0712,0.0944,0.1254,0.1571,0.1565,0.1578,0.1402,0.1253,0.0,0.0,0.0,0.0,0.0,0.0,0.0,0.0,0.0,-0.1109,-0.1144,0.0,-0.1174,0.0,-0.0867,-0.0693,-0.0707,-0.0855,0.0,0.0,-0.1369,-0.1539,-0.1685,-0.1846,-0.196,-0.2055,-0.2397,-0.2674,-0.2835,-0.3019,-0.3296,-0.3784,-0.4521,-0.5077,-0.5243,-0.5077,-0.4962,-0.489,-0.4875,-0.4951,-0.4959,-0.4951,-0.487,-0.4868,-0.487,-0.487,-0.487,-0.4951,-0.5037,-0.5449,-0.5532,-0.5699,-0.604,-0.6117,-0.6182,-0.644,-0.6944,-0.7289,-0.7375,-0.7581,-0.7773,1.2994,1.2892,1.2892,1.265,1.2276,1.2427,1.2487,1.2481,1.2487,1.2404,1.2314,1.2082,1.1521,1.0767,1.0517,1.0016,0.9349,0.9176,0.873,0.8053,0.7541,0.7065,0.6612,0.626,0.5997,0.5733,0.5555,0.5463,0.5371,0.5104,0.4721,0.423,0.3785,0.3062,0.2077,0.1214,0.0611,0.0176,-0.0178,-0.0448,-0.0538,-0.0628,-0.0538,-0.0269,-0.009,0.0359,0.0986,0.1205,0.1513,0.1931,0.1988,0.1991,0.2044,0.1964,0.1756,0.0,0.0,0.0,0.0,0.0,0.0,0.0,0.0,0.0,0.0,0.0,-0.0331,-0.0068,0.0142,0.0293,0.0376,0.0228,0.0154,0.0078,0.0,-0.0157,-0.0403,-0.0485,-0.0656,-0.0849,-0.1279,-0.1548,-0.167,-0.2028,-0.239,-0.2686,-0.3374,-0.3965,-0.4399,-0.4401,-0.421,-0.4249,-0.4239,-0.4241,-0.4327,-0.4411,-0.4495,-0.4495,-0.4495,-0.4583,-0.4669,-0.4672,-0.4841,-0.5097,-0.5183,-0.5269,-0.5523,-0.5523,-0.5523,-0.5609,-0.5955,-0.6357,-0.6723,-0.6936,-0.7154,1.3381,1.3181,1.3175,1.3031,1.2807,1.2771,1.2735,1.2705,1.2705,1.2705,1.2705,1.2448,1.2015,1.1413,1.1413,1.0895,1.0125,1.0038,0.951,0.8723,0.8113,0.7499,0.6795,0.6438,0.6083,0.5733,0.573,0.5644,0.5463,0.5463,0.5196,0.475,0.4478,0.4121,0.3673,0.2377,0.1408,0.0896,0.0179,-0.0179,-0.0179,-0.0448,-0.0269,0.009,0.0179,0.0538,0.1434,0.1467,0.1688,0.2277,0.2344,0.2419,0.2677,0.2581,0.2523,0.0,0.2118,0.0,0.0,0.0,0.0,0.0,0.0,0.0,0.0,0.028,0.0431,0.0808,0.1058,0.124,0.1346,0.1373,0.14,0.1258,0.1261,0.1093,0.0674,0.0591,0.0425,0.0174,-0.0262,-0.0527,-0.0625,-0.1166,-0.1705,-0.1974,-0.2242,-0.2597,-0.3227,-0.3494,-0.3578,-0.3585,-0.3585,-0.3748,-0.3842,-0.4024,-0.4198,-0.4204,-0.4196,-0.43,-0.4472,-0.4563,-0.4652,-0.4825,-0.4905,-0.491,-0.501,-0.5003,-0.5003,-0.5082,-0.526,-0.5676,-0.6294,-0.6602,-0.6874,1.3483,1.3447,1.3441,1.3405,1.3344,1.3133,1.2916,1.2705,1.2705,1.2705,1.2705,1.2534,1.2363,1.2186,1.1774,1.1424,1.0982,1.0463,0.9864,0.917,0.864,0.7933,0.7054,0.6962,0.6612,0.6086,0.5994,0.5908,0.5644,0.5644,0.5552,0.5282,0.501,0.4656,0.4208,0.0,0.0,0.0,0.1166,0.0807,0.0807,0.0538,0.0538,0.0897,0.1076,0.0,0.1703,0.2014,0.2247,0.2416,0.265,0.0,0.0,0.0,0.0,0.0,0.0,0.0,0.0,0.0,0.0,0.0,0.216,0.1868,0.1155,0.1275,0.1465,0.1551,0.1771,0.19,0.1909,0.1917,0.1925,0.1932,0.1935,0.1862,0.1808,0.1554,0.1393,0.1155,0.0713,0.0357,0.0179,-0.0269,-0.0718,-0.0987,-0.1166,-0.1525,-0.2063,-0.278,-0.3226,-0.3315,-0.3406,-0.3587,-0.3676,-0.3676,-0.3764,-0.3764,-0.3765,-0.3765,-0.3855,-0.3855,-0.3944,-0.43,-0.4478,-0.4565,-0.4921,-0.501,-0.4921,-0.501,-0.501,-0.527,-0.578,-0.6062,-0.6349,1.3827,1.3713,1.3707,1.3634,0.0,1.3369,1.3236,1.3091,1.2819,1.2705,1.2705,1.2619,1.2534,1.2369,1.2118,1.1763,1.1322,1.0982,1.0381,0.9607,0.9165,0.846,0.758,0.7228,0.691,0.6532,0.6445,0.6394,0.6267,0.6122,0.591,0.5817,0.5397,0.5129,0.4913,0.4591,0.3839,0.2691,0.1992,0.1722,0.1616,0.1256,0.1166,0.1436,0.1705,0.0,0.0,0.0,0.0,0.0,0.0,0.0,0.0,0.3557,0.0,0.3588,0.3547,0.3368,0.3134,0.3054,0.3054,0.2898,0.2962,0.2654,0.1885,0.2006,0.2034,0.2034,0.2242,0.2366,0.2477,0.248,0.2491,0.2517,0.252,0.2446,0.2291,0.2208,0.204,0.179,0.1436,0.1166,0.0897,0.0448,0.009,-0.0179,-0.0538,-0.0807,-0.1166,-0.1883,-0.251,-0.2691,-0.2871,-0.305,-0.3051,-0.3318,-0.3406,-0.3406,-0.3496,-0.3587,-0.3587,-0.3587,-0.3676,-0.3855,-0.3942,-0.4032,-0.421,-0.4297,-0.4297,-0.43,-0.43,-0.4387,-0.4741,-0.5188,-0.5636,1.4171,1.3978,1.3972,1.3845,1.3652,1.3604,1.3562,1.3483,0.0,0.0,0.0,1.285,1.2757,1.259,1.259,1.2152,1.1538,1.1451,1.102,1.0236,0.9712,0.9181,0.8472,0.7752,0.7372,0.7214,0.704,0.6916,0.6929,0.6638,0.64,0.6391,0.5929,0.566,0.5665,0.5303,0.4606,0.3633,0.2946,0.2488,0.2451,0.1897,0.1804,0.2075,0.2248,0.2601,0.3045,0.3172,0.3317,0.3578,0.3592,0.3718,0.4143,0.4212,0.4369,0.4532,0.4615,0.4448,0.4032,0.4032,0.3869,0.3624,0.3546,0.3207,0.2607,0.2616,0.2623,0.2621,0.2801,0.2917,0.2969,0.2886,0.2905,0.2959,0.2875,0.2784,0.2603,0.2604,0.2512,0.2244,0.2064,0.1795,0.1525,0.1166,0.0807,0.0538,0.0179,-0.018,-0.036,-0.1079,-0.1794,-0.2064,-0.2243,-0.2334,-0.2424,-0.269,-0.2959,-0.2957,-0.3138,-0.3318,-0.332,-0.3318,-0.3408,-0.3408,-0.3408,-0.3408,-0.3496,-0.3496,-0.3496,-0.3496,-0.3496,-0.3496,-0.3671,-0.4206,-0.4741,1.4274,1.4244,1.4244,1.4226,1.4171,1.3942,1.3719,1.3507,1.3435,1.3405,1.3399,1.3399,1.3405,1.3309,1.3129,1.2948,1.2587,1.2218,1.1678,1.1222,1.0668,1.0122,0.9662,0.9099,0.8648,0.821,0.7937,0.7664,0.7305,0.7195,0.7001,0.6813,0.6701,0.642,0.607,0.5603,0.5309,0.5101,0.4163,0.3599,0.3308,0.2973,0.2855,0.3129,0.3079,0.3227,0.3496,0.3487,0.3657,0.3831,0.4017,0.423,0.4405,0.4751,0.4946,0.5032,0.5199,0.5202,0.4949,0.4949,0.4725,0.4361,0.3963,0.3603,0.3285,0.3335,0.3371,0.3374,0.3424,0.3469,0.3482,0.3299,0.3124,0.3136,0.2962,0.2875,0.2873,0.2785,0.2784,0.2515,0.2424,0.2334,0.2064,0.1796,0.1528,0.1257,0.0992,0.0723,0.0274,-0.0544,-0.1257,-0.1436,-0.1525,-0.1615,-0.1803,-0.1975,-0.2161,-0.2332,-0.234,-0.2434,-0.2436,-0.2436,-0.2525,-0.2607,-0.2612,-0.2697,-0.2872,-0.3045,-0.2956,-0.2956,-0.2956,-0.2957,-0.3045,-0.3135,-0.3492,1.4298,1.4298,1.4298,1.4298,1.4292,1.4171,1.4051,1.3942,1.3942,1.3773,1.3525,1.3513,1.3513,1.3513,1.3423,1.3241,1.2968,1.2694,1.2232,1.1768,1.1313,1.0847,1.0487,0.9828,0.9414,0.9317,0.876,0.8523,0.8304,0.8041,0.7804,0.7617,0.7334,0.7047,0.6666,0.6301,0.6137,0.5889,0.5052,0.4426,0.4284,0.387,0.3759,0.3851,0.391,0.3963,0.4012,0.4282,0.4439,0.4476,0.47,0.4939,0.5112,0.5415,0.5734,0.5993,0.599,0.5907,0.5815,0.5472,0.5145,0.5005,0.4669,0.431,0.4096,0.3778,0.3536,0.3536,0.3568,0.3587,0.3587,0.3496,0.3406,0.3406,0.3229,0.305,0.305,0.2962,0.2875,0.2784,0.2694,0.2604,0.2424,0.2267,0.2099,0.1918,0.1564,0.1211,0.0939,0.0373,-0.0278,-0.0649,-0.0835,-0.0928,-0.1113,-0.1299,-0.1485,-0.1577,-0.1671,-0.1763,-0.1763,-0.1762,-0.1762,-0.1854,-0.1932,-0.1918,-0.2097,-0.2076,-0.2065,-0.2061,-0.2062,-0.2062,-0.2061,-0.2061,-0.2509,1.4298,1.4298,1.4298,1.4298,1.4298,1.4298,1.4298,1.4298,1.4292,1.4069,1.3719,1.3694,1.3694,1.3688,1.3694,1.3603,1.3326,1.3142,1.2859,1.2396,1.1931,1.1646,1.1371,1.0623,1.0324,1.0359,0.9702,0.9393,0.9399,0.8897,0.8639,0.8448,0.7962,0.7573,0.728,0.709,0.6839,0.6528,0.595,0.5477,0.5111,0.4801,0.46,0.46,0.4676,0.4727,0.4657,0.5023,0.5257,0.527,0.5445,0.5716,0.5984,0.6227,0.6573,0.693,0.6805,0.6697,0.6605,0.5988,0.5636,0.5641,0.5282,0.501,0.4835,0.43,0.3855,0.3765,0.3764,0.3765,0.3765,0.3676,0.3676,0.3676,0.3406,0.3317,0.3317,0.3141,0.3051,0.2963,0.2963,0.2876,0.2714,0.2657,0.2593,0.2332,0.199,0.1726,0.1536,0.1251,0.0869,0.0386,0.0,-0.019,-0.0381,-0.0571,-0.0761,-0.0858,-0.1047,-0.114,-0.1141,-0.1143,-0.1239,-0.1234,-0.1223,-0.1213,-0.121,-0.1198,-0.1096,-0.1096,-0.1097,-0.1095,-0.1096,-0.1095,-0.163,1.4304,1.4298,1.4316,1.4298,1.4298,1.4298,1.4298,1.4298,1.4298,1.4274,1.4201,1.422,1.4208,1.422,1.4201,1.4106,1.3831,1.3759,1.3651,1.3352,1.2887,1.2694,1.2475,1.1808,1.1439,1.1351,1.0863,1.0476,1.031,0.9998,0.9596,0.911,0.8612,0.8209,0.7918,0.7624,0.7431,0.7135,0.7027,0.6515,0.5601,0.5422,0.5375,0.5377,0.5379,0.5327,0.5315,0.5313,0.5593,0.5959,0.6045,0.6239,0.6789,0.7056,0.7259,0.7346,0.7585,0.7672,0.7404,0.6697,0.6352,0.6266,0.573,0.5366,0.5361,0.5008,0.4654,0.4387,0.4297,0.421,0.4208,0.4034,0.3857,0.3857,0.3676,0.3585,0.3587,0.3587,0.3408,0.3226,0.3147,0.3159,0.3033,0.2966,0.2896,0.2665,0.2419,0.225,0.2252,0.2177,0.1896,0.1395,0.1076,0.0575,0.0287,0.0286,0.0096,0.0,-0.0191,-0.0383,-0.048,-0.0575,-0.0764,-0.0578,-0.0668,-0.0571,-0.0476,-0.0379,-0.0284,-0.0188,-0.0094,-0.0095,-0.0095,-0.0189,-0.0934,1.4781,1.4763,1.4612,1.4449,1.431,1.4298,1.4298,1.4298,1.4298,1.4298,1.4298,1.4298,1.4298,1.4298,1.4298,1.4202,1.4112,1.3931,1.3835,1.3732,1.3346,1.3147,1.2958,1.2565,1.2273,1.2073,1.1487,1.1194,1.1096,1.0703,1.0216,0.9723,0.9327,0.8931,0.8737,0.8333,0.7935,0.7637,0.7534,0.7132,0.6631,0.6192,0.5971,0.5773,0.5731,0.5774,0.5914,0.6096,0.6348,0.6567,0.6652,0.6932,0.7305,0.7626,0.7966,0.8325,0.8639,0.8643,0.8091,0.7721,0.732,0.7061,0.6526,0.6169,0.5983,0.5811,0.5458,0.5188,0.4924,0.4656,0.4569,0.4482,0.4302,0.4123,0.3944,0.3765,0.3765,0.3676,0.36,0.3461,0.3471,0.3497,0.3284,0.314,0.309,0.2946,0.2782,0.2689,0.2594,0.2512,0.2319,0.2116,0.1891,0.1482,0.0887,0.0592,0.0592,0.0493,0.0395,0.0395,0.0296,0.0296,0.0197,0.0197,0.0098,0.0097,0.0291,0.0384,0.0381,0.0478,0.0477,0.0477,0.0572,0.0477,0.0,1.5113,1.5077,1.4902,1.4708,1.4521,1.4521,1.4515,1.4503,1.4449,1.4413,1.4407,1.4334,1.4298,1.4298,1.4298,1.4298,1.4298,1.4118,1.4022,1.4022,1.3738,1.3539,1.3346,1.3152,1.2861,1.2565,1.2175,1.1883,1.1683,1.1292,1.0801,1.031,1.0019,0.9727,0.943,0.8931,0.8634,0.8336,0.8031,0.7829,0.7534,0.7135,0.6739,0.6339,0.6342,0.6401,0.6516,0.6706,0.6955,0.7152,0.7334,0.7614,0.7896,0.8244,0.8671,0.9274,0.9461,0.941,0.8905,0.871,0.8382,0.799,0.7534,0.7088,0.6905,0.6638,0.6454,0.6277,0.5907,0.5541,0.4928,0.4837,0.4659,0.4478,0.4302,0.4125,0.4125,0.3959,0.3821,0.3783,0.3807,0.3759,0.3641,0.3416,0.3278,0.3314,0.3126,0.2927,0.2927,0.2724,0.2623,0.2522,0.2521,0.2117,0.1414,0.1309,0.1212,0.1212,0.1209,0.1007,0.101,0.0909,0.0808,0.0499,0.0695,0.0793,0.0792,0.088,0.0968,0.0969,0.0969,0.0969,0.1072,0.097,0.0873,1.5113,1.5113,1.5095,1.5071,1.5065,1.5046,1.5059,1.4998,1.4799,1.4696,1.466,1.4425,1.4304,1.4316,1.431,1.4298,1.4298,1.4298,1.4298,1.4202,1.4022,1.3835,1.3841,1.3636,1.3346,1.305,1.2764,1.2467,1.1975,1.1683,1.1389,1.1096,1.09,1.0511,1.0019,0.9723,0.943,0.913,0.8829,0.8627,0.8432,0.8333,0.7935,0.7335,0.7138,0.7132,0.7123,0.7126,0.7419,0.7918,0.8001,0.8199,0.8682,0.9139,0.9461,0.9788,0.9855,0.9846,0.9833,0.9545,0.9334,0.9035,0.8548,0.8217,0.7916,0.7716,0.7616,0.7556,0.7246,0.6697,0.5697,0.532,0.5039,0.4945,0.4759,0.4676,0.4672,0.4485,0.424,0.4179,0.4152,0.4034,0.3908,0.3687,0.3618,0.3533,0.3332,0.313,0.313,0.313,0.3029,0.2826,0.2725,0.2624,0.2422,0.2119,0.2119,0.2018,0.1716,0.1616,0.1414,0.1212,0.101,0.0909,0.1006,0.1106,0.1209,0.1208,0.1303,0.1401,0.1399,0.1499,0.1391,0.1304,0.1202,1.5511,1.536,1.5354,1.5264,1.5113,1.5113,1.5113,1.5101,1.501,1.4968,1.492,1.4684,1.4564,1.4558,1.4377,1.4298,1.4298,1.4298,1.4298,1.4298,1.4202,1.4118,1.3931,1.3738,1.3636,1.3346,1.3152,1.2759,1.2273,1.2175,1.1975,1.1688,1.1487,1.1096,1.0806,1.0507,1.0117,0.9723,0.9624,0.9426,0.9229,0.913,0.9031,0.873,0.8038,0.7836,0.7935,0.7935,0.8131,0.8528,0.8528,0.873,0.932,0.9951,1.0374,1.0504,1.0683,1.0633,1.0333,1.0216,1.0023,0.9653,0.933,0.9043,0.8977,0.8753,0.8613,0.8434,0.8153,0.7709,0.7102,0.6412,0.5858,0.558,0.5488,0.5391,0.522,0.5066,0.4919,0.4697,0.4491,0.4263,0.418,0.4017,0.3833,0.3835,0.3635,0.3433,0.3433,0.3332,0.323,0.313,0.3029,0.3029,0.2928,0.2522,0.2422,0.2321,0.222,0.212,0.2019,0.1918,0.1716,0.1716,0.1716,0.1716,0.1816,0.1716,0.1819,0.1717,0.1819,0.1717,0.1616,0.1516,0.1516,1.5789,1.5638,1.5626,1.5523,1.5366,1.536,1.5354,1.5348,1.5276,1.5234,1.5185,1.4962,1.4799,1.4696,1.4515,1.4377,1.4304,1.4298,1.4298,1.4298,1.4298,1.4208,1.4022,1.4022,1.3931,1.3636,1.3346,1.3055,1.2662,1.2662,1.2467,1.2078,1.1878,1.1683,1.1492,1.1194,1.0806,1.0507,1.0314,1.0117,0.992,0.9826,0.9826,0.9723,0.913,0.8733,0.8829,0.8829,0.8928,0.9122,0.9221,0.9418,1.0019,1.0511,1.0806,1.09,1.1096,1.1044,1.0826,1.0706,1.061,1.0215,0.9978,0.9871,0.9748,0.9681,0.9552,0.9354,0.9072,0.8787,0.8501,0.7928,0.712,0.6481,0.6172,0.6081,0.5805,0.5736,0.5617,0.5314,0.4988,0.473,0.464,0.4334,0.4135,0.4135,0.3935,0.3734,0.3734,0.3633,0.343,0.3332,0.3332,0.3232,0.313,0.2927,0.2725,0.2725,0.2522,0.2522,0.2522,0.2522,0.2422,0.2422,0.2422,0.2422,0.2322,0.2222,0.2222,0.2121,0.2121,0.202,0.1919,0.1819,0.1718,1.5885,1.5867,1.5885,1.5849,1.5819,1.5813,1.5861,1.5789,1.5596,1.5499,1.5463,1.5228,1.4992,1.4793,1.4745,1.4576,1.437,1.4346,1.4322,1.4298,1.4298,1.4298,1.4304,1.4304,1.4112,1.3841,1.3636,1.3346,1.305,1.305,1.2861,1.2467,1.2467,1.2273,1.198,1.1785,1.1487,1.1198,1.0998,1.0703,1.0408,1.0511,1.0511,1.0511,1.0408,1.0117,0.9727,0.9628,0.9723,0.992,0.992,1.0212,1.0605,1.0801,1.09,1.1194,1.1194,1.1194,1.1184,1.117,1.1058,1.0914,1.0867,1.0742,1.0542,1.0453,1.0351,1.0245,1.0062,0.9887,0.9776,0.9379,0.8586,0.7567,0.707,0.6884,0.6605,0.6384,0.6203,0.6004,0.5539,0.524,0.514,0.4839,0.4539,0.4438,0.4236,0.4033,0.4034,0.3934,0.3833,0.3633,0.3633,0.3533,0.3331,0.323,0.323,0.313,0.2927,0.2826,0.2725,0.2725,0.2624,0.2624,0.2624,0.2624,0.2624,0.2524,0.2423,0.2423,0.2322,0.2322,0.2221,0.202,0.202,1.5885,1.5885,1.5885,1.5885,1.5885,1.5885,1.5885,1.5885,1.5795,1.5771,1.5716,1.5493,1.533,1.5221,1.5077,1.4841,1.4594,1.4582,1.4485,1.4334,1.4304,1.4298,1.4298,1.4298,1.4208,1.3931,1.3841,1.3642,1.3443,1.3346,1.3244,1.3152,1.3152,1.2958,1.2565,1.2467,1.2175,1.178,1.1683,1.159,1.1487,1.1487,1.1492,1.1492,1.1487,1.1389,1.1194,1.0511,1.0216,1.0314,1.0314,1.0413,1.0801,1.1002,1.1194,1.1389,1.1487,1.159,1.1683,1.1785,1.1688,1.16,1.1595,1.158,1.1477,1.1287,1.11,1.0998,1.0703,1.0507,1.0314,1.0117,0.9559,0.8488,0.8087,0.7781,0.7485,0.7137,0.6889,0.6725,0.6139,0.5842,0.5741,0.5441,0.5138,0.4939,0.4736,0.4535,0.4336,0.4236,0.4034,0.3833,0.3833,0.3833,0.3632,0.3533,0.3432,0.3432,0.323,0.3029,0.2928,0.2928,0.2927,0.2826,0.2826,0.2826,0.2826,0.2826,0.2725,0.2624,0.2523,0.2522,0.2422,0.2321,0.2322,1.5885,1.5885,1.5885,1.5885,1.5885,1.5885,1.5885,1.5885,1.5885,1.5885,1.5843,1.5716,1.5584,1.5481,1.5324,1.5113,1.4865,1.4769,1.4624,1.4449,1.4328,1.4304,1.4298,1.4298,1.4208,1.4118,1.4022,1.3925,1.3636,1.3642,1.3545,1.3539,1.3448,1.3346,1.3055,1.3055,1.2856,1.2467,1.237,1.2268,1.2175,1.2175,1.2078,1.1975,1.198,1.198,1.1975,1.1292,1.0998,1.1002,1.1002,1.1096,1.1292,1.1389,1.1585,1.1688,1.1785,1.1785,1.198,1.198,1.198,1.1991,1.1986,1.1975,1.197,1.1775,1.1688,1.1492,1.1394,1.1194,1.0998,1.0806,1.0408,0.9809,0.9308,0.8829,0.8435,0.8035,0.7733,0.7534,0.6939,0.6539,0.6439,0.6137,0.5837,0.5539,0.5338,0.5135,0.4839,0.4638,0.4437,0.4336,0.4236,0.4135,0.4034,0.3833,0.3732,0.3633,0.3432,0.323,0.313,0.313,0.313,0.3029,0.3029,0.3029,0.3029,0.3029,0.2928,0.2826,0.2826,0.2826,0.2826,0.2623,0.2523,1.5885,1.5885,1.5885,1.5885,1.5885,1.5885,1.5885,1.5885,1.5885,1.5885,1.5885,1.5861,1.5747,1.5559,1.5523,1.5378,1.5131,1.4932,1.4874,1.474,1.457,1.4449,1.431,1.4298,1.4304,1.4304,1.4298,1.4112,1.3925,1.3925,1.3835,1.3636,1.3636,1.3545,1.3539,1.3545,1.3346,1.305,1.305,1.2856,1.2565,1.2467,1.237,1.2175,1.2175,1.2175,1.2175,1.2175,1.2073,1.198,1.1878,1.1883,1.198,1.198,1.1975,1.198,1.198,1.2078,1.2078,1.2175,1.2175,1.217,1.2175,1.2078,1.217,1.2175,1.2078,1.2078,1.1975,1.1883,1.1785,1.1492,1.1194,1.11,1.031,0.9723,0.9331,0.9027,0.8726,0.8428,0.7832,0.7235,0.7235,0.6833,0.6437,0.6139,0.6039,0.5839,0.5536,0.5238,0.5138,0.4937,0.4636,0.4537,0.4437,0.4135,0.4034,0.3935,0.3734,0.3533,0.3331,0.323,0.323,0.323,0.323,0.323,0.323,0.313,0.313,0.3029,0.313,0.323,0.313,0.2927,0.2826,1.5885,1.5885,1.5885,1.5885,1.5885,1.5885,1.5885,1.5885,1.5885,1.5992,1.5885,1.5885,1.5849,1.5789,1.5777,1.5749,1.5634,1.562,1.5456,1.5331,1.5231,1.477,1.443,1.4298,1.4298,1.4298,1.4394,1.4298,1.4202,1.4208,1.4202,1.4106,1.4112,1.4016,1.3835,1.3835,1.3642,1.3443,1.3437,1.3346,1.3249,1.3249,1.3152,1.3152,1.3147,1.3055,1.3152,1.3152,1.2759,1.2078,1.198,1.198,1.2078,1.198,1.2078,1.2273,1.2273,1.237,1.2565,1.2759,1.2759,1.2856,1.2856,1.3152,1.3055,1.2764,1.2662,1.2467,1.2273,1.2078,1.198,1.1878,1.178,1.1683,1.0904,1.0314,1.0117,0.9821,0.962,0.9327,0.8726,0.8329,0.8035,0.7633,0.7235,0.6939,0.6739,0.6442,0.6137,0.5939,0.5739,0.5438,0.5238,0.5039,0.4839,0.4537,0.4336,0.4237,0.4036,0.3734,0.3533,0.3432,0.3331,0.323,0.3232,0.3332,0.323,0.323,0.323,0.323,0.323,0.323,0.323,0.313,0.3029,1.6205,1.6205,1.6205,1.6205,1.6205,1.6211,1.6205,1.6205,1.6199,1.6205,1.6205,1.6205,1.6205,1.6205,1.6199,1.6231,1.6193,1.6276,1.6145,1.6085,1.5901,1.5434,1.484,1.4688,1.4592,1.4592,1.4688,1.4694,1.4688,1.4592,1.4688,1.4592,1.4592,1.4598,1.4412,1.4412,1.4316,1.4214,1.4118,1.4118,1.4022,1.4022,1.3919,1.3823,1.3823,1.3823,1.3823,1.3727,1.3244,1.2662,1.2467,1.2467,1.2375,1.237,1.2467,1.2662,1.2662,1.2856,1.3055,1.3249,1.3244,1.3244,1.3443,1.3443,1.3443,1.3249,1.3055,1.3055,1.2764,1.2662,1.2565,1.2467,1.2273,1.198,1.1487,1.0998,1.0801,1.0609,1.031,1.0019,0.962,0.9225,0.9027,0.8627,0.823,0.7935,0.7637,0.7238,0.6836,0.6639,0.6339,0.6037,0.5737,0.5541,0.524,0.4939,0.4638,0.4537,0.4438,0.4137,0.3833,0.3632,0.3533,0.3533,0.3432,0.3332,0.3332,0.3331,0.323,0.323,0.323,0.323,0.323,0.323,0.323,1.6723,1.6723,1.6723,1.6723,1.6624,1.6723,1.6617,1.673,1.6617,1.6624,1.6617,1.6723,1.663,1.673,1.6736,1.6723,1.6817,1.6912,1.6988,1.6846,1.672,1.6323,1.5757,1.5306,1.5178,1.5172,1.5178,1.5083,1.5077,1.5083,1.5083,1.4987,1.5083,1.5083,1.4981,1.5083,1.5172,1.5077,1.5083,1.4981,1.4879,1.4783,1.4682,1.458,1.449,1.449,1.449,1.4292,1.3908,1.334,1.3244,1.305,1.2861,1.2861,1.2958,1.3147,1.3147,1.3244,1.3534,1.3636,1.3636,1.3732,1.3732,1.3642,1.3732,1.3732,1.3732,1.3732,1.3636,1.3443,1.334,1.3152,1.2764,1.237,1.217,1.1878,1.1492,1.1296,1.11,1.0609,1.0216,1.0117,0.992,0.9628,0.9232,0.8829,0.863,0.823,0.7832,0.7534,0.7135,0.6634,0.6337,0.5942,0.5641,0.5338,0.5138,0.4937,0.4738,0.4437,0.4234,0.4033,0.3934,0.3934,0.3734,0.3633,0.3635,0.3534,0.3331,0.3331,0.3432,0.3332,0.3232,0.323,0.323,1.6723,1.6723,1.6723,1.6723,1.6723,1.6723,1.6723,1.673,1.6723,1.6836,1.6723,1.6723,1.6842,1.706,1.7166,1.7272,1.7701,1.7803,1.7804,1.8013,1.801,1.7901,1.7393,1.6491,1.577,1.5662,1.5452,1.535,1.535,1.5267,1.5083,1.5178,1.5267,1.5166,1.535,1.5445,1.5445,1.5642,1.5642,1.5642,1.5547,1.554,1.554,1.5445,1.5445,1.5445,1.5445,1.5248,1.4956,1.4573,1.3913,1.3534,1.3443,1.3346,1.3443,1.3443,1.3624,1.3721,1.3913,1.4202,1.4406,1.4496,1.4598,1.47,1.4694,1.4502,1.4496,1.44,1.4208,1.4106,1.3817,1.3534,1.3346,1.3147,1.2953,1.2754,1.2467,1.2073,1.159,1.1198,1.1002,1.0806,1.0408,1.0117,0.9821,0.9719,0.9422,0.9126,0.8829,0.8528,0.8031,0.7431,0.7135,0.6739,0.6139,0.5839,0.5438,0.5238,0.5039,0.4839,0.4636,0.4332,0.4234,0.4135,0.3934,0.3935,0.3937,0.3835,0.3732,0.3734,0.3633,0.3533,0.3533,0.3331,0.3232,1.7371,1.747,1.747,1.747,1.747,1.747,1.747,1.747,1.747,1.747,1.747,1.747,1.7582,1.7799,1.7898,1.8108,1.8429,1.8743,1.9073,1.9271,1.9305,1.9246,1.9239,1.8237,1.7529,1.6908,1.636,1.6218,1.6116,1.592,1.5832,1.5838,1.5743,1.5927,1.592,1.6008,1.6015,1.6109,1.6204,1.6204,1.6204,1.6211,1.6305,1.6305,1.6305,1.6305,1.6305,1.6109,1.5818,1.5534,1.4962,1.4298,1.3913,1.3919,1.3919,1.4118,1.4208,1.4388,1.4675,1.4867,1.507,1.5166,1.5363,1.5363,1.5458,1.5261,1.5255,1.5159,1.4968,1.4675,1.4298,1.4208,1.4016,1.3721,1.3528,1.3335,1.2953,1.2467,1.2078,1.1683,1.1585,1.1389,1.0998,1.0703,1.0507,1.0408,1.0113,0.9817,0.9525,0.9225,0.8829,0.8329,0.7932,0.7534,0.6836,0.6339,0.5839,0.5539,0.534,0.514,0.4937,0.4636,0.4435,0.4334,0.4234,0.4237,0.4137,0.4135,0.4034,0.3934,0.3833,0.3833,0.3732,0.3734,0.3533,1.8213,1.8415,1.8527,1.8527,1.8527,1.8527,1.8527,1.8527,1.8527,1.8422,1.8534,1.8527,1.8527,1.8632,1.8833,1.893,1.925,1.9672,2.0151,2.0412,2.0304,2.0387,2.0369,1.9976,1.9384,1.8431,1.7618,1.7269,1.6986,1.6871,1.6581,1.6683,1.6676,1.6676,1.6777,1.6777,1.6864,1.6864,1.6864,1.6864,1.6864,1.6871,1.6965,1.7153,1.7153,1.716,1.7066,1.6871,1.6669,1.6386,1.6197,1.5629,1.4962,1.458,1.4586,1.4879,1.4975,1.5159,1.5337,1.5527,1.5724,1.5927,1.6021,1.6021,1.6028,1.6021,1.5927,1.5825,1.5635,1.5343,1.4975,1.4783,1.4586,1.4292,1.41,1.3817,1.3335,1.2856,1.2559,1.2073,1.1975,1.1785,1.159,1.1394,1.1198,1.1002,1.0708,1.0511,1.0216,0.992,0.9521,0.9126,0.8829,0.8134,0.7437,0.6936,0.6437,0.6039,0.5739,0.5539,0.5338,0.5037,0.4736,0.4636,0.4636,0.4537,0.4437,0.4334,0.4232,0.4131,0.4033,0.4036,0.4036,0.4034,0.3835,1.8722,1.8722,1.9056,1.9168,1.9168,1.9175,1.9168,1.9168,1.9168,1.9168,1.9168,1.9168,1.9264,1.9472,1.9465,1.9776,2.0189,2.0712,2.1019,2.1224,2.1212,2.1391,2.1402,2.1255,2.0835,2.0337,1.9213,1.832,1.7702,1.734,1.7333,1.7239,1.7239,1.7333,1.7434,1.7535,1.7621,1.7707,1.7714,1.7714,1.7707,1.7707,1.7714,1.7807,1.7815,1.7807,1.7807,1.7628,1.7535,1.7434,1.7145,1.6951,1.6574,1.5913,1.5635,1.5642,1.5818,1.6008,1.6096,1.6292,1.6494,1.669,1.6784,1.6784,1.6784,1.6784,1.6683,1.6494,1.6298,1.6008,1.5906,1.5629,1.5343,1.5057,1.4777,1.4496,1.4106,1.3715,1.3238,1.2657,1.2467,1.2273,1.198,1.1883,1.1688,1.1492,1.1292,1.1194,1.1002,1.0609,1.0314,0.992,0.9624,0.8832,0.8038,0.7637,0.7135,0.6639,0.6239,0.5937,0.5739,0.5338,0.514,0.5037,0.4834,0.4734,0.4634,0.4634,0.4533,0.4433,0.4435,0.4338,0.4336,0.4236,0.4133,1.9465,1.9672,1.9894,1.9998,2.0101,2.0094,2.0101,2.0101,2.0101,2.0101,2.0094,2.0094,2.0205,2.03,2.0498,2.0806,2.1113,2.1318,2.1623,2.1725,2.203,2.2232,2.2333,2.2321,2.2042,2.1526,2.0662,1.975,1.8848,1.8342,1.8109,1.8079,1.8079,1.8172,1.8179,1.8187,1.8179,1.8265,1.8179,1.8087,1.8087,1.8087,1.8179,1.828,1.8288,1.8288,1.828,1.8195,1.8009,1.7908,1.7807,1.7707,1.7613,1.7326,1.6864,1.6676,1.6669,1.685,1.6958,1.7153,1.7254,1.7527,1.7535,1.7535,1.7535,1.7527,1.7434,1.7246,1.7059,1.6864,1.6588,1.6393,1.6109,1.5818,1.5439,1.5159,1.4777,1.4388,1.3811,1.3238,1.3044,1.2759,1.2273,1.2175,1.2078,1.198,1.1883,1.1785,1.159,1.1296,1.0904,1.0511,1.0117,0.9426,0.8733,0.8233,0.7733,0.7238,0.6839,0.6537,0.6137,0.5739,0.5539,0.5336,0.5135,0.4933,0.4734,0.4734,0.4734,0.4832,0.4634,0.4535,0.4537,0.4535,0.4334,2.0197,2.0624,2.0727,2.0814,2.1019,2.1113,2.1113,2.113,2.1216,2.1224,2.1121,2.1121,2.1121,2.1121,2.142,2.1615,2.1827,2.1928,2.2232,2.2434,2.2636,2.2837,2.3046,2.322,2.298,2.2356,2.2016,2.1425,1.9979,1.9325,1.9055,1.9023,1.8991,1.892,1.8928,1.8835,1.8735,1.8643,1.855,1.8365,1.8365,1.8373,1.8465,1.8658,1.8767,1.8759,1.8759,1.8759,1.8658,1.8558,1.8458,1.8458,1.8365,1.8365,1.8179,1.7792,1.7606,1.7613,1.7714,1.7721,1.7807,1.8094,1.8179,1.8187,1.8094,1.8001,1.7994,1.7815,1.7721,1.7628,1.7347,1.716,1.6972,1.6581,1.6204,1.5825,1.5445,1.5057,1.4675,1.41,1.3721,1.3238,1.2851,1.2565,1.2565,1.237,1.2175,1.2078,1.198,1.1688,1.1296,1.1002,1.0609,1.0019,0.9426,0.8832,0.8333,0.7739,0.7341,0.7039,0.6637,0.6237,0.6037,0.5737,0.5336,0.5133,0.4935,0.4834,0.4834,0.4832,0.4832,0.4734,0.4734,0.4636,0.4636,2.0822,2.0925,2.1318,2.1623,2.1623,2.1818,2.1928,2.203,2.2224,2.2123,2.1928,2.192,2.1827,2.1827,2.2123,2.2325,2.2535,2.2846,2.3046,2.3038,2.3247,2.3247,2.3347,2.3356,2.342,2.3061,2.2832,2.187,2.0908,2.0248,2.0041,1.9992,1.9769,1.9512,1.9653,1.9412,1.9487,1.9487,1.9396,1.9396,1.9304,1.9304,1.9304,1.9396,1.9396,1.9396,1.9312,1.9312,1.9304,1.9304,1.9396,1.9396,1.9396,1.9396,1.9396,1.9112,1.8643,1.7994,1.8087,1.8172,1.8179,1.8373,1.8473,1.8473,1.8381,1.828,1.8179,1.8087,1.8094,1.8001,1.7908,1.7721,1.7628,1.7347,1.6972,1.6683,1.6393,1.5724,1.5343,1.4956,1.458,1.3908,1.3335,1.3147,1.2953,1.2759,1.2565,1.2467,1.2273,1.198,1.1688,1.1394,1.1002,1.0511,1.0019,0.9525,0.8931,0.8336,0.8038,0.7739,0.7238,0.6836,0.6537,0.6237,0.5834,0.5434,0.5336,0.5236,0.4935,0.4834,0.4935,0.4834,0.4734,0.4734,0.4736,2.1827,2.1827,2.2021,2.2333,2.2636,2.2837,2.2837,2.2837,2.2937,2.2937,2.2837,2.2846,2.2745,2.2736,2.2937,2.3046,2.3038,2.3247,2.3347,2.3456,2.3555,2.3646,2.3646,2.3755,2.3755,2.361,2.3394,2.3098,2.2195,2.1578,2.1251,2.1199,2.0823,2.0559,2.0407,2.0046,1.9779,1.9762,1.9671,1.9579,1.9587,1.9587,1.9587,1.9587,1.9587,1.9587,1.9587,1.9587,1.9587,1.9587,1.9587,1.9587,1.9587,1.9587,1.9587,1.9587,1.9212,1.8928,1.8827,1.8727,1.8735,1.8651,1.8658,1.8651,1.8651,1.8558,1.8458,1.8558,1.8458,1.8458,1.8373,1.8195,1.8094,1.7908,1.7636,1.7441,1.7153,1.6581,1.6109,1.5818,1.5439,1.4867,1.4196,1.3908,1.3528,1.3147,1.2953,1.2856,1.2662,1.2375,1.2078,1.1785,1.1389,1.0998,1.0609,1.0117,0.9624,0.913,0.8836,0.8439,0.7839,0.7437,0.7135,0.6836,0.6537,0.6237,0.5937,0.5536,0.5336,0.5236,0.5135,0.5035,0.5035,0.4834,0.4834,2.2728,2.2837,2.2728,2.2937,2.3347,2.3456,2.3447,2.3447,2.3555,2.3546,2.3456,2.3456,2.3356,2.3456,2.3447,2.3456,2.3456,2.3555,2.3555,2.3646,2.3746,2.3845,2.3954,2.4053,2.4053,2.3854,2.3818,2.3674,2.3422,2.301,2.2556,2.2309,2.1655,2.1506,2.1281,2.0853,2.0354,2.0119,2.0027,1.9945,1.9853,1.9853,1.9762,1.9762,1.9762,1.977,1.977,1.9762,1.9762,1.9762,1.9853,1.9853,1.9853,1.9845,1.9845,1.9853,1.9671,1.9571,1.9379,1.9279,1.9196,1.9112,1.902,1.902,1.902,1.892,1.8912,1.892,1.8735,1.8651,1.8566,1.8566,1.8465,1.828,1.8094,1.8001,1.7815,1.7246,1.6871,1.6676,1.6298,1.592,1.5343,1.4765,1.4292,1.3727,1.3437,1.3244,1.305,1.2764,1.2467,1.2175,1.1883,1.1487,1.1096,1.0703,1.0212,0.992,0.9628,0.9133,0.8535,0.8233,0.7932,0.7637,0.7238,0.6936,0.6734,0.6134,0.5636,0.5436,0.5336,0.5338,0.5238,0.5035,0.4935,2.3447,2.3646,2.3456,2.3347,2.3456,2.3646,2.3755,2.3755,2.4053,2.3954,2.3755,2.3546,2.3456,2.3456,2.3655,2.3755,2.3755,2.4053,2.4053,2.4053,2.4152,2.4152,2.4161,2.4152,2.4152,2.4152,2.4152,2.4053,2.4134,2.3925,2.3358,2.2832,2.2432,2.2185,2.199,2.1511,2.0976,2.0694,2.0598,2.0382,2.0292,2.0292,2.0209,2.0292,2.0201,2.0201,2.0201,2.0201,2.0201,2.0209,2.0119,2.011,2.0119,2.011,2.011,2.011,2.0119,2.0019,1.9837,1.9662,1.9587,1.9587,1.9487,1.9396,1.9396,1.9288,1.9188,1.9196,1.9012,1.892,1.8835,1.8827,1.8835,1.8743,1.8658,1.8473,1.8288,1.8001,1.7621,1.7535,1.7153,1.6683,1.6298,1.5724,1.4962,1.4394,1.3817,1.3624,1.3244,1.3055,1.2861,1.2565,1.237,1.2078,1.1683,1.1292,1.09,1.0511,1.0216,0.9826,0.9229,0.8931,0.873,0.8432,0.8035,0.7733,0.7431,0.6936,0.6437,0.5834,0.5536,0.5636,0.5539,0.5236,0.5238,2.3854,2.4053,2.3954,2.3854,2.3854,2.4053,2.4053,2.4053,2.4152,2.4161,2.4044,2.3954,2.3854,2.3954,2.3954,2.4053,2.4053,2.4152,2.4152,2.4161,2.4161,2.4161,2.4161,2.4161,2.4161,2.4161,2.4161,2.4161,2.4152,2.4161,2.4097,2.3528,2.3069,2.2892,2.2572,2.2058,2.1556,2.1251,2.1039,2.0826,2.0817,2.0727,2.0736,2.0727,2.0736,2.0645,2.0564,2.0564,2.0473,2.0382,2.0292,2.0292,2.0382,2.0292,2.0292,2.0292,2.0292,2.0201,2.0119,1.9936,1.9754,1.9587,1.9587,1.9587,1.9671,1.9487,1.9487,1.9396,1.9304,1.9204,1.9304,1.9304,1.9304,1.9304,1.9212,1.9028,1.8843,1.8465,1.828,1.8087,1.7721,1.7246,1.6965,1.6683,1.592,1.5057,1.4484,1.401,1.363,1.3346,1.3244,1.305,1.2856,1.2662,1.2268,1.1975,1.159,1.1198,1.0904,1.0511,1.0019,0.9723,0.9525,0.9126,0.8829,0.8627,0.8329,0.7836,0.7335,0.6736,0.6237,0.5937,0.5737,0.5636,0.5539,2.4251,2.435,2.4449,2.435,2.4251,2.4251,2.4242,2.4341,2.435,2.4341,2.4242,2.4251,2.4161,2.4161,2.4161,2.4152,2.4152,2.4161,2.4161,2.4161,2.4161,2.4161,2.4161,2.4161,2.4161,2.4152,2.4161,2.4161,2.4161,2.4161,2.4024,2.3761,2.3624,2.3417,2.3257,2.2591,2.1874,2.1488,2.1292,2.1087,2.0988,2.0997,2.0997,2.0997,2.0997,2.0907,2.0826,2.0736,2.0736,2.0645,2.0564,2.0564,2.0473,2.0473,2.0473,2.0382,2.0382,2.0292,2.0292,2.011,1.9928,1.9845,1.9845,1.9845,1.9762,1.9762,1.9671,1.9671,1.9671,1.9587,1.9587,1.9487,1.9487,1.9496,1.9496,1.9304,1.9304,1.902,1.8835,1.8735,1.8272,1.7908,1.7628,1.7254,1.6393,1.5629,1.4968,1.4496,1.4208,1.3919,1.3721,1.3528,1.3244,1.3147,1.2958,1.2565,1.2175,1.198,1.1688,1.1292,1.09,1.0609,1.0413,1.0113,0.9916,0.9521,0.9225,0.8829,0.8233,0.754,0.7135,0.6634,0.6437,0.6237,0.6037,2.4843,2.4941,2.4843,2.4637,2.4242,2.443,2.4529,2.4538,2.4735,2.4735,2.4538,2.435,2.426,2.426,2.435,2.435,2.435,2.4251,2.4251,2.435,2.435,2.4251,2.4251,2.4251,2.435,2.4242,2.4242,2.4341,2.4196,2.415,2.3984,2.3648,2.3501,2.3496,2.3978,2.3318,2.2362,2.1536,2.1455,2.1284,2.1186,2.1087,2.1087,2.1087,2.1087,2.1087,2.1006,2.1015,2.0916,2.0817,2.0817,2.0817,2.0817,2.0736,2.0654,2.0654,2.0464,2.0374,2.0283,2.0283,2.0292,2.0201,2.011,2.011,2.0201,2.011,1.9936,1.9936,1.9853,1.9679,1.9679,1.9671,1.9671,1.9671,1.9762,1.9671,1.9571,1.9479,1.9296,1.9112,1.8928,1.8651,1.828,1.7721,1.6958,1.6109,1.5452,1.4981,1.4688,1.4496,1.4292,1.4112,1.3823,1.363,1.3437,1.305,1.2759,1.2667,1.2375,1.1975,1.1683,1.1487,1.1292,1.1096,1.0801,1.0408,1.0117,0.992,0.9324,0.8627,0.7932,0.7531,0.7235,0.6939,0.6736,2.4941,2.4941,2.4941,2.4833,2.4646,2.4735,2.4735,2.4735,2.4843,2.4833,2.4735,2.4646,2.4637,2.4637,2.4637,2.4646,2.4646,2.4646,2.4646,2.4646,2.4637,2.4646,2.4646,2.4646,2.4637,2.4646,2.4627,2.4478,2.4234,2.4193,2.3827,2.3435,2.322,2.3226,2.318,2.2804,2.2236,2.2035,2.1744,2.1562,2.1463,2.1463,2.1454,2.1454,2.1463,2.1374,2.1284,2.1293,2.1195,2.1087,2.1087,2.1087,2.1087,2.0916,2.0916,2.0916,2.0727,2.0727,2.0727,2.0727,2.0555,2.0464,2.0292,2.0292,2.0292,2.0201,2.0201,2.011,2.0027,2.0027,2.0027,2.0027,2.011,2.011,2.011,1.9936,1.9845,1.9845,1.9662,1.9487,1.9304,1.9028,1.8743,1.828,1.752,1.7044,1.6487,1.573,1.535,1.5159,1.4962,1.4783,1.4502,1.431,1.4016,1.3727,1.3437,1.3244,1.305,1.2759,1.2559,1.2365,1.217,1.1975,1.1585,1.1194,1.0998,1.0801,1.0408,0.9813,0.9118,0.8428,0.7935,0.7736,0.7537,2.5137,2.5137,2.5128,2.5137,2.5137,2.5039,2.5039,2.5137,2.5137,2.5039,2.503,2.4932,2.4941,2.4941,2.4941,2.4941,2.4941,2.4941,2.4941,2.4941,2.4941,2.4843,2.4843,2.4941,2.4843,2.4941,2.4894,2.4742,2.4296,2.4143,2.372,2.3206,2.2889,2.2787,2.2649,2.2437,2.2245,2.1971,2.1724,2.1642,2.1642,2.1642,2.1642,2.1642,2.1642,2.1642,2.1562,2.1472,2.1472,2.1275,2.1177,2.1266,2.1186,2.1186,2.1186,2.1096,2.0997,2.0988,2.0988,2.0997,2.0817,2.0637,2.0464,2.0473,2.0382,2.0382,2.0292,2.0292,2.0292,2.0292,2.0292,2.0292,2.0382,2.0374,2.0292,2.0201,2.011,2.0119,1.9936,1.9853,1.9671,1.9387,1.9112,1.8743,1.8272,1.7893,1.7419,1.6763,1.6103,1.5818,1.5724,1.5445,1.5166,1.4879,1.4682,1.4394,1.4112,1.3919,1.3727,1.3431,1.3238,1.3039,1.2856,1.2764,1.237,1.2073,1.1878,1.1585,1.1292,1.0895,1.0404,0.9616,0.8733,0.8531,0.8432,2.5732,2.5732,2.5732,2.5742,2.5635,2.544,2.5538,2.5645,2.543,2.5333,2.5333,2.5128,2.5128,2.503,2.5039,2.5039,2.5137,2.5137,2.5137,2.5137,2.5226,2.5137,2.5137,2.5128,2.5235,2.5128,2.508,2.5121,2.4459,2.4269,2.3765,2.3133,2.2792,2.2608,2.2546,2.2432,2.2224,2.1968,2.1876,2.1909,2.1919,2.182,2.182,2.182,2.1731,2.1731,2.1651,2.1642,2.1642,2.1642,2.1642,2.1642,2.1651,2.1472,2.1482,2.1392,2.1186,2.1177,2.1266,2.1266,2.1266,2.1177,2.0916,2.0835,2.0654,2.0555,2.0464,2.0464,2.0464,2.0374,2.0374,2.0374,2.0464,2.0473,2.0382,2.0382,2.0382,2.0292,2.0201,2.0027,1.9928,1.9754,1.9579,1.9204,1.892,1.8643,1.8357,1.7978,1.7225,1.6574,1.6386,1.6204,1.592,1.554,1.5248,1.5057,1.4777,1.4586,1.4388,1.41,1.3908,1.3721,1.363,1.3437,1.3244,1.2953,1.2662,1.237,1.217,1.178,1.1482,1.0797,0.9912,0.962,0.9422,2.5732,2.5732,2.5732,2.582,2.6014,2.61,2.6014,2.5742,2.5635,2.5547,2.5635,2.5723,2.5703,2.58,2.6004,2.6004,2.6004,2.6014,2.61,2.6004,2.5907,2.6014,2.6014,2.6004,2.6014,2.6004,2.5954,2.5681,2.5293,2.4815,2.3923,2.3173,2.2948,2.2773,2.2704,2.2476,2.234,2.2213,2.2176,2.2176,2.2176,2.2176,2.2087,2.2008,2.1998,2.1909,2.182,2.1731,2.1731,2.1731,2.1731,2.1731,2.1642,2.1651,2.1651,2.1928,2.182,2.182,2.1989,2.1989,2.19,2.1811,2.1633,2.1195,2.1006,2.0907,2.0817,2.0727,2.0727,2.0637,2.0637,2.0637,2.0637,2.0645,2.0645,2.0645,2.0645,2.0555,2.0473,2.0382,2.0292,2.011,1.9936,1.9671,1.9387,1.9296,1.9112,1.8819,1.8357,1.7606,1.7138,1.6951,1.6581,1.6298,1.6103,1.5906,1.5534,1.5248,1.5051,1.486,1.4682,1.4496,1.4304,1.4112,1.3823,1.3534,1.3249,1.305,1.2948,1.2851,1.2457,1.1775,1.1194,1.0801,1.0408,2.582,2.5917,2.6014,2.611,2.6304,2.6592,2.6486,2.6207,2.611,2.6024,2.6014,2.6207,2.6294,2.6197,2.64,2.6496,2.6582,2.6582,2.6572,2.6774,2.6784,2.6774,2.6774,2.6774,2.6764,2.6774,2.6713,2.6445,2.6022,2.53,2.4426,2.4019,2.3634,2.3506,2.3389,2.3301,2.3076,2.2882,2.2696,2.2441,2.2432,2.2441,2.2353,2.2264,2.2264,2.2087,2.1998,2.1998,2.1998,2.1998,2.1998,2.1998,2.1998,2.1998,2.1998,2.2185,2.2176,2.2176,2.2264,2.2344,2.2353,2.2353,2.2176,2.19,2.1544,2.1266,2.1087,2.0907,2.0997,2.0997,2.0997,2.0997,2.0997,2.0997,2.0997,2.0997,2.0907,2.0916,2.0826,2.0744,2.0645,2.0464,2.0292,2.0119,1.9945,1.9845,1.9662,1.9387,1.892,1.8357,1.7978,1.7699,1.7434,1.716,1.6864,1.6662,1.6386,1.6197,1.592,1.573,1.5547,1.5166,1.4873,1.4592,1.44,1.4208,1.4022,1.3823,1.3727,1.3528,1.3431,1.2851,1.2268,1.1878,1.1385,2.61,2.6197,2.64,2.6592,2.6678,2.686,2.7051,2.6955,2.6774,2.6582,2.6582,2.6582,2.6688,2.6688,2.6784,2.6965,2.7156,2.7251,2.7326,2.7326,2.7431,2.7431,2.7421,2.7315,2.7421,2.7336,2.7263,2.7097,2.6579,2.6053,2.5624,2.526,2.4856,2.4654,2.4604,2.4293,2.4115,2.4037,2.3516,2.3113,2.2744,2.2618,2.253,2.252,2.252,2.2432,2.2432,2.2432,2.2441,2.2441,2.2353,2.2344,2.2441,2.2441,2.2432,2.253,2.2618,2.2706,2.2706,2.2784,2.2706,2.2618,2.253,2.252,2.2255,2.1713,2.1535,2.1445,2.1445,2.1454,2.1454,2.1365,2.1365,2.1275,2.1266,2.1266,2.1186,2.1096,2.1015,2.0925,2.0826,2.0727,2.0727,2.0555,2.0473,2.0283,2.0201,2.0019,1.9654,1.9188,1.8819,1.8535,1.8265,1.79,1.7714,1.7512,1.7333,1.7052,1.6864,1.6581,1.6298,1.592,1.5445,1.5255,1.5064,1.4975,1.4783,1.4592,1.4394,1.4196,1.401,1.3732,1.334,1.2851,1.2365,2.64,2.6496,2.687,2.7167,2.7336,2.762,2.7809,2.8008,2.8008,2.7631,2.7146,2.7251,2.7357,2.7347,2.7536,2.7715,2.7914,2.8008,2.8186,2.8279,2.8373,2.8362,2.8362,2.8258,2.8269,2.8196,2.8028,2.7774,2.7331,2.6985,2.6673,2.633,2.602,2.582,2.5809,2.5502,2.5341,2.5289,2.5023,2.4285,2.375,2.3533,2.3406,2.3232,2.3047,2.2882,2.2784,2.252,2.2432,2.2441,2.2441,2.253,2.2706,2.2882,2.3057,2.3154,2.3232,2.3319,2.3396,2.3396,2.3396,2.3406,2.3319,2.3232,2.296,2.2422,2.2069,2.2078,2.1998,2.1909,2.182,2.182,2.1731,2.1642,2.1544,2.1544,2.1544,2.1374,2.1195,2.1096,2.1087,2.0997,2.0988,2.0988,2.0898,2.0817,2.0817,2.0736,2.0555,2.0184,1.9637,1.9363,1.9096,1.8827,1.855,1.8365,1.8087,1.79,1.7621,1.7333,1.7044,1.6669,1.6292,1.6008,1.5818,1.573,1.554,1.5343,1.5146,1.4956,1.4675,1.44,1.4208,1.3811,1.3431,2.6976,2.7071,2.7547,2.7914,2.8081,2.8373,2.8571,2.8664,2.885,2.8757,2.8362,2.8175,2.8092,2.8092,2.8269,2.8466,2.8757,2.885,2.9035,2.922,2.9301,2.9301,2.9301,2.9209,2.9024,2.8943,2.8839,2.8582,2.8147,2.8055,2.7904,2.7554,2.7345,2.7093,2.7072,2.6854,2.6647,2.6583,2.6568,2.5973,2.5057,2.4692,2.4089,2.3767,2.3503,2.3349,2.3319,2.3047,2.3047,2.3057,2.3232,2.3319,2.3493,2.3647,2.382,2.3907,2.3907,2.3993,2.409,2.4176,2.4176,2.409,2.4003,2.3907,2.3907,2.3377,2.3038,2.295,2.253,2.2451,2.2362,2.2264,2.2176,2.2087,2.1998,2.1998,2.182,2.1651,2.1562,2.1463,2.1374,2.1365,2.1374,2.1284,2.1195,2.1096,2.1105,2.0997,2.0997,2.1006,2.0546,2.0093,1.9828,1.9479,1.9204,1.902,1.892,1.8643,1.8458,1.8079,1.7792,1.752,1.7145,1.6857,1.6669,1.6574,1.6386,1.619,1.6008,1.5913,1.5534,1.5064,1.4873,1.4675,1.4394,2.782,2.7914,2.8384,2.8653,2.8921,2.9117,2.9301,2.9312,2.9577,2.9772,2.9874,2.9301,2.9002,2.891,2.891,2.9106,2.9301,2.9577,2.9772,3.0057,3.0136,3.0136,3.0057,2.9977,2.9874,2.9669,2.9566,2.9393,2.9212,2.9109,2.9076,2.8914,2.8693,2.8385,2.8252,2.7964,2.7799,2.7776,2.7687,2.7366,2.6608,2.5878,2.5073,2.4425,2.4099,2.4089,2.4099,2.4109,2.4119,2.4247,2.4425,2.4533,2.4707,2.4892,2.4823,2.4919,2.4964,2.489,2.4796,2.4765,2.4765,2.468,2.468,2.468,2.469,2.4509,2.4079,2.3744,2.3406,2.2979,2.2882,2.2794,2.2618,2.253,2.2441,2.2353,2.2176,2.2008,2.1919,2.183,2.183,2.183,2.1741,2.1571,2.1482,2.1472,2.1374,2.1186,2.1177,2.1186,2.1006,2.0744,2.0473,2.0209,1.9853,1.9662,1.9563,1.9379,1.9188,1.8819,1.8542,1.8265,1.7986,1.7707,1.752,1.7419,1.7326,1.7044,1.6958,1.677,1.6305,1.5825,1.5635,1.5439,1.5261,2.8735,2.9117,2.9209,2.9485,2.9852,2.9932,3.0114,3.0306,3.0397,3.0499,3.0691,3.0703,3.0318,2.9932,2.9932,3.0023,3.0204,3.0385,3.0589,3.0781,3.0871,3.0883,3.0793,3.0703,3.0601,3.0408,3.0216,3.0034,3.0034,3.0034,2.9932,2.9897,2.9909,2.9772,2.9772,2.95,2.924,2.9128,2.8981,2.8745,2.7997,2.7255,2.654,2.6114,2.5915,2.5826,2.5826,2.5647,2.5647,2.5647,2.5753,2.5878,2.6101,2.6213,2.6259,2.6163,2.6098,2.5958,2.5872,2.5797,2.5807,2.5753,2.5743,2.5635,2.5624,2.557,2.5306,2.5115,2.469,2.3917,2.3744,2.3406,2.3319,2.3057,2.2882,2.2706,2.2441,2.2353,2.2264,2.2264,2.2264,2.2264,2.2176,2.2097,2.2008,2.1909,2.1919,2.1722,2.1544,2.1553,2.1553,2.1374,2.1203,2.1015,2.0727,2.0473,2.0283,2.0102,1.992,1.9554,1.9279,1.9096,1.8819,1.8635,1.845,1.8442,1.8265,1.7986,1.7807,1.7527,1.7066,1.669,1.6393,1.6204,1.6015]}]]